GFSGL_sfc_thetae_000.txt.gz
Theta_e
344 341 337 332 330 329 329 330 329 328 329 330 330 330 330 330 332 331 331 332 332 332 332 332 332 332 329 326 325 324 321 319 315 321 320 324 324 325 326 326 326 326 326
344 339 335 332 331 330 331 331 330 329 329 330 330 331 332 332 332 331 331 333 332 331 332 331 331 330 329 328 324 324 323 322 319 318 323 322 323 326 326 324 324 324 325
344 335 333 331 332 331 331 331 330 329 328 329 331 330 330 330 328 329 331 331 331 331 331 330 330 328 327 326 325 324 324 324 321 319 319 323 323 325 323 324 324 324 324
340 335 333 332 331 333 332 331 331 330 329 329 329 329 329 328 328 329 330 330 330 330 331 331 329 327 327 327 326 325 325 323 322 320 319 321 322 324 321 319 318 321 320
339 336 335 334 335 333 332 332 331 330 330 330 329 329 329 328 328 330 331 330 330 331 332 330 329 328 328 328 327 327 323 322 321 320 318 319 319 320 319 320 317 318 320
339 337 338 336 334 333 334 334 331 330 329 330 328 329 329 329 326 327 332 331 332 330 329 328 325 325 325 325 326 328 327 324 322 320 319 318 320 321 320 317 316 315 312
340 340 338 333 332 332 333 333 331 328 329 328 329 329 329 331 323 324 328 332 329 326 326 325 323 325 326 323 322 323 325 325 325 326 319 320 319 321 320 317 316 313 314
340 340 335 333 331 331 330 328 330 329 328 328 329 329 329 330 322 321 325 331 329 326 324 323 322 322 321 322 322 322 321 320 320 319 320 320 321 321 321 320 316 316 316
339 337 335 334 333 334 331 330 330 330 329 329 330 330 328 329 320 320 323 328 327 325 323 321 319 321 318 316 319 318 316 317 317 316 317 316 316 316 317 317 313 312 310
337 337 337 335 331 330 332 332 331 331 330 331 330 328 324 327 320 319 320 326 324 320 319 320 316 315 312 311 316 314 313 314 313 314 314 315 316 317 317 319 318 311 310
337 337 338 337 335 334 331 329 328 330 330 329 327 324 327 328 328 317 313 322 320 319 318 317 316 311 308 307 307 313 312 312 312 311 310 311 312 313 315 317 317 314 310
335 335 333 333 334 329 326 326 327 326 324 324 326 322 321 326 315 315 311 314 316 318 316 313 313 305 305 306 309 307 307 309 310 310 309 308 309 310 313 313 316 314 316
330 329 331 330 330 328 326 326 325 325 324 324 325 325 326 319 314 308 309 308 311 311 311 309 306 303 302 307 307 307 307 308 307 305 304 306 309 311 313 313 314 314 315
327 328 329 328 327 326 327 328 326 324 322 324 326 324 321 316 313 312 310 310 309 309 305 306 308 308 307 307 306 305 306 306 305 303 303 305 307 309 307 311 309 311 310
326 325 325 325 327 327 326 322 324 321 317 325 323 322 317 313 311 306 306 308 308 305 303 309 310 308 304 303 302 302 302 303 301 301 301 302 304 304 304 308 308 308 308
326 324 323 325 324 323 313 310 301 300 300 299 301 310 309 304 299 297 295 295 294 296 305 307 304 301 301 299 298 298 299 298 298 299 299 300 299 300 301 304 306 306 305
323 320 319 319 322 319 315 312 310 304 297 295 296 296 298 297 296 295 293 293 294 298 304 302 300 298 297 296 295 295 295 296 297 297 297 297 297 299 300 302 303 304 305
322 314 322 321 320 317 315 313 311 309 308 305 298 299 295 295 295 294 294 297 302 300 300 299 296 294 294 295 294 294 294 295 296 295 295 296 296 296 297 299 302 301 303
321 319 320 320 318 315 315 313 312 309 307 306 305 300 296 294 292 294 295 304 302 299 296 295 294 295 295 296 294 292 292 294 294 294 294 294 295 296 296 298 299 299 302
322 316 316 317 315 314 313 312 310 309 308 307 307 307 305 303 304 303 301 300 299 297 296 297 297 297 297 294 291 290 292 293 293 293 293 294 294 296 296 297 298 297 300
319 319 317 317 316 314 314 313 312 310 309 308 309 306 300 307 305 303 301 300 300 299 299 298 297 295 291 290 291 292 292 292 292 292 292 293 294 295 296 297 298 299 300
316 316 317 318 316 315 315 315 314 313 309 310 308 305 295 305 305 303 302 301 300 300 298 295 293 291 290 290 291 291 291 291 292 291 292 293 294 295 296 296 297 297 298
315 314 314 314 314 311 313 314 314 312 310 309 308 304 301 303 304 303 302 301 300 300 296 294 291 290 289 289 290 290 290 291 290 290 291 293 294 294 295 295 295 296 296
313 313 313 312 312 312 311 311 312 307 311 309 305 303 302 302 302 302 302 302 301 298 294 292 291 290 288 288 289 288 288 289 290 291 291 293 293 294 295 295 295 296 295
309 310 309 309 309 309 309 310 310 312 310 307 307 306 305 304 303 302 303 302 300 296 294 292 291 289 288 287 287 287 286 283 288 287 293 293 294 295 294 295 295 295 295
308 309 308 308 308 307 306 306 306 305 306 307 306 306 306 304 303 302 301 299 297 296 294 292 291 289 288 288 288 286 283 283 288 284 293 294 293 294 294 294 294 294 294

GFSGL_sfc_thetae_003.txt.gz
Theta_e
356 359 360 359 359 360 353 352 342 344 345 344 344 342 341 341 342 342 342 340 339 340 342 341 342 343 338 337 338 337 332 330 325 326 329 333 334 334 334 336 335 334 331
357 358 357 358 350 349 352 340 342 340 344 344 343 342 342 341 342 342 340 336 338 338 339 340 339 338 340 340 336 337 333 334 329 326 331 329 332 334 334 334 332 331 331
356 354 354 353 350 352 336 341 338 338 338 340 341 341 341 342 342 343 341 339 339 339 339 339 339 339 338 335 336 333 332 335 332 327 325 328 329 331 331 333 332 332 331
352 353 354 350 349 341 340 335 337 336 337 337 339 342 341 342 342 340 338 339 340 339 340 340 340 339 338 337 334 335 334 332 331 328 326 325 326 331 329 326 325 327 326
355 352 351 351 348 343 335 334 333 334 334 334 336 340 341 339 337 338 339 339 341 340 340 342 341 340 334 332 331 334 334 330 327 325 324 324 323 323 324 325 324 324 326
353 351 351 348 343 341 341 335 333 333 333 336 336 336 337 336 329 328 335 339 341 341 340 340 341 334 332 328 327 328 330 330 329 326 323 323 327 326 326 325 323 320 317
350 350 348 345 341 342 341 340 335 330 332 334 337 335 339 338 326 325 330 338 339 340 339 338 337 333 330 332 327 325 325 325 327 330 326 326 326 327 328 324 322 320 319
349 348 347 344 342 341 342 340 337 333 333 338 338 339 338 339 323 322 326 337 335 337 338 338 336 335 333 328 328 327 328 330 331 328 328 327 327 327 324 322 322 320 322
347 348 345 343 342 341 340 340 339 337 337 337 336 338 338 338 321 320 327 334 333 331 336 336 332 330 322 317 322 324 326 326 322 318 317 316 315 315 317 319 316 317 316
347 347 345 343 341 339 341 341 339 339 335 336 337 339 331 337 318 318 326 328 329 328 334 330 318 322 313 313 322 324 322 323 322 321 321 320 320 321 318 321 317 313 315
349 346 345 344 343 343 343 341 339 338 337 337 336 338 337 336 332 315 314 330 330 329 329 328 326 311 309 308 308 323 319 315 318 318 318 318 319 320 321 322 322 319 317
347 342 342 342 341 340 340 338 338 338 337 336 336 335 332 336 317 316 313 314 323 330 329 328 322 307 304 307 311 308 308 309 316 315 315 314 315 315 317 317 319 320 322
342 339 340 341 339 338 336 336 334 335 334 333 331 329 330 331 329 311 309 309 313 324 324 310 305 303 303 306 310 308 307 315 313 312 311 311 312 313 316 315 316 321 321
338 339 340 341 338 337 336 335 333 331 329 327 328 329 331 329 327 324 320 317 310 316 311 317 311 309 308 312 311 311 313 312 310 309 308 309 311 311 310 309 310 315 314
340 340 339 339 336 335 330 328 331 332 323 329 329 331 331 329 326 316 315 321 321 311 312 318 318 317 316 315 314 313 311 310 308 308 307 307 307 307 306 308 310 313 313
338 337 335 333 332 331 326 321 300 300 300 300 300 319 321 306 300 298 298 297 295 297 312 314 314 313 313 312 311 309 309 305 306 305 305 305 304 304 304 305 311 313 312
335 334 332 329 332 330 326 325 324 307 297 295 296 298 302 299 295 294 293 294 295 298 312 313 312 311 310 309 307 306 304 304 304 303 304 304 303 303 303 304 309 311 308
333 317 329 328 328 326 324 325 325 323 322 316 299 302 295 294 293 293 294 298 308 307 313 311 309 307 306 306 306 304 302 301 301 302 302 303 303 302 302 303 307 306 305
328 327 328 329 329 325 327 325 323 323 322 318 312 304 299 292 293 293 295 313 313 311 309 308 306 306 307 307 306 302 300 298 299 301 301 302 302 302 302 303 305 302 303
332 321 324 327 323 323 323 323 323 321 319 317 317 317 313 308 312 312 312 312 311 309 307 306 306 308 307 306 301 299 299 301 301 301 301 301 302 302 302 302 304 306 308
330 326 322 327 326 326 325 324 323 321 319 319 319 317 305 315 315 314 311 310 309 308 308 308 307 307 304 302 300 300 302 301 301 301 301 301 302 301 302 302 303 305 307
326 326 327 327 326 325 325 324 323 322 321 320 319 310 298 314 315 313 311 310 310 310 309 306 304 303 301 300 300 302 302 301 301 300 300 300 301 301 301 301 302 303 304
325 324 324 324 325 318 322 324 324 323 321 319 319 317 312 314 313 312 310 311 310 309 308 304 302 301 300 299 301 302 301 300 299 299 299 299 300 300 300 300 301 301 301
323 322 322 322 323 322 322 321 320 312 320 320 318 317 313 308 308 309 309 310 310 309 306 303 302 300 297 296 298 300 300 300 300 300 299 299 299 299 300 300 300 301 301
321 320 320 320 321 322 320 320 319 318 318 318 318 317 314 313 313 312 311 310 310 308 305 302 301 299 296 295 294 295 290 285 292 288 299 299 299 301 300 299 300 300 301
316 316 315 316 316 316 314 314 314 314 313 314 314 315 316 316 315 313 311 310 309 308 305 303 301 298 296 296 296 289 283 283 291 284 296 300 299 299 299 299 299 299 300

GFSGL_sfc_thetae_006.txt.gz
Theta_e
361 364 363 362 363 365 364 364 363 361 355 352 350 346 344 343 343 343 343 339 338 338 338 339 341 344 337 334 334 333 331 330 326 327 329 334 337 337 337 339 338 337 335
362 365 361 362 362 362 365 362 360 360 353 351 348 345 346 343 343 343 340 338 337 336 337 340 340 338 341 342 336 338 335 335 329 330 333 331 337 337 336 338 335 334 334
359 359 360 360 361 362 363 361 361 354 347 344 343 344 345 343 343 344 343 341 339 338 339 339 339 340 340 336 337 333 331 331 332 328 328 331 330 331 333 337 337 338 332
356 358 361 360 360 361 361 353 348 348 344 340 341 342 341 344 344 343 342 342 339 337 339 340 340 340 339 339 336 337 337 333 333 328 327 327 329 332 331 326 326 328 327
357 357 359 362 362 360 358 352 346 345 343 335 339 337 341 343 338 342 341 339 339 339 340 340 342 341 337 336 334 338 337 331 327 326 324 324 322 323 328 327 324 326 329
359 358 361 362 361 359 355 350 347 344 341 339 336 336 337 338 330 330 337 339 340 340 340 342 344 340 337 332 330 329 330 331 329 325 324 324 329 329 328 326 325 323 320
358 359 360 361 358 355 352 349 345 343 341 340 340 338 338 341 327 327 331 338 339 340 343 342 340 335 336 339 331 327 327 325 325 330 329 328 330 331 330 328 326 324 322
358 358 359 358 355 353 351 347 345 340 340 342 342 341 340 341 327 325 330 340 342 343 342 340 339 335 336 336 336 333 332 333 334 331 332 330 330 330 327 325 324 324 324
354 355 356 355 352 348 347 347 347 342 341 343 344 343 342 342 321 321 329 340 340 341 337 337 336 336 327 321 329 329 330 330 326 321 319 317 316 316 318 321 320 318 318
354 355 355 354 352 349 348 348 347 345 343 341 342 343 336 344 319 318 326 337 338 335 332 334 323 327 316 315 326 327 326 327 328 326 326 324 321 324 319 324 320 316 317
355 356 354 353 352 352 350 347 346 344 342 344 341 343 343 336 339 315 316 336 332 332 332 337 336 315 312 310 310 325 323 321 322 323 322 320 320 322 322 325 326 321 317
356 354 350 351 348 349 348 344 341 342 342 341 343 343 344 345 323 315 313 317 326 334 337 333 323 308 307 308 311 311 310 310 320 320 318 316 317 318 319 320 323 322 320
350 346 348 349 346 345 342 338 338 341 339 338 339 338 343 340 328 313 311 311 316 332 335 313 307 305 304 305 310 311 308 319 320 317 314 315 316 317 319 321 322 326 326
349 349 345 343 344 343 341 341 340 338 337 341 340 334 333 334 332 330 322 324 312 321 312 320 316 311 308 311 315 313 319 320 316 314 314 315 316 315 314 314 311 311 315
345 345 342 341 340 342 334 326 337 331 325 335 333 331 328 334 331 320 320 329 328 316 322 324 322 322 320 321 321 320 319 316 314 314 313 313 312 311 310 311 309 311 314
342 341 341 342 342 340 336 330 299 302 301 301 300 317 324 309 301 298 297 297 300 301 316 320 319 319 318 318 318 316 315 311 313 312 311 310 309 308 307 307 308 311 313
343 343 340 335 337 337 336 332 328 310 297 296 296 297 301 300 296 295 294 295 296 300 317 319 317 318 317 316 314 312 311 312 312 310 309 308 307 307 306 306 307 310 312
342 322 337 336 336 334 334 333 332 330 326 322 300 304 295 294 294 294 294 298 312 309 318 318 317 316 315 313 312 311 310 309 308 307 307 307 306 306 305 305 306 309 311
334 333 335 333 332 328 331 330 330 330 328 326 313 305 299 294 294 295 297 318 319 318 318 315 315 313 313 312 312 310 308 306 303 305 306 305 305 305 305 305 305 304 307
332 322 326 331 332 331 332 330 329 328 327 326 323 322 316 310 316 317 317 319 317 316 317 314 313 313 313 312 310 307 305 304 305 305 305 305 305 305 304 304 305 305 310
331 332 325 332 330 330 329 327 327 327 326 324 324 322 310 321 320 319 319 317 316 315 315 314 314 312 312 309 306 304 303 304 305 305 304 304 304 304 305 305 304 305 306
331 329 328 326 327 327 327 328 327 325 324 323 322 316 302 319 319 320 319 317 317 316 315 315 312 310 309 307 305 303 304 304 305 304 303 303 304 304 304 304 304 304 304
328 326 328 330 330 321 326 326 326 325 324 323 324 322 318 319 320 320 319 317 317 315 315 312 310 308 308 305 303 304 304 306 304 304 303 303 303 303 303 303 303 303 303
329 329 328 328 327 324 323 324 325 316 323 324 322 321 319 319 320 319 316 316 316 315 314 311 309 308 305 302 302 303 304 305 304 304 303 303 303 302 304 303 303 303 303
325 326 326 326 324 322 323 322 321 320 320 321 319 318 319 320 319 316 316 316 316 314 312 310 309 306 303 301 299 300 289 286 295 288 302 304 303 304 303 303 303 303 303
321 321 322 322 320 320 318 318 318 318 317 317 318 318 318 317 318 317 316 316 315 314 312 310 308 305 302 301 300 289 283 285 292 284 296 303 303 303 301 302 302 302 302

GFSGL_sfc_thetae_009.txt.gz
Theta_e
368 368 369 367 369 372 370 370 370 366 365 360 359 356 350 348 348 350 347 344 344 345 345 341 343 347 337 334 333 333 330 331 325 329 331 337 346 343 340 342 339 341 337
365 369 369 370 369 368 370 371 371 367 366 361 358 354 350 345 341 348 344 343 339 339 340 343 341 338 347 348 336 345 340 339 330 333 334 332 339 343 345 344 338 334 336
362 362 366 366 368 368 370 370 371 369 365 358 358 355 348 348 348 349 348 342 342 342 342 343 342 345 346 339 343 337 335 337 336 328 328 330 330 329 334 341 338 336 335
355 356 363 366 367 367 370 370 370 368 366 359 356 352 350 348 348 347 347 346 346 345 344 344 344 343 344 345 342 345 341 336 334 330 328 328 330 333 335 328 328 328 328
359 358 362 369 369 369 369 370 369 368 364 358 355 350 348 344 342 347 344 343 344 343 343 342 344 343 339 339 339 338 341 334 330 328 327 327 327 327 327 329 329 329 327
363 362 366 371 371 370 370 371 367 363 360 356 349 344 341 338 331 333 341 339 346 344 341 345 346 341 338 333 333 332 331 334 333 327 327 326 330 330 328 327 328 324 319
366 368 370 374 371 371 369 365 361 356 357 352 347 339 339 344 328 328 332 340 342 344 346 344 341 339 337 338 333 329 328 327 327 333 331 330 330 332 332 331 329 325 322
369 369 371 373 370 369 365 361 356 354 353 349 344 343 344 345 328 325 331 341 342 342 346 347 347 344 341 339 338 333 334 338 337 332 333 334 335 333 329 327 327 326 325
362 365 367 366 365 363 359 357 354 351 350 345 342 341 344 346 323 322 330 341 339 344 346 346 344 342 333 324 333 329 329 331 330 326 324 320 318 318 320 322 319 317 316
360 360 365 366 362 358 358 356 354 354 349 345 342 344 339 346 321 319 328 336 337 339 342 346 327 332 318 318 330 328 329 331 330 330 330 325 322 325 319 324 323 319 317
357 358 361 360 360 359 356 357 354 352 348 345 342 346 349 345 343 316 316 336 338 337 338 337 336 316 314 312 313 328 326 323 328 324 323 323 326 325 321 325 330 323 317
362 359 359 359 355 353 352 353 351 348 345 345 346 346 345 350 326 316 314 315 326 336 339 337 335 314 314 311 312 315 313 312 320 319 320 321 320 317 319 322 328 326 323
360 359 357 354 353 353 353 348 343 344 341 342 339 342 346 349 342 316 313 314 316 328 331 313 312 309 308 307 308 313 311 318 319 320 319 316 316 318 325 324 327 330 329
354 350 350 349 347 347 346 343 340 339 340 342 341 342 342 341 339 334 325 327 316 320 317 322 318 316 311 315 316 315 319 321 320 317 315 317 317 316 315 315 312 311 310
353 350 348 346 345 341 336 334 339 333 330 338 339 340 335 331 333 322 321 327 331 322 327 328 325 324 323 323 322 322 321 322 318 317 315 314 312 312 312 312 310 309 308
347 346 344 343 342 340 334 325 300 303 300 299 302 317 327 308 301 299 298 300 302 305 322 322 321 321 320 320 321 321 320 317 317 316 313 312 310 310 309 308 309 308 308
346 346 342 338 341 341 338 337 333 313 299 297 298 300 305 303 297 296 296 298 300 302 318 319 319 320 319 319 318 317 315 315 318 312 311 310 309 308 307 307 307 307 308
346 325 341 339 337 337 337 335 333 330 327 324 302 306 296 296 296 295 296 300 313 309 318 318 318 319 318 316 315 314 314 313 311 310 308 308 308 307 306 306 306 307 307
342 338 339 338 337 332 333 333 332 331 330 326 316 308 301 295 295 296 296 317 319 319 319 319 318 316 315 315 314 314 313 310 307 305 307 307 307 306 306 306 306 303 304
336 327 331 334 332 331 331 329 329 329 327 324 324 321 315 309 314 316 317 320 320 319 319 318 317 316 315 314 313 311 309 307 307 307 306 306 307 306 305 305 305 304 306
332 332 327 333 331 330 330 329 328 327 326 325 325 321 310 319 321 322 320 321 320 319 318 318 317 317 316 314 311 308 306 305 306 306 306 306 306 305 306 305 305 305 305
332 332 330 330 329 329 328 328 326 325 324 325 322 317 304 323 322 322 322 323 320 320 320 319 317 315 313 311 309 306 304 304 306 306 305 305 305 305 305 305 304 304 305
329 329 329 329 329 323 326 328 326 327 324 324 320 319 321 323 322 321 322 322 323 320 320 318 316 313 312 311 307 304 304 305 306 305 304 304 304 305 305 305 304 304 304
331 327 327 328 329 326 326 327 324 316 324 323 323 323 323 323 320 323 321 321 321 320 318 317 315 312 311 308 305 304 305 306 305 305 305 304 305 304 305 305 304 304 304
327 326 326 324 324 324 323 323 322 323 323 322 322 322 321 321 318 319 322 321 316 317 317 316 314 311 310 307 304 303 291 288 297 288 302 304 305 306 305 304 304 304 304
322 324 325 325 323 322 321 320 321 321 321 320 321 322 320 319 319 319 319 319 317 315 316 315 313 311 308 306 304 289 284 287 293 285 297 301 304 304 303 302 304 303 303

GFSGL_sfc_thetae_012.txt.gz
Theta_e
367 367 367 367 367 364 366 363 364 361 359 358 356 354 352 349 349 348 345 342 343 342 342 343 341 344 340 338 341 338 334 332 327 328 332 334 334 334 336 338 341 338 336
366 366 366 367 367 366 363 366 364 365 362 358 357 354 352 346 348 344 341 340 343 341 341 341 340 339 342 342 341 338 337 338 332 328 332 332 335 339 339 335 338 335 334
364 363 364 364 365 365 366 364 368 364 361 356 357 354 351 345 346 344 342 342 342 339 340 340 338 341 342 341 340 338 336 336 336 330 328 331 332 331 330 332 332 335 337
361 361 362 362 364 363 366 366 365 365 361 360 356 354 352 346 345 343 344 344 343 340 343 342 341 338 341 341 339 340 339 337 334 328 328 329 331 332 333 328 327 331 330
357 358 360 364 364 365 364 366 366 365 364 362 359 354 353 347 343 345 345 344 343 340 345 342 343 344 341 340 341 338 339 335 330 325 322 324 325 325 325 326 325 326 327
353 355 359 362 364 363 365 364 366 366 366 363 359 353 351 346 333 335 343 343 344 340 341 343 343 340 337 334 331 332 336 334 328 325 323 322 324 327 328 326 324 321 319
355 356 357 361 363 364 364 364 365 365 365 361 359 353 348 346 329 329 335 342 338 339 344 342 341 338 340 341 332 330 330 329 329 327 324 325 326 328 327 325 324 323 320
360 358 360 363 364 365 365 364 366 365 362 359 355 347 344 342 329 327 330 337 337 340 342 343 341 338 341 340 339 337 334 332 332 330 328 328 330 331 329 326 322 321 321
357 366 363 371 367 367 366 365 365 361 355 352 348 341 340 343 327 323 326 336 335 338 342 340 340 341 333 325 336 333 331 333 331 325 328 325 321 319 321 322 318 316 315
362 364 371 371 369 367 367 363 357 353 351 350 343 341 336 342 326 321 324 337 335 338 342 340 328 335 323 320 332 331 328 329 332 331 330 326 321 323 320 321 320 316 316
366 366 369 370 369 368 366 358 352 352 354 347 342 342 343 340 342 316 317 339 339 339 338 337 340 321 316 316 317 331 326 320 325 326 325 322 322 324 324 327 325 322 318
366 365 366 367 361 361 358 353 353 350 346 344 342 341 344 348 325 315 315 318 328 337 340 338 336 313 311 315 313 315 313 314 320 320 319 318 319 319 320 321 323 322 321
361 362 362 361 358 356 352 351 349 349 344 341 342 341 345 347 343 314 314 314 317 325 336 323 313 312 316 311 311 313 314 317 317 317 317 317 317 320 322 320 323 324 325
360 357 355 351 349 351 350 349 345 343 342 342 342 345 344 343 338 334 330 322 317 320 317 317 317 316 316 318 317 311 316 319 320 321 318 318 321 317 315 316 313 312 308
352 350 347 345 345 340 326 332 342 325 325 344 344 342 338 336 336 326 325 329 328 322 322 324 321 321 321 320 319 320 320 320 320 321 319 317 313 313 313 314 311 308 307
348 346 343 343 340 337 330 323 301 302 300 300 303 327 320 308 303 301 301 301 303 311 325 329 326 325 323 324 320 321 319 319 319 318 316 314 312 311 310 310 310 309 307
347 347 344 341 342 339 336 332 324 310 300 298 298 305 310 303 298 297 297 298 303 310 326 323 321 326 323 322 320 319 318 320 319 317 315 313 311 310 308 308 308 308 307
350 331 343 342 342 341 340 338 336 329 325 320 301 305 296 296 295 296 298 305 315 311 319 319 324 323 322 320 319 318 317 316 314 312 309 308 308 310 308 307 307 306 305
346 341 339 343 342 338 339 338 334 331 329 321 313 306 299 296 296 298 298 320 321 321 319 319 322 320 320 319 319 319 316 314 310 309 308 309 310 307 307 306 306 303 304
345 331 334 339 333 336 334 333 332 332 325 321 321 317 313 310 313 315 316 319 320 321 324 322 320 320 320 319 318 317 314 312 310 310 310 309 309 308 305 305 304 304 304
335 337 327 336 332 332 331 330 330 329 328 326 322 320 308 319 319 320 321 321 322 323 325 322 322 321 320 318 317 313 310 308 308 309 308 307 308 305 307 306 304 304 304
331 332 331 331 332 331 332 332 330 328 327 327 327 317 303 321 323 325 322 319 323 324 321 323 321 320 318 315 312 310 307 306 308 308 306 306 306 305 306 304 304 304 304
331 328 328 328 325 322 325 327 328 328 321 324 324 318 315 321 324 322 323 324 323 319 318 318 320 318 317 314 311 308 305 305 307 307 306 306 304 305 305 304 304 303 303
330 327 327 328 328 327 326 327 322 318 324 323 322 322 321 324 323 321 323 322 322 319 318 321 316 316 314 312 311 308 306 306 305 303 303 302 303 304 304 305 304 303 303
325 327 324 325 326 321 324 324 324 324 324 324 322 322 324 324 323 321 320 319 318 318 319 318 314 317 314 312 307 299 289 290 297 290 301 303 302 304 306 302 303 302 304
324 324 321 319 318 322 320 322 322 319 319 323 323 324 324 323 322 322 322 321 320 319 319 317 316 316 314 310 302 290 284 288 293 287 295 298 300 304 304 302 303 302 303

GFSGL_sfc_thetae_015.txt.gz
Theta_e
359 358 360 359 358 356 356 353 351 351 348 348 348 348 344 342 342 340 334 334 336 331 333 330 333 331 329 327 330 327 324 323 318 319 323 325 327 324 327 331 333 332 330
360 359 359 360 360 357 355 354 354 350 351 350 348 347 345 342 340 340 335 335 332 334 332 331 329 334 329 329 333 329 329 328 323 319 324 324 324 327 329 330 331 333 332
361 360 359 358 359 359 356 356 356 356 352 350 350 346 345 343 340 340 336 332 334 334 334 333 331 331 328 331 333 332 328 329 327 324 322 325 326 325 323 324 324 325 331
361 360 358 358 358 359 359 356 357 357 355 348 348 348 346 344 340 340 336 334 335 335 334 335 334 332 331 332 332 331 331 328 326 323 322 323 324 326 325 323 322 322 323
358 358 357 358 359 359 359 359 357 356 355 353 347 348 346 343 340 337 337 336 335 334 334 337 336 337 336 334 333 330 331 329 326 322 319 317 319 319 321 321 321 321 322
355 355 356 357 357 357 358 358 359 356 356 353 351 348 346 346 335 335 338 337 337 335 334 338 336 338 337 335 335 334 334 329 324 320 318 318 319 320 321 320 319 317 315
352 354 354 354 355 356 357 357 357 357 358 356 354 350 346 347 332 330 336 338 336 336 337 337 337 337 335 332 331 330 329 329 328 323 320 319 318 320 321 318 317 317 316
347 351 353 354 354 356 356 357 356 358 357 357 354 348 347 342 329 328 331 334 333 334 338 338 335 334 333 335 332 329 328 329 328 326 323 325 323 325 324 322 319 316 314
344 346 350 352 354 355 356 356 357 357 357 354 349 343 339 338 325 324 327 331 331 331 335 336 335 334 329 323 330 329 329 328 328 324 326 326 322 321 323 317 314 310 309
343 348 350 351 354 356 357 356 355 356 348 348 342 340 333 336 324 321 322 330 330 328 329 335 329 331 322 322 329 327 323 323 323 322 321 321 318 318 320 316 319 310 309
345 358 354 358 360 359 358 354 349 348 348 343 339 338 336 336 332 318 317 331 332 331 329 329 330 322 320 317 318 325 325 315 316 312 314 314 314 315 317 321 320 314 311
359 361 361 362 362 356 351 347 345 347 344 340 338 337 339 335 328 316 315 317 328 330 328 330 328 318 312 315 318 316 311 313 310 310 311 311 311 311 314 314 316 318 318
358 357 356 354 351 349 346 345 344 342 341 338 337 335 333 337 330 316 313 313 317 324 327 321 313 312 313 314 314 313 313 310 309 309 310 311 309 312 310 309 309 308 306
353 350 350 349 346 347 345 344 343 340 339 338 337 333 333 332 327 321 320 318 318 318 317 315 316 315 314 313 311 310 308 308 310 310 311 310 309 306 305 306 304 302 300
347 344 344 344 337 321 312 317 331 315 325 334 335 334 332 331 330 322 320 321 319 315 316 314 311 310 309 309 311 312 312 312 312 315 312 306 303 304 304 303 301 299 298
341 340 340 334 329 325 321 314 301 301 300 301 308 321 312 314 308 306 307 309 308 308 316 315 312 313 313 314 313 312 314 316 315 312 305 304 302 302 300 301 300 299 299
340 339 337 334 332 329 325 320 313 307 300 298 299 306 308 303 301 299 298 300 304 309 316 316 313 311 312 311 313 313 310 314 309 305 302 299 299 299 301 299 299 299 298
341 326 338 335 333 331 329 324 319 317 315 312 300 300 297 297 296 296 298 305 309 308 311 310 310 309 309 308 306 306 305 303 302 299 297 297 297 299 298 298 298 297 296
341 340 339 338 336 332 333 330 325 322 319 311 303 300 296 295 296 298 300 312 311 310 309 309 314 308 307 307 307 306 303 301 298 297 297 298 300 297 297 297 297 299 299
332 331 333 336 336 335 334 332 329 325 316 312 311 307 301 302 303 305 306 308 309 311 311 310 308 308 307 306 306 303 301 300 299 298 300 298 297 297 296 296 297 295 296
332 328 326 327 332 330 326 324 327 324 317 316 315 311 304 310 310 309 308 310 311 313 312 310 309 308 307 307 305 302 300 298 297 298 296 295 296 296 297 296 295 297 296
327 327 325 327 327 327 324 323 322 324 320 319 318 309 300 311 313 313 312 313 314 315 315 311 310 309 308 305 302 299 297 295 297 296 296 296 296 296 297 296 297 297 295
324 324 324 323 321 320 322 322 319 321 319 320 318 311 308 311 314 315 316 318 318 316 315 313 313 310 305 302 300 297 295 296 297 297 296 295 294 295 296 296 296 295 294
325 325 324 321 322 321 319 318 317 315 318 319 317 313 312 312 316 317 317 317 314 315 315 311 311 307 303 301 297 295 297 296 294 293 293 293 294 295 296 297 294 295 295
323 323 321 322 319 318 317 317 317 318 318 320 317 314 315 316 316 315 315 314 313 314 313 312 309 308 303 295 292 290 289 290 289 290 292 292 292 293 295 294 293 295 295
320 320 321 318 318 319 317 314 314 320 319 318 318 319 317 316 315 314 313 312 311 310 310 309 309 306 303 297 293 288 285 288 288 287 288 289 290 292 295 294 294 295 294

GFSGL_sfc_thetae_018.txt.gz
Theta_e
353 353 352 351 350 353 352 351 350 348 347 347 346 343 340 338 335 338 333 333 330 330 332 330 329 327 326 325 327 324 321 324 319 318 320 321 326 325 325 325 330 328 329
354 354 354 354 353 351 351 353 351 349 346 347 346 344 342 340 338 336 334 334 332 329 329 329 328 331 328 326 326 326 324 325 320 317 320 322 322 323 326 328 329 330 328
354 353 355 355 354 353 351 352 352 350 347 346 346 345 342 342 339 338 336 333 331 332 331 329 328 327 327 328 328 326 327 327 326 322 320 322 322 323 323 322 322 324 328
354 354 353 355 355 355 354 353 352 352 347 347 346 345 345 342 340 339 337 334 332 331 332 332 330 330 330 328 330 327 327 328 324 324 322 320 321 322 322 321 320 320 321
354 354 354 356 357 356 356 354 352 353 352 347 346 345 344 343 342 338 337 335 333 332 332 332 332 335 335 331 330 328 327 328 326 324 320 318 318 316 317 319 318 319 320
354 354 356 356 356 355 356 356 353 352 352 348 345 345 343 344 336 334 338 337 335 333 332 331 332 337 335 332 331 331 331 328 323 322 322 319 319 317 318 319 317 314 312
354 355 356 356 355 355 356 355 355 352 352 350 346 345 344 345 332 330 335 336 336 336 332 332 333 338 334 334 331 330 327 327 330 329 326 322 318 319 318 316 316 315 314
353 354 356 355 354 355 355 355 355 356 352 352 350 347 346 346 331 327 333 339 337 337 336 334 334 335 332 331 330 327 326 329 329 329 326 326 323 322 321 321 319 316 314
350 352 354 354 353 354 353 354 355 356 355 354 355 350 347 345 325 323 330 336 335 335 335 336 334 332 326 324 330 326 328 330 328 323 324 322 321 320 322 318 316 311 309
347 350 353 354 352 352 353 354 355 356 356 356 351 349 341 337 320 320 328 332 330 331 331 332 327 331 322 319 329 327 325 325 324 323 319 319 319 318 319 318 315 310 309
347 348 350 352 352 353 354 355 354 355 352 348 342 338 339 337 330 319 317 329 328 329 329 331 332 319 315 315 319 326 324 322 319 313 311 311 312 312 312 314 315 314 310
345 344 346 349 351 353 354 354 353 349 345 339 337 336 336 335 324 317 315 317 326 331 331 330 326 314 311 312 317 317 315 314 312 310 309 308 308 310 308 310 309 312 314
341 345 347 349 353 355 352 349 347 344 341 338 336 335 335 334 328 317 313 313 318 327 327 322 313 309 309 314 315 316 311 309 307 306 306 307 309 308 307 305 306 305 304
348 354 355 353 351 351 349 347 345 340 338 336 334 335 333 330 325 322 318 316 315 321 319 316 315 314 313 313 312 311 309 307 306 307 307 308 307 303 302 303 301 300 297
352 351 349 346 341 328 317 330 338 329 336 337 334 333 331 329 327 319 317 321 319 315 314 313 313 313 314 309 308 308 307 307 308 309 310 308 302 301 301 300 299 297 295
345 342 336 331 329 325 322 315 304 304 304 309 312 324 319 314 307 303 301 301 303 306 313 310 310 309 309 309 308 308 310 312 309 310 306 302 301 300 298 298 297 296 295
340 335 331 330 329 327 324 321 314 307 300 300 304 307 312 310 304 301 300 300 302 307 314 314 312 312 312 311 311 310 310 310 309 304 300 297 296 296 296 297 296 295 295
336 322 334 332 330 329 326 322 319 319 317 310 301 300 300 301 300 298 298 303 308 308 311 312 309 309 307 307 305 304 302 300 298 297 296 295 295 296 297 295 294 293 294
336 334 333 332 330 327 324 321 319 317 316 309 304 302 296 295 296 297 301 311 310 308 307 306 308 305 305 304 303 302 301 299 297 296 295 295 296 295 294 294 294 297 296
334 328 333 332 330 329 326 323 320 318 313 310 311 307 300 303 305 305 306 309 309 309 309 307 306 305 304 304 302 301 300 299 296 295 296 296 295 294 293 294 294 293 294
328 329 329 334 333 332 330 327 324 320 316 314 314 309 301 311 310 309 307 307 307 308 307 307 305 305 304 304 302 300 299 297 295 295 295 294 293 293 294 293 293 294 294
327 325 326 332 332 331 330 328 326 322 320 316 313 306 298 308 308 309 308 308 309 310 309 308 307 306 305 304 303 300 297 295 295 295 294 293 293 293 294 294 294 294 293
324 322 322 320 321 320 320 321 327 321 318 318 315 309 306 308 310 310 310 311 311 311 311 310 311 306 305 303 300 297 294 295 295 295 294 293 292 292 293 293 293 292 292
323 321 320 320 320 320 320 318 318 315 320 318 316 312 309 312 313 315 314 315 315 312 311 312 310 307 301 299 298 294 295 295 294 294 293 291 291 291 291 292 292 291 292
322 322 321 320 319 318 318 318 317 317 317 317 313 311 312 312 312 314 313 312 313 311 310 309 307 304 300 297 296 296 291 290 290 289 290 291 290 290 291 292 291 292 292
320 320 319 319 318 317 315 315 316 317 318 316 315 312 312 312 313 313 312 311 309 309 308 307 303 300 297 295 294 291 286 287 289 287 288 287 288 290 291 293 292 291 291

GFSGL_sfc_thetae_021.txt.gz
Theta_e
347 349 349 348 348 347 346 346 347 348 347 347 347 345 341 336 335 335 333 332 329 329 329 327 325 325 324 325 324 322 320 318 315 318 320 320 322 324 324 323 326 327 327
347 348 348 349 349 349 348 347 348 347 347 347 346 344 341 338 334 336 334 334 331 327 328 328 328 329 325 324 323 324 323 320 318 315 318 320 321 322 322 324 326 329 326
347 348 348 347 348 348 350 349 349 348 346 346 345 344 341 339 336 334 335 334 333 331 328 328 328 327 324 327 325 325 326 325 322 319 318 320 321 321 322 321 322 323 326
348 349 348 349 349 348 349 349 350 350 346 345 345 345 343 342 339 337 335 334 333 333 333 330 328 328 326 327 327 327 325 326 322 321 320 321 321 322 321 319 319 319 320
347 348 349 350 351 351 350 349 349 349 349 345 344 344 344 342 341 338 337 335 334 333 331 332 331 331 333 331 327 325 328 324 324 322 320 320 321 320 320 320 318 319 319
348 348 349 351 352 351 352 351 349 348 349 346 344 343 342 344 335 334 338 337 335 333 330 332 333 335 334 332 330 330 330 326 323 320 322 320 320 321 320 320 316 314 313
348 349 350 350 351 352 352 352 350 348 349 345 345 344 342 343 331 331 335 338 334 333 334 334 333 335 333 334 330 329 329 328 328 324 321 323 323 324 322 317 316 314 314
348 349 350 351 350 352 352 352 352 350 349 348 345 344 344 344 330 327 332 338 336 336 336 334 333 332 332 331 331 328 326 327 329 328 326 328 327 327 322 320 318 315 314
347 349 350 352 351 351 351 352 353 352 349 349 348 346 345 344 325 324 328 338 336 336 336 337 334 331 328 325 330 328 325 326 327 323 325 323 321 320 321 318 316 312 309
348 349 352 353 353 352 352 352 354 354 353 351 350 350 340 345 322 320 329 337 335 335 334 334 328 331 321 319 331 328 324 326 324 322 321 318 317 316 319 318 315 310 307
349 351 352 354 353 353 353 353 354 353 354 353 353 351 345 337 326 317 323 336 335 332 329 326 328 320 315 314 318 327 326 322 322 319 314 310 310 310 310 310 312 311 308
346 348 350 352 353 353 352 352 353 353 353 352 347 343 342 333 320 317 320 322 324 327 326 330 330 317 309 309 314 316 312 316 313 309 307 306 307 309 306 308 306 309 312
342 344 346 350 352 352 351 351 352 353 351 344 342 340 336 336 331 316 314 314 318 327 331 326 315 309 306 310 313 313 312 313 308 306 305 305 307 308 306 303 304 302 301
340 342 344 347 349 350 352 353 352 351 346 342 341 336 334 332 327 324 320 315 315 322 318 315 315 314 314 315 314 312 311 308 307 305 305 306 307 303 301 301 300 298 296
338 340 342 346 347 348 327 340 350 339 338 340 339 337 334 330 327 321 319 321 323 319 316 315 314 313 312 310 308 308 308 307 306 306 306 307 305 301 300 299 297 296 294
339 345 347 346 332 327 325 320 312 312 315 314 314 322 327 315 307 305 303 303 303 306 314 314 312 311 311 309 308 307 307 309 305 306 306 305 302 299 298 296 296 294 293
348 339 334 331 332 334 334 331 327 321 308 301 307 305 309 305 302 299 298 299 301 309 313 311 310 309 309 309 309 308 308 308 308 307 303 300 297 295 295 295 294 293 293
333 321 334 334 333 332 329 327 326 324 325 317 299 305 299 299 298 297 297 303 311 310 311 312 311 311 309 308 308 306 304 301 300 297 295 294 294 295 295 293 292 291 292
335 333 332 331 329 324 326 326 326 326 323 312 307 301 298 296 297 298 301 317 315 311 309 310 309 307 305 305 303 302 300 298 297 296 294 293 294 295 293 292 292 296 295
324 323 327 329 325 323 322 322 323 322 318 316 318 312 302 306 309 309 309 311 311 310 307 306 306 304 304 303 302 301 300 298 296 295 294 294 294 294 292 292 292 291 292
331 331 326 329 326 325 323 322 320 318 316 316 315 308 305 318 314 312 309 309 310 309 308 307 304 304 304 303 301 300 298 297 295 294 294 294 292 292 292 292 292 292 292
329 331 332 330 328 327 325 323 320 318 317 316 309 301 299 310 311 310 309 309 308 308 308 307 306 305 305 304 302 300 298 297 294 294 293 292 292 292 292 292 292 292 291
323 325 326 328 328 322 326 325 322 319 317 312 310 306 306 308 310 310 310 308 308 308 308 306 305 304 305 307 304 302 298 295 295 294 293 292 292 291 292 291 291 290 290
321 320 319 319 321 322 323 320 320 313 317 315 313 310 309 309 310 310 309 310 309 309 310 308 307 308 307 305 301 296 295 295 295 294 294 292 290 290 290 290 291 290 291
319 319 318 317 317 317 317 317 317 319 319 317 315 313 310 312 310 311 311 311 312 310 309 308 307 308 304 301 296 295 292 291 293 291 290 289 289 288 289 291 291 290 290
320 320 319 318 318 317 317 317 316 317 317 315 314 312 311 310 310 311 312 311 310 309 308 306 305 303 300 297 296 293 287 288 290 287 288 288 287 286 289 292 292 291 289

GFSGL_sfc_thetae_024.txt.gz
Theta_e
347 347 347 348 348 347 346 346 346 347 349 349 351 350 347 343 340 338 337 336 335 335 335 332 331 332 330 330 330 328 326 324 324 326 327 329 331 334 334 334 333 335 334
347 348 348 348 348 347 347 347 348 347 349 349 350 349 347 343 341 339 337 337 335 334 334 333 332 330 331 331 329 331 329 329 327 328 327 328 330 332 333 334 333 333 334
344 347 347 348 347 347 347 348 348 348 348 349 349 348 346 344 340 341 340 338 337 336 335 335 333 332 331 331 331 330 330 329 330 327 328 328 329 330 331 331 331 332 332
343 345 346 347 347 348 348 349 348 349 348 349 349 348 346 345 342 340 340 339 338 338 337 335 334 333 332 331 332 333 333 332 331 328 328 329 328 329 329 327 327 329 327
343 343 345 347 348 349 349 350 350 349 349 348 348 348 347 345 344 342 340 339 338 338 337 336 336 335 334 332 332 333 334 331 331 329 327 327 327 326 326 326 322 324 326
344 343 346 347 347 347 348 349 350 350 350 348 347 347 346 346 336 334 340 340 339 337 335 336 338 335 334 330 330 330 333 331 331 329 327 326 327 329 327 323 322 321 321
344 345 347 348 348 348 349 348 347 347 349 347 347 347 346 347 330 331 335 342 340 339 337 335 334 337 335 336 330 329 329 328 331 332 330 324 327 331 328 322 320 323 323
344 345 347 348 348 349 350 349 349 349 347 348 347 347 346 346 329 327 333 343 341 340 339 337 337 337 336 335 335 334 334 334 332 331 335 331 330 332 329 327 327 325 325
344 345 347 349 348 349 349 349 350 350 349 348 349 347 346 346 326 324 330 341 339 338 338 338 338 337 328 325 336 334 333 331 326 325 324 323 323 322 327 327 322 319 319
345 347 349 350 349 349 350 351 352 352 350 350 349 348 342 347 322 322 329 341 339 337 338 338 328 334 321 320 336 336 333 329 330 330 328 324 322 321 321 328 324 318 317
345 348 350 351 351 350 351 352 353 353 352 350 350 349 349 346 341 319 320 341 341 337 337 336 336 321 316 313 321 334 329 329 327 330 326 321 319 319 319 320 322 320 317
346 348 349 351 352 353 351 352 352 352 351 350 349 349 350 350 330 316 317 327 331 338 336 335 333 315 312 310 315 319 314 320 325 322 319 316 316 318 316 317 318 319 321
344 346 349 351 353 353 352 351 351 352 351 349 348 347 346 344 325 315 317 320 321 334 335 328 315 307 306 310 313 312 314 324 320 317 316 315 317 319 317 314 314 313 313
340 343 346 350 350 353 353 353 352 351 349 348 348 347 344 334 331 327 329 324 319 326 320 321 317 317 316 318 317 316 324 321 318 317 314 315 316 315 313 311 311 309 307
336 340 343 347 347 352 333 340 351 353 348 351 347 344 336 334 333 323 322 325 326 321 319 322 321 321 319 319 319 318 318 317 315 314 315 315 315 313 311 309 307 306 306
341 337 340 345 348 329 325 318 305 312 313 310 313 328 327 315 307 306 308 305 304 306 323 324 322 321 320 318 316 315 315 314 315 314 315 315 315 312 309 305 305 305 304
344 341 341 339 333 330 334 332 324 313 310 309 310 312 314 315 306 302 301 300 302 310 324 324 323 320 319 317 316 315 315 316 316 315 315 314 311 307 304 304 304 303 303
346 323 338 336 336 338 335 333 329 325 322 320 309 310 309 304 301 301 301 303 317 317 323 321 320 318 317 316 316 316 316 315 316 315 312 308 305 304 304 304 302 302 302
330 335 336 337 336 328 327 326 327 326 324 321 312 306 302 298 297 298 304 325 323 321 320 319 318 317 317 316 316 316 314 313 310 307 305 303 304 305 304 303 302 299 300
328 322 324 329 329 327 327 325 325 325 319 318 322 313 306 310 313 316 319 320 322 319 318 318 317 317 315 315 314 312 309 306 306 305 305 303 303 304 303 302 302 302 302
330 330 324 326 325 326 326 325 325 323 321 323 324 317 310 324 319 318 317 318 319 318 317 317 315 314 313 313 311 309 309 308 307 306 305 304 303 302 302 303 302 302 301
331 331 328 326 326 325 325 325 325 324 322 320 318 310 302 320 318 317 316 318 319 320 318 316 313 314 312 311 311 310 309 308 306 304 303 302 302 301 302 302 302 302 301
329 331 330 328 327 320 323 322 321 321 320 317 314 313 315 317 318 317 317 317 317 316 315 315 314 312 312 312 312 311 309 307 306 304 303 301 301 301 301 301 301 301 300
325 325 325 325 324 327 326 324 320 313 317 315 314 315 316 317 316 317 317 316 316 315 315 314 313 313 312 312 310 307 309 308 306 304 304 302 301 298 300 300 300 300 300
321 321 323 324 325 322 322 322 320 320 319 318 317 314 314 313 313 315 316 315 316 315 315 314 313 314 314 312 308 309 300 292 302 297 302 302 300 299 298 298 300 300 300
321 322 320 320 320 321 320 319 319 320 319 319 319 318 315 315 315 315 315 316 316 316 315 315 314 314 314 312 310 300 287 289 295 291 300 299 298 297 296 298 301 300 299

GFSGL_sfc_thetae_027.txt.gz
Theta_e
355 356 356 356 357 358 358 358 359 361 361 361 361 360 360 360 358 356 355 352 348 348 346 345 345 346 340 340 340 339 337 335 330 334 337 342 340 341 340 344 342 343 340
355 356 355 357 357 356 357 358 360 360 360 362 362 360 360 359 358 356 354 352 349 347 346 345 344 341 343 343 339 342 339 339 333 336 338 337 339 342 343 343 340 338 340
354 354 355 356 355 355 356 358 360 360 360 359 361 361 359 358 358 356 356 354 351 350 348 346 345 344 341 338 339 337 337 339 338 334 333 338 338 339 339 342 342 340 339
351 353 354 355 356 356 357 358 359 360 359 360 362 362 360 358 358 356 355 355 352 351 350 348 346 345 343 341 340 341 341 338 338 335 334 334 336 339 338 335 334 336 334
352 352 354 357 358 358 358 358 359 360 359 361 361 361 361 358 355 356 355 354 353 351 351 349 347 346 340 340 340 343 344 339 336 335 334 334 333 332 329 334 331 332 334
351 350 354 357 358 358 358 358 359 359 359 361 360 360 359 356 341 338 351 353 353 353 351 350 349 342 338 332 332 335 342 342 340 336 335 334 337 331 334 332 331 329 325
351 352 354 356 356 357 358 359 358 358 359 359 359 359 359 360 333 332 338 355 353 353 353 352 348 345 339 342 332 330 331 331 335 343 339 339 336 335 336 335 334 331 329
351 353 353 353 355 357 357 357 358 358 357 358 358 359 359 358 330 328 335 354 355 355 354 353 351 349 345 343 345 341 340 339 338 338 342 343 339 341 338 338 338 336 335
351 353 354 354 355 356 355 356 357 357 358 358 359 359 358 359 326 326 333 351 354 354 354 353 351 349 336 328 343 342 339 341 330 326 328 326 325 326 331 336 332 329 325
351 353 355 357 356 356 357 357 358 358 357 357 358 359 350 359 325 323 331 352 352 350 353 352 330 342 323 321 343 344 341 342 342 338 336 328 328 329 323 338 332 324 321
352 354 357 359 358 358 356 358 360 359 358 358 357 358 358 354 352 320 320 353 351 349 348 344 348 322 316 315 323 346 342 343 336 339 336 335 334 332 329 330 330 325 321
354 356 359 360 358 356 358 357 360 356 358 358 357 354 355 358 334 318 318 329 337 350 344 346 347 317 313 312 320 323 316 327 338 336 333 330 328 325 325 327 329 328 326
355 357 359 361 360 361 360 359 353 351 351 352 350 350 351 351 353 318 315 318 324 345 346 338 321 311 311 314 314 314 316 337 335 331 329 328 326 326 327 326 325 325 325
354 356 358 359 359 361 359 358 355 351 349 347 348 346 348 350 345 329 326 328 324 331 324 322 321 321 321 325 320 321 337 337 333 331 329 327 325 324 323 322 320 320 317
351 351 353 354 354 358 359 358 355 355 352 352 354 349 349 336 330 319 324 330 330 324 322 325 326 327 326 327 331 331 335 331 330 329 326 323 322 323 322 321 320 318 313
346 348 347 348 351 355 354 343 312 311 314 312 316 339 341 318 307 307 308 308 309 313 327 327 329 328 328 329 328 328 330 327 329 326 325 323 322 322 321 319 317 313 312
340 343 346 340 348 353 338 343 334 316 304 307 308 309 311 311 307 307 307 307 307 312 328 329 329 329 330 328 328 328 328 327 327 324 324 323 324 323 317 315 313 312 309
340 319 336 343 348 340 341 336 328 328 325 319 306 312 304 305 303 304 306 310 314 321 331 330 329 329 328 326 327 328 326 325 324 324 324 324 322 319 314 313 311 309 308
338 335 335 333 329 330 336 335 332 327 324 322 312 304 301 298 300 302 303 326 324 327 331 331 331 329 327 327 326 326 326 325 325 324 323 320 317 315 313 312 309 303 303
336 322 327 333 329 324 326 326 326 326 324 319 319 316 310 312 316 317 327 327 327 329 331 331 332 331 328 326 326 325 324 321 322 320 318 316 314 313 311 309 308 307 307
333 336 325 335 333 331 327 325 327 324 323 325 322 316 309 326 321 324 327 327 328 333 334 333 331 328 326 326 325 323 320 318 317 317 315 314 313 310 310 309 308 307 306
335 335 334 331 333 330 328 328 327 326 326 324 317 312 302 328 327 326 329 332 331 331 332 329 327 326 326 324 322 320 317 317 317 316 315 313 311 310 309 308 307 307 306
334 333 331 331 332 323 327 326 325 324 322 320 319 321 326 329 328 328 327 328 329 326 327 328 327 325 324 323 322 320 319 318 318 317 314 312 310 309 308 307 307 306 304
335 334 331 330 330 329 328 324 324 315 321 322 322 325 327 325 323 323 325 327 327 327 327 326 324 323 323 322 321 321 321 320 319 317 315 312 310 306 308 307 305 304 304
327 323 327 332 332 330 329 325 323 321 320 321 319 319 319 323 325 325 326 327 327 326 325 324 324 324 323 322 321 320 307 297 314 305 313 311 309 309 307 305 304 304 304
320 321 319 322 323 325 326 327 326 321 320 319 318 317 318 318 320 323 325 325 325 324 324 323 323 324 323 322 320 305 289 290 302 294 310 309 308 307 305 304 303 303 304

GFSGL_sfc_thetae_030.txt.gz
Theta_e
363 365 365 363 365 367 367 369 370 368 370 367 368 364 363 364 367 366 366 362 360 357 355 350 351 353 341 340 342 340 339 338 332 335 339 344 347 346 343 343 344 343 340
362 365 366 367 367 364 367 368 371 370 370 371 370 367 365 363 366 365 363 360 360 357 357 354 350 347 350 348 341 350 344 344 335 339 342 340 345 347 347 347 342 340 340
361 359 361 363 363 366 368 368 370 370 370 364 368 370 367 365 366 365 364 363 361 360 358 356 353 349 348 344 344 342 340 340 341 335 335 340 340 343 344 346 345 346 341
355 356 361 364 365 365 368 368 369 370 370 369 369 371 369 366 364 363 362 362 363 360 360 359 356 352 349 348 345 345 343 339 341 337 335 335 338 343 340 335 337 341 338
358 356 361 365 367 368 368 368 369 370 370 370 370 371 370 364 360 366 365 362 363 362 361 360 359 354 344 345 346 347 351 342 335 336 336 335 335 335 337 337 335 335 339
360 359 362 366 368 367 368 368 369 369 369 370 368 369 368 362 344 340 357 363 365 365 362 360 360 348 345 335 335 336 345 348 346 335 335 336 344 340 339 336 334 332 329
359 362 364 366 367 367 368 369 368 367 369 369 368 368 368 369 336 334 341 361 365 364 364 362 358 356 349 352 335 332 333 333 337 349 343 344 344 348 347 341 340 336 334
360 362 364 365 366 368 369 367 368 368 367 367 368 369 369 368 335 330 337 361 365 365 365 364 365 363 357 353 352 344 343 344 344 342 345 346 351 348 347 343 343 341 340
359 361 363 365 362 364 366 366 367 366 366 366 365 368 369 369 330 326 336 359 359 366 365 364 364 363 344 331 352 350 349 347 333 327 329 329 331 328 335 340 335 336 332
357 360 363 365 365 363 366 368 368 367 364 361 363 367 355 369 331 323 335 356 357 356 365 367 336 354 328 324 349 350 347 348 348 341 337 334 331 333 326 340 337 331 328
356 356 362 366 366 367 369 369 368 366 364 366 362 364 367 364 362 320 321 357 356 355 354 356 358 328 318 318 328 348 347 350 342 346 341 342 342 340 337 338 340 330 324
360 359 365 366 361 360 369 369 367 366 364 363 358 360 363 367 339 321 319 326 344 357 356 355 356 320 314 314 323 328 321 327 352 344 341 338 337 337 337 334 335 332 331
359 362 364 365 364 368 367 367 361 364 357 357 354 357 356 362 363 326 318 319 325 347 356 345 326 313 312 315 319 319 321 343 342 339 337 337 336 336 336 333 334 334 333
357 359 360 361 360 362 360 360 357 356 358 355 357 357 356 358 360 359 341 330 324 333 328 332 325 323 323 325 323 326 342 343 340 338 336 337 336 331 328 328 325 325 323
358 358 360 358 360 361 362 359 358 362 354 357 357 356 354 354 356 343 333 335 337 331 324 328 328 328 329 329 333 335 339 341 338 339 337 333 330 329 326 327 325 324 321
353 352 351 352 354 357 357 359 310 314 311 310 310 330 350 330 310 307 307 308 308 312 328 331 331 330 327 329 333 332 338 336 338 336 334 331 328 326 325 326 325 323 319
347 349 346 341 346 348 351 353 352 336 304 303 303 310 311 311 306 306 304 305 307 318 337 334 330 329 328 329 332 335 336 334 337 333 332 330 326 326 324 325 323 320 317
343 318 344 345 346 348 352 352 353 353 350 351 317 306 303 303 305 304 304 309 318 327 337 331 332 332 334 332 333 335 334 332 332 331 329 327 326 326 324 322 320 317 315
338 340 340 339 338 334 333 330 331 332 329 325 319 312 306 302 302 301 306 329 327 334 337 337 336 335 335 334 335 335 334 331 330 328 327 326 326 324 322 319 317 307 308
338 325 328 338 335 336 338 333 329 327 326 325 324 319 316 313 314 316 327 333 333 336 337 338 340 338 336 336 334 334 332 329 328 327 326 325 324 321 319 317 315 312 310
339 341 325 337 337 335 333 332 335 337 334 329 319 313 304 321 321 325 328 331 333 335 338 338 336 336 338 337 334 330 329 327 327 326 323 322 321 318 318 316 313 312 310
340 337 338 336 336 333 334 334 335 335 334 329 325 319 302 323 323 326 331 332 335 334 336 339 339 336 334 333 332 328 326 325 324 323 322 320 319 317 315 313 312 311 310
338 337 335 336 336 327 332 333 331 330 327 325 324 322 323 325 326 329 331 333 334 336 339 340 339 333 333 332 330 327 324 323 323 323 321 319 317 316 314 312 311 310 309
338 338 336 334 334 333 331 328 326 317 324 324 325 327 329 328 326 327 329 332 334 336 334 334 332 329 330 328 328 326 325 325 324 322 321 318 317 312 314 312 311 310 309
330 330 332 332 335 332 330 328 329 328 323 322 321 323 328 329 329 328 328 329 329 329 330 329 328 328 328 327 326 325 309 301 319 311 321 319 317 316 313 311 310 309 308
321 321 322 324 327 325 328 326 323 322 321 321 320 320 321 324 327 327 327 328 328 328 328 327 327 328 327 327 325 304 292 295 310 300 318 317 314 313 312 310 310 308 307

GFSGL_sfc_thetae_033.txt.gz
Theta_e
367 368 368 369 371 373 370 372 373 373 375 370 372 370 369 369 371 372 370 369 366 365 362 361 358 361 342 341 342 341 339 338 332 335 339 350 350 348 346 348 345 348 341
367 368 368 370 370 370 371 371 374 374 373 374 374 372 370 369 370 371 368 361 366 362 360 361 356 349 358 357 343 356 346 349 337 350 346 343 348 354 353 355 345 340 343
363 365 368 367 369 368 371 372 373 374 374 372 373 373 371 369 370 372 371 368 367 366 365 363 360 358 357 347 348 344 342 344 344 338 337 340 342 345 348 352 352 351 344
358 360 364 367 368 369 371 373 373 374 373 372 373 373 373 371 370 370 370 369 368 367 367 366 364 360 356 357 353 352 350 344 343 339 337 336 338 348 343 338 339 343 341
361 361 363 368 370 371 371 372 373 373 373 374 373 372 374 372 366 369 368 368 368 368 368 367 367 361 349 351 350 352 352 345 336 336 337 337 335 338 341 340 339 338 342
363 361 366 369 371 372 373 372 374 373 373 373 372 371 370 368 347 341 360 367 368 368 367 368 367 353 349 339 338 339 350 353 349 341 339 339 351 346 342 338 338 334 331
362 365 365 368 370 372 373 374 372 372 373 372 371 372 371 372 339 335 341 367 367 367 369 368 365 359 354 357 337 335 335 335 341 354 349 348 352 354 355 346 346 343 337
363 363 366 367 369 372 373 372 373 373 372 371 371 373 372 371 339 331 336 363 366 367 368 368 368 364 363 360 358 350 349 349 348 345 351 353 355 356 350 350 349 347 345
363 364 365 368 368 370 370 371 372 371 371 370 372 372 372 371 335 329 334 359 361 363 366 369 368 368 349 336 359 357 352 350 336 332 332 332 335 332 339 345 338 338 334
361 365 367 370 369 369 371 372 373 372 370 368 369 371 360 371 340 327 333 359 359 360 364 368 340 360 336 328 357 357 352 350 349 343 338 334 335 334 329 346 341 333 333
362 366 369 370 371 371 372 373 373 372 369 370 369 370 371 367 368 324 324 361 359 358 358 360 364 331 325 320 333 356 353 355 346 348 343 344 344 344 341 340 345 338 334
365 365 368 371 366 366 372 373 375 372 369 369 368 367 368 371 343 331 321 330 348 359 358 359 361 324 320 317 325 332 323 336 351 345 344 343 341 340 341 342 345 344 340
369 370 370 372 371 371 371 371 366 370 363 363 362 363 363 367 369 328 318 320 326 352 360 348 335 316 316 317 324 321 322 347 347 342 341 341 342 343 346 345 344 343 341
369 371 371 371 369 369 362 364 361 360 360 359 359 359 361 362 363 367 351 335 323 335 332 344 330 328 329 334 327 328 342 345 344 343 340 344 342 341 335 335 330 330 326
360 360 361 359 363 366 367 359 360 364 354 358 359 359 358 358 358 347 349 361 352 342 345 340 337 337 333 331 333 333 337 342 342 339 338 339 339 334 334 334 330 328 324
359 358 356 356 357 359 359 362 322 324 318 309 304 322 352 321 314 310 311 311 314 313 342 338 335 336 333 331 333 333 337 337 342 340 336 337 336 330 331 331 327 327 324
353 354 351 344 349 349 354 354 352 338 310 309 304 304 302 306 307 303 303 307 308 316 343 338 336 335 334 334 335 334 334 340 338 339 336 334 334 333 328 327 327 326 323
347 320 349 348 348 349 350 351 352 350 350 353 314 308 300 298 299 300 302 307 317 327 341 336 334 334 334 334 335 336 337 339 337 335 333 334 334 331 327 327 328 325 322
345 343 343 342 342 338 342 342 342 340 336 331 332 318 310 301 299 297 298 339 328 332 339 336 337 335 335 338 338 335 341 339 337 333 334 334 331 329 327 327 325 312 315
339 327 331 340 338 338 339 340 339 339 338 335 333 331 328 321 326 325 316 319 328 333 338 338 337 336 336 337 339 338 338 332 333 333 333 332 330 328 326 325 321 318 316
341 341 326 338 337 337 337 336 335 335 333 333 331 323 300 326 329 330 328 328 329 331 332 337 334 335 337 337 337 336 336 334 334 334 331 330 330 326 326 322 319 317 315
340 340 339 338 336 335 336 335 335 334 333 331 332 328 306 330 331 334 334 331 335 335 336 335 336 337 337 336 335 333 333 333 333 332 329 327 326 324 321 319 317 315 313
337 337 338 338 337 329 335 335 332 329 329 327 328 329 331 332 332 332 333 333 335 335 336 336 336 337 339 336 334 333 332 330 330 330 327 324 322 320 319 316 314 313 312
335 335 334 335 334 334 333 333 329 318 325 327 329 329 331 329 328 329 330 330 331 335 337 339 335 333 335 333 333 331 330 328 327 326 326 322 320 315 317 315 314 313 312
328 330 330 329 332 328 328 328 328 325 323 323 322 322 326 330 332 329 333 332 330 333 332 333 335 334 333 330 330 329 315 302 324 313 324 323 320 321 316 315 314 312 312
323 324 325 326 326 325 321 318 316 315 314 315 316 317 320 321 324 329 330 331 331 332 332 332 331 331 330 329 329 303 293 297 311 303 321 320 318 317 316 315 314 311 311

GFSGL_sfc_thetae_036.txt.gz
Theta_e
363 363 363 364 362 363 363 365 368 363 372 364 368 365 365 365 365 366 363 363 364 361 357 356 353 353 351 349 347 347 345 343 336 339 347 350 347 344 342 346 345 345 341
364 364 363 364 365 364 362 364 367 369 366 371 368 365 365 364 365 364 363 359 362 360 357 354 354 351 352 353 353 346 344 347 342 340 343 346 347 347 348 348 344 340 343
364 363 363 362 363 364 365 364 365 366 368 365 369 367 364 364 363 364 363 362 358 362 361 357 355 353 350 346 348 347 346 347 348 340 340 345 347 349 346 347 348 346 346
361 362 361 362 363 364 365 367 365 365 365 367 366 366 367 365 364 363 364 364 362 361 363 361 359 355 350 351 347 345 347 345 342 342 340 339 344 345 344 340 340 343 341
357 359 361 363 365 365 365 366 367 366 365 366 366 366 366 366 364 363 363 364 363 361 361 363 362 359 350 348 348 349 344 343 342 337 335 338 338 340 338 340 336 336 340
357 357 361 363 363 365 365 366 366 367 367 367 366 365 365 365 349 343 357 362 364 362 360 362 363 353 350 341 340 341 346 342 338 335 335 335 338 341 345 339 337 335 331
358 360 361 362 362 364 366 366 365 366 367 366 366 366 364 365 341 338 342 362 361 362 361 361 361 361 352 354 338 337 337 338 340 342 341 343 346 346 346 342 341 340 336
363 361 364 364 363 365 366 365 366 366 367 366 366 367 366 365 340 333 338 358 360 361 362 362 361 361 359 357 352 345 344 344 342 344 348 346 350 350 349 347 344 343 343
359 362 362 365 364 365 365 365 367 367 366 367 367 367 366 366 336 331 334 355 357 359 361 363 362 361 349 335 355 349 345 345 336 331 334 337 335 336 345 344 341 337 333
359 359 364 364 364 364 366 367 368 368 367 367 367 368 357 366 341 328 332 357 355 355 358 361 340 355 338 327 353 353 347 345 346 343 338 331 332 333 333 344 341 334 332
361 363 364 365 363 365 367 369 369 368 368 367 366 367 368 364 364 327 323 359 358 355 354 356 359 331 327 321 331 355 350 351 343 345 341 339 339 339 338 339 343 339 333
366 363 364 368 364 364 367 369 369 368 366 365 365 365 366 367 342 334 321 325 347 359 356 356 356 327 320 319 324 336 328 335 351 345 339 337 336 337 340 339 339 341 341
375 370 366 370 368 366 368 366 366 367 365 364 362 362 362 365 367 329 321 319 323 341 361 350 323 317 317 320 322 327 325 348 351 345 340 338 338 340 340 340 338 340 337
376 375 371 369 367 367 365 366 364 363 363 363 362 361 361 363 365 364 354 332 324 332 340 347 345 329 326 332 332 329 348 352 350 346 343 342 342 340 338 338 335 333 328
369 370 371 367 366 367 367 362 365 366 359 362 363 361 359 360 354 324 331 359 351 341 345 355 353 351 351 342 339 342 348 350 347 346 342 339 337 336 334 334 330 327 323
365 362 360 360 361 363 364 363 329 330 317 306 306 326 357 317 307 308 313 315 310 314 339 350 351 347 343 343 339 342 346 343 345 343 339 336 334 332 330 329 329 326 322
362 366 361 353 360 360 359 361 359 323 305 305 302 302 303 303 302 303 305 305 306 312 347 347 349 346 342 342 340 341 340 342 343 338 336 335 334 332 327 327 325 323 322
352 322 353 349 350 352 352 350 351 350 351 348 312 311 299 298 298 298 297 304 334 324 345 346 345 346 342 339 338 339 338 338 339 337 335 334 332 329 326 325 323 322 321
354 346 346 343 343 339 345 342 340 340 338 337 339 323 318 307 302 298 298 317 323 333 336 341 346 345 343 340 339 339 337 337 337 336 335 333 331 328 326 325 324 317 319
341 329 336 342 341 342 341 341 340 339 339 338 334 329 328 326 332 332 333 323 321 322 328 331 332 335 340 340 339 337 336 334 334 335 334 331 329 328 326 324 323 317 319
339 341 332 339 339 339 339 339 338 337 335 334 332 321 303 324 331 333 333 330 328 334 337 335 335 336 336 335 337 337 336 334 333 333 332 331 330 327 325 324 323 320 316
341 340 339 336 336 336 337 336 335 333 330 330 330 325 305 330 333 335 336 335 337 340 340 337 333 334 333 335 334 334 332 332 332 331 330 330 327 326 325 324 322 319 316
336 337 337 337 335 331 332 330 328 327 327 330 331 331 332 331 331 332 332 334 337 337 339 337 339 338 338 337 335 334 331 330 331 332 328 327 325 324 322 319 317 316 313
333 333 333 330 328 326 326 327 324 317 321 323 322 324 328 331 333 332 333 336 337 337 338 333 334 335 332 332 332 332 331 331 331 329 327 325 323 316 319 318 316 314 312
328 328 327 326 324 323 320 318 316 314 314 315 316 317 320 322 324 326 326 334 336 337 335 335 332 332 330 330 330 329 308 305 324 315 325 324 322 320 318 315 314 313 312
321 322 322 322 324 322 318 315 313 314 313 312 312 314 315 315 317 320 322 322 323 331 336 336 335 335 332 331 331 307 294 297 308 305 323 321 320 318 316 315 316 312 312

GFSGL_sfc_thetae_039.txt.gz
Theta_e
354 354 355 355 352 355 355 350 355 351 353 352 357 357 356 357 359 357 354 354 354 352 350 347 345 342 337 337 336 334 331 329 323 326 332 336 335 335 337 338 340 338 334
356 355 355 357 356 352 355 355 351 356 353 357 359 357 358 357 356 358 355 355 352 352 351 346 346 347 340 339 342 332 332 334 328 324 332 335 334 333 332 334 338 340 337
356 356 355 355 357 353 354 355 357 353 359 354 359 358 357 358 357 357 358 356 353 355 354 349 346 345 341 340 339 338 336 334 336 330 330 336 337 337 336 338 336 334 337
355 356 356 356 356 357 356 355 354 359 357 361 355 359 359 359 358 358 357 357 356 353 355 354 351 348 345 342 339 337 336 334 331 331 328 328 331 338 335 333 333 337 335
353 355 356 357 357 357 357 358 358 355 359 358 359 357 360 358 359 357 358 357 356 356 353 357 355 352 346 343 343 339 336 335 332 329 328 330 329 332 335 335 332 333 335
351 353 357 357 357 356 357 357 359 359 356 357 357 357 358 360 346 342 354 357 357 356 355 353 357 351 348 339 338 339 341 335 333 334 330 328 331 332 333 335 334 327 326
348 352 355 356 355 356 356 358 357 358 360 357 356 358 357 359 338 337 342 358 356 357 357 356 353 357 349 353 338 337 337 336 335 334 333 332 331 334 335 334 332 328 327
349 350 352 355 356 356 357 356 358 358 359 359 359 358 359 359 338 333 338 356 357 356 358 358 356 355 355 354 353 345 344 342 340 338 335 335 337 340 340 339 335 334 334
349 350 352 355 354 356 356 357 358 358 358 359 361 360 359 360 333 331 333 353 356 356 357 358 358 357 346 334 353 349 345 344 336 330 333 334 332 334 341 340 334 332 329
352 354 355 356 356 355 356 357 359 360 359 360 359 362 352 361 336 327 332 354 354 354 355 356 339 350 335 328 350 352 346 345 344 342 336 330 333 336 335 341 336 330 328
351 352 356 358 357 358 357 359 359 360 360 360 360 361 362 359 358 325 323 354 356 355 354 353 354 330 324 322 326 354 350 349 343 344 342 341 338 336 336 339 338 337 331
351 352 353 355 356 358 358 359 361 360 359 359 359 360 362 362 337 328 321 324 344 356 356 356 353 326 320 320 322 333 327 331 350 344 343 339 336 334 336 337 340 338 337
350 351 353 356 357 352 358 357 360 361 360 359 359 358 359 361 361 326 321 320 323 345 360 351 335 322 317 320 321 324 324 345 351 347 343 342 338 338 338 336 338 337 335
352 357 355 356 357 355 359 360 359 360 359 358 357 357 358 358 358 361 352 333 323 329 339 347 342 336 333 334 332 326 338 349 351 350 349 346 340 337 335 337 334 334 329
349 359 357 357 356 357 355 357 358 358 355 358 359 358 355 356 348 322 325 345 342 335 338 348 352 351 349 348 341 342 338 342 347 351 350 346 338 336 335 336 335 333 329
354 356 356 355 356 357 357 350 309 312 312 309 306 333 324 311 303 302 302 303 305 306 329 341 346 349 350 350 350 347 340 339 345 349 347 342 338 336 334 334 333 330 327
343 350 350 346 351 355 355 355 335 316 302 301 305 304 304 302 300 299 299 301 305 312 334 342 342 345 349 351 351 350 343 343 345 347 346 340 338 336 331 331 329 329 325
340 324 339 341 340 343 342 342 343 334 333 327 306 307 301 298 298 297 301 307 320 320 328 333 337 341 344 347 348 347 346 344 344 346 344 339 337 334 330 329 329 326 324
343 337 336 335 336 334 335 334 334 332 330 329 323 311 308 303 297 299 303 316 318 321 324 323 327 329 330 332 336 341 343 343 343 344 343 339 336 332 328 328 326 319 319
331 329 332 334 333 334 333 332 330 329 328 325 320 318 317 318 322 323 322 318 317 317 322 327 330 332 332 331 332 334 337 338 340 340 341 339 332 330 327 325 323 321 321
332 332 330 332 331 331 331 330 329 328 326 324 319 314 303 319 322 323 324 324 324 324 326 328 327 327 329 331 332 333 334 335 336 337 337 330 329 327 326 325 324 323 321
333 332 331 329 328 327 326 326 326 325 324 323 322 319 301 318 325 324 324 325 327 328 330 330 331 330 329 329 330 330 330 331 331 331 330 329 328 327 326 324 322 317 317
330 329 328 328 326 321 323 322 322 323 322 322 322 323 323 325 325 325 325 328 328 329 329 329 329 330 334 331 330 328 326 327 329 330 329 328 327 325 324 321 318 313 312
328 325 323 321 319 319 317 316 315 310 315 316 317 317 317 319 320 320 320 320 323 329 330 329 328 327 327 331 331 330 330 330 329 328 327 326 321 316 317 315 317 313 311
324 323 321 318 316 314 314 314 313 312 312 311 311 311 312 314 315 313 313 313 314 312 311 310 313 324 325 323 324 326 313 306 321 311 321 318 317 316 313 310 308 307 306
313 319 320 317 314 313 313 312 311 311 309 309 307 306 305 305 306 306 307 307 307 306 304 303 305 301 298 301 299 299 292 295 307 304 316 317 315 313 311 309 308 307 306

GFSGL_sfc_thetae_042.txt.gz
Theta_e
348 351 350 347 348 353 350 345 346 348 343 348 352 353 355 353 352 350 351 354 350 350 349 346 343 341 339 334 332 331 327 325 321 321 328 329 331 332 334 332 331 329 330
349 351 351 351 349 347 352 349 347 347 349 344 352 352 354 354 353 352 351 354 354 350 350 347 347 346 340 336 333 333 329 328 323 320 324 332 331 332 332 334 333 335 333
350 350 351 351 351 348 348 354 351 348 349 350 353 352 353 354 354 355 353 352 352 353 352 350 349 346 344 340 334 335 334 330 329 324 323 330 331 331 330 331 331 333 336
351 351 349 351 353 353 351 350 355 353 347 350 354 355 355 355 354 354 355 354 352 352 353 352 350 347 346 342 336 335 334 333 329 329 326 329 331 333 331 329 330 333 331
351 351 351 351 353 355 353 352 351 353 355 350 353 355 356 356 357 355 354 353 354 353 352 354 353 350 345 343 343 339 333 333 330 327 326 325 325 330 331 330 331 333 335
350 351 352 353 353 353 355 354 352 351 351 355 353 355 354 357 344 341 352 354 354 352 351 352 353 349 345 338 337 338 339 335 333 332 332 329 330 327 332 333 332 326 326
349 350 352 353 354 354 354 354 354 353 352 349 352 355 354 356 337 336 341 355 354 354 353 353 353 354 347 352 337 334 335 334 336 335 331 332 330 331 331 330 332 329 330
346 350 351 354 353 354 354 353 354 355 355 354 351 353 354 355 335 332 337 353 355 354 354 354 354 353 352 352 353 347 343 343 339 339 338 336 335 335 333 334 334 334 331
344 345 351 352 354 353 353 353 354 354 354 355 356 355 352 354 332 329 333 350 353 355 356 355 356 355 344 332 351 350 349 347 340 330 332 331 326 326 332 332 331 330 328
345 346 348 352 353 353 354 354 355 355 355 356 356 358 350 356 332 326 331 353 352 353 356 356 338 349 333 327 345 350 349 350 349 348 339 333 328 329 329 338 336 331 331
348 348 349 349 353 354 355 355 355 355 355 355 355 357 358 355 355 323 323 353 355 354 354 354 356 330 324 321 325 353 350 351 349 348 347 344 341 339 336 340 341 337 333
346 349 350 352 352 354 353 354 354 354 354 354 354 355 357 358 334 323 321 325 344 356 356 357 355 327 319 319 323 331 327 330 352 353 348 345 344 340 339 341 343 341 341
346 347 348 350 352 353 353 352 353 354 354 354 354 354 356 358 357 324 320 321 324 345 359 350 332 323 318 320 319 323 322 343 349 350 350 348 346 347 343 341 342 342 339
339 348 346 348 349 349 355 356 355 355 355 354 355 355 356 356 357 358 341 331 323 328 334 345 340 332 325 334 333 329 331 341 345 348 350 353 353 347 341 339 337 337 335
346 345 351 349 347 349 339 338 354 358 354 357 357 358 357 356 352 329 333 346 343 333 336 343 344 347 349 350 351 347 346 338 338 344 348 350 351 348 340 339 337 335 334
341 347 351 350 350 352 337 325 308 305 305 310 315 335 317 312 304 305 306 305 305 308 330 335 338 341 343 346 348 350 352 344 344 343 345 347 347 348 340 337 336 334 331
337 336 344 346 352 353 351 335 326 317 304 301 302 305 307 305 303 303 302 303 304 311 331 332 336 338 341 344 346 348 349 352 351 345 346 346 346 346 339 336 334 332 330
338 324 336 342 345 347 347 337 330 328 323 320 309 306 299 298 299 299 301 307 318 318 323 322 322 324 325 327 329 329 332 335 337 340 343 344 345 344 342 336 333 331 329
336 337 336 335 333 332 337 338 337 334 327 323 318 310 302 297 297 300 302 318 319 318 320 319 320 322 329 331 331 331 331 331 331 332 333 336 339 340 339 339 336 320 322
332 329 333 335 334 333 333 332 331 328 324 322 321 320 317 314 319 319 318 317 317 317 318 320 324 328 328 331 331 332 332 331 331 332 334 335 334 331 327 326 326 325 325
331 331 328 331 329 329 328 325 327 326 322 319 317 310 301 319 319 320 320 321 321 321 322 323 324 325 326 326 326 328 329 331 331 329 328 329 330 327 327 325 325 325 324
330 327 326 324 324 323 323 323 324 323 322 321 319 316 305 321 320 319 319 322 324 324 325 325 325 327 328 332 330 330 328 328 329 329 328 327 326 326 326 324 323 322 318
328 325 323 321 320 316 316 316 317 317 316 316 315 318 318 318 317 316 316 316 316 321 323 325 326 327 329 332 332 327 324 324 325 325 326 326 326 325 324 322 322 320 318
323 322 320 317 316 314 313 313 313 308 312 312 312 313 313 313 310 310 309 309 308 308 309 310 307 305 307 313 322 326 325 327 325 324 323 324 320 318 320 314 314 314 312
320 318 316 315 314 313 312 311 310 309 307 307 305 305 306 305 305 306 305 305 306 305 304 303 302 300 298 300 298 296 294 291 310 309 321 318 316 314 313 312 310 308 306
318 316 315 314 313 311 310 309 307 307 305 304 303 302 302 302 301 302 302 302 303 303 303 303 302 301 298 299 295 290 286 287 297 295 316 315 313 312 311 309 308 308 307

GFSGL_sfc_thetae_045.txt.gz
Theta_e
345 345 345 346 346 347 346 344 345 340 344 347 347 350 350 350 350 349 350 350 347 347 347 344 341 339 338 334 331 330 326 323 319 321 325 327 328 329 333 337 334 331 330
345 346 346 347 348 349 347 345 344 346 341 345 347 348 351 351 350 349 348 351 350 347 348 347 346 345 338 335 332 330 329 326 323 320 321 327 327 329 331 333 334 333 329
343 346 345 345 344 346 350 350 345 344 344 343 346 348 350 352 351 350 350 349 350 351 350 349 349 345 343 340 335 332 330 329 325 322 321 325 329 329 328 330 330 329 331
344 344 345 346 347 345 346 349 351 348 345 346 346 348 350 351 352 352 352 350 350 351 352 351 351 348 347 346 340 337 333 330 328 326 325 324 328 330 328 326 326 328 330
344 345 345 349 349 349 347 346 349 351 349 348 348 350 351 351 352 352 352 351 350 349 350 351 352 351 346 346 347 343 335 333 331 329 328 324 325 327 327 327 328 330 329
345 345 347 348 349 350 349 348 346 348 352 349 347 348 350 353 342 340 349 351 351 350 349 350 351 348 346 339 338 340 342 339 336 333 333 330 329 329 330 331 329 323 323
347 347 348 348 348 350 351 350 348 347 348 350 350 349 349 351 336 336 340 352 351 350 350 350 350 352 346 351 339 336 336 334 339 343 335 336 333 333 331 329 331 330 329
347 348 349 349 349 349 350 351 351 350 348 348 348 351 351 352 335 332 337 351 353 352 352 352 351 351 351 349 350 348 343 344 341 339 344 345 342 339 333 333 332 332 332
345 347 349 350 350 351 349 350 351 352 351 350 350 348 347 350 330 330 333 348 351 352 353 353 353 352 342 332 348 348 349 350 339 331 332 333 331 328 333 332 328 327 327
343 346 349 350 351 350 352 351 352 352 352 354 353 354 345 349 331 326 331 350 350 351 353 354 337 347 333 327 344 348 347 349 351 351 345 335 331 335 325 334 338 330 329
342 343 347 350 351 352 352 353 352 352 352 351 352 354 355 351 350 323 322 349 351 351 351 352 354 331 324 322 325 353 350 351 349 350 352 352 350 346 344 336 337 338 334
343 343 344 346 351 352 352 352 352 352 350 350 351 352 354 356 334 324 321 324 342 352 352 354 353 328 320 319 322 330 326 329 351 352 352 352 352 349 347 345 340 339 341
343 343 344 345 346 350 350 351 351 351 350 350 350 350 351 354 355 326 321 321 323 344 357 348 331 321 317 319 318 320 320 338 343 346 348 350 352 355 353 349 343 341 341
343 342 344 346 346 348 350 351 351 350 350 349 350 350 351 352 355 353 339 334 325 329 335 344 337 330 326 333 334 331 331 336 341 343 346 350 352 352 353 351 344 341 338
341 342 342 344 341 344 334 333 348 351 346 351 351 353 352 351 353 340 343 350 347 337 338 342 344 345 346 347 348 347 347 341 337 339 341 344 346 348 349 351 348 343 339
337 337 336 344 344 342 331 322 305 303 301 305 312 337 324 314 309 308 306 308 311 311 335 339 338 338 339 339 338 341 343 342 346 345 344 344 343 344 344 345 346 343 338
332 335 334 333 346 344 335 332 320 314 303 299 299 303 308 306 301 300 300 301 303 314 336 334 334 330 328 325 325 326 327 329 331 331 331 332 334 336 336 339 342 338 337
331 323 333 336 343 347 342 331 325 326 321 317 305 303 298 298 299 299 301 312 323 322 325 322 320 320 320 326 327 327 328 329 330 330 331 331 332 331 331 333 334 335 335
330 332 331 330 331 335 340 333 330 325 322 319 320 312 303 298 299 300 304 322 321 317 319 318 318 323 327 328 328 329 329 328 329 329 330 329 331 333 332 331 327 311 320
328 324 326 330 330 333 334 332 328 324 323 323 322 321 320 319 322 322 318 317 317 317 317 318 320 321 322 323 326 328 328 328 331 331 330 328 330 328 326 325 323 322 323
328 326 324 326 325 327 328 326 325 324 322 320 316 311 303 322 320 319 321 322 323 320 319 321 321 324 327 327 328 327 328 329 330 330 328 327 328 323 323 324 324 324 322
325 323 323 323 323 323 323 324 324 323 322 320 319 314 305 318 317 315 315 315 316 318 320 323 324 325 325 328 330 329 327 326 328 329 328 327 323 324 324 322 323 320 317
324 323 321 319 318 316 318 319 318 316 316 316 316 315 313 311 309 309 308 307 307 308 309 308 308 306 307 308 311 315 319 323 325 326 327 326 325 324 323 322 321 319 317
322 321 319 317 315 315 314 312 310 306 309 309 308 307 307 307 306 305 305 306 306 305 305 304 303 301 302 302 302 301 301 298 298 320 326 325 324 319 320 314 314 313 310
316 315 315 314 313 311 310 309 307 306 306 305 304 303 303 303 303 303 303 303 303 303 303 302 301 299 297 299 298 296 292 287 291 293 315 319 318 317 314 312 311 309 307
316 315 313 312 311 310 308 306 305 304 303 302 301 300 300 300 300 300 300 300 300 300 300 300 300 299 295 295 293 289 286 288 292 287 299 318 317 316 317 314 312 310 308

GFSGL_sfc_thetae_048.txt.gz
Theta_e
342 342 343 343 344 345 344 344 344 343 345 347 348 349 350 352 353 353 353 352 350 351 352 349 347 347 346 342 339 338 334 331 330 334 331 338 339 339 341 343 343 342 341
343 343 343 344 345 345 345 345 345 343 345 348 349 349 351 351 353 352 352 354 351 350 351 351 351 349 347 346 342 340 337 335 333 333 335 335 337 340 341 340 340 339 340
344 343 343 344 345 345 346 347 347 347 344 346 348 349 350 352 353 352 353 352 354 354 353 352 352 352 351 348 346 342 339 337 334 331 334 333 336 338 338 338 339 341 340
343 344 343 344 345 346 348 348 346 347 347 346 347 349 350 352 353 354 353 352 352 353 355 354 354 353 352 352 349 348 347 341 337 334 334 333 334 339 337 336 335 336 337
342 343 344 345 346 347 348 350 351 347 346 348 347 348 350 351 352 353 354 353 352 352 353 354 355 353 347 349 352 351 349 345 344 340 338 338 334 335 334 338 334 338 339
342 342 345 346 346 346 346 346 349 351 350 349 348 349 348 349 340 338 349 353 353 352 351 353 354 349 347 339 338 340 348 347 345 342 341 340 341 340 339 336 335 334 332
342 343 344 346 347 347 348 347 346 347 351 350 349 349 349 351 335 335 339 353 353 353 353 353 353 353 348 354 341 336 337 335 340 350 345 344 343 346 344 339 336 337 336
343 344 346 346 347 348 349 348 348 347 347 350 351 350 349 349 333 331 336 351 353 354 354 354 354 354 354 353 353 353 351 350 346 344 348 351 353 354 351 345 342 340 340
344 345 346 347 347 348 348 349 350 350 348 348 349 351 351 351 329 328 333 350 351 353 355 356 355 354 342 331 352 352 352 353 341 332 333 333 331 329 336 346 337 330 331
345 347 349 350 349 348 349 350 352 353 351 351 350 351 344 351 331 325 331 350 349 351 354 355 337 347 332 326 349 352 350 353 355 356 354 340 334 339 329 337 342 338 335
347 349 350 351 351 351 351 352 352 352 353 353 353 354 354 348 349 323 321 350 351 351 351 352 355 330 324 321 324 353 351 352 350 351 353 354 355 354 349 346 342 341 340
345 347 349 350 351 352 352 353 353 352 351 351 352 353 355 357 333 325 321 323 340 351 352 355 355 327 320 319 322 327 324 328 348 350 351 351 352 354 357 356 353 348 348
342 343 345 349 351 353 352 352 351 352 351 350 350 351 352 355 356 325 320 319 322 342 355 347 332 322 318 319 318 319 319 334 339 342 344 348 351 354 355 355 357 354 349
345 344 344 344 346 351 353 353 351 351 350 351 350 350 352 354 355 356 346 336 322 330 333 343 337 332 329 335 336 332 333 337 340 342 345 350 352 350 349 351 351 351 348
344 347 348 348 345 347 344 342 352 354 345 351 352 353 353 352 353 340 343 353 352 341 340 346 345 346 347 348 349 349 350 347 341 342 342 342 343 343 343 347 345 344 341
341 341 340 348 345 348 333 325 305 303 303 305 311 337 337 318 319 312 309 311 312 314 339 345 343 343 342 341 340 339 339 334 336 334 332 333 332 333 333 334 335 337 333
336 338 339 334 349 342 337 336 329 314 301 298 299 306 313 315 302 300 300 301 303 318 343 339 337 335 331 330 333 333 333 334 336 333 331 331 331 332 331 332 333 333 333
335 320 336 338 342 348 340 338 332 331 332 322 303 302 297 297 297 298 300 312 329 325 329 330 328 328 330 331 332 332 332 332 332 333 333 334 331 329 331 332 332 329 326
333 337 336 336 337 342 339 333 332 328 325 321 320 312 305 298 299 303 307 327 325 325 325 326 329 330 331 332 332 332 332 330 329 331 332 331 330 329 331 330 329 316 318
333 324 328 334 336 337 336 332 327 325 325 325 325 323 323 322 324 324 323 323 324 325 327 328 329 330 329 328 329 330 331 330 330 331 331 333 333 332 329 329 330 328 324
332 331 324 330 331 331 329 326 326 326 324 320 317 312 306 324 321 320 320 319 322 324 326 327 327 328 328 330 330 331 331 331 332 331 332 332 332 329 331 329 327 328 326
330 329 328 327 328 327 327 326 325 323 321 318 316 311 304 315 313 312 311 310 311 311 312 312 312 310 310 311 312 317 322 325 327 328 328 330 328 328 330 327 326 322 322
328 326 324 324 324 319 323 323 321 320 318 316 313 311 310 308 307 307 307 307 307 307 307 306 305 304 305 306 306 305 305 307 308 310 322 329 328 328 328 324 323 321 319
326 324 322 320 320 320 318 316 313 308 312 310 308 307 306 306 305 305 305 305 305 305 305 304 303 301 302 302 301 301 300 298 298 303 314 328 330 324 325 325 325 321 319
320 320 318 317 316 313 312 310 308 307 307 306 304 304 304 303 303 303 303 303 303 302 302 302 301 300 300 299 298 297 291 286 293 293 305 322 328 327 326 324 322 321 320
316 315 313 311 310 308 307 305 304 303 302 301 301 300 300 299 300 300 300 301 300 300 300 299 299 298 298 297 295 289 286 287 293 288 307 315 320 322 323 321 323 320 315

GFSGL_sfc_thetae_051.txt.gz
Theta_e
351 352 353 352 352 353 353 355 357 356 356 357 359 359 360 360 362 362 362 361 361 362 361 360 361 362 355 353 351 349 346 344 339 341 345 348 351 352 351 351 351 352 349
351 352 352 354 354 352 354 354 358 358 356 357 359 359 359 359 360 360 359 358 360 360 361 361 359 358 360 360 354 355 351 351 344 347 348 346 351 355 354 353 350 346 348
351 349 351 352 352 354 355 356 357 357 357 355 356 358 359 359 359 360 360 360 360 360 362 362 361 361 360 358 359 356 355 353 350 344 344 347 347 347 349 353 351 353 349
349 349 351 352 353 354 356 357 355 359 357 357 357 358 359 359 359 360 359 360 360 360 362 363 362 362 361 362 360 360 359 357 356 351 349 348 349 354 348 344 343 347 346
350 350 351 354 355 356 357 358 358 358 359 359 358 357 358 357 355 358 359 359 360 360 361 362 363 360 350 353 359 364 362 356 353 350 348 347 347 347 348 348 346 347 351
351 351 353 355 356 356 357 358 359 357 359 360 358 357 357 354 340 338 353 358 361 360 359 361 363 353 352 340 339 341 353 361 356 353 351 350 358 355 354 352 350 347 346
352 353 355 356 355 356 357 359 359 358 358 359 357 357 358 360 334 334 340 357 359 360 361 361 359 357 354 361 345 337 337 335 340 359 359 359 360 363 363 357 358 354 351
352 353 355 356 355 357 357 357 358 358 359 357 357 360 359 359 333 330 334 355 360 363 363 363 363 363 362 360 361 360 361 363 358 353 356 360 364 366 366 363 362 356 353
351 352 354 355 356 356 356 357 356 355 356 357 358 359 359 360 330 328 335 355 356 361 362 363 364 363 347 333 359 359 362 362 347 335 337 336 333 330 338 353 347 345 341
351 353 355 356 356 357 358 358 360 358 357 354 355 359 350 360 333 325 332 353 355 353 361 364 338 351 333 327 356 358 358 358 360 362 364 347 336 348 331 340 346 341 345
353 353 355 358 358 359 360 361 360 358 359 358 357 360 359 356 358 324 321 353 353 353 353 354 357 329 325 322 324 360 358 358 356 362 360 358 359 361 360 358 349 345 345
358 357 358 360 356 355 360 360 359 360 359 359 358 357 359 361 336 327 320 323 343 357 357 358 360 328 320 319 324 329 324 329 353 352 352 352 353 354 357 359 363 361 355
358 359 358 359 359 362 359 359 355 359 355 356 355 355 356 360 362 325 319 318 322 347 359 349 331 322 317 323 319 320 319 338 342 343 343 346 350 355 361 359 361 364 364
355 357 358 356 357 360 357 357 356 355 355 355 355 355 357 359 360 363 354 343 323 333 336 348 344 335 331 341 343 332 335 337 339 341 345 349 353 353 350 348 345 345 343
353 352 353 354 354 356 358 355 356 361 350 356 357 358 357 357 358 345 348 361 359 346 346 353 353 353 353 354 354 352 352 347 343 347 348 346 344 342 341 343 341 340 337
351 353 353 352 346 351 355 343 304 306 305 306 311 335 357 325 316 313 310 313 313 312 346 352 353 349 349 350 349 347 344 339 347 341 338 338 336 336 336 337 337 337 335
342 345 345 351 358 354 352 348 346 320 300 298 298 307 309 321 311 307 304 304 305 313 350 349 350 348 346 339 338 339 342 343 343 339 338 337 335 334 332 332 333 336 334
344 321 347 349 351 352 349 348 351 349 346 338 307 305 298 298 298 298 301 313 334 333 346 346 339 334 334 337 341 340 341 341 338 337 336 335 337 333 331 333 335 333 330
342 343 346 350 349 347 348 344 347 348 348 331 324 312 303 298 299 302 308 348 345 335 331 332 334 336 340 340 338 338 337 336 334 335 333 333 333 333 332 335 334 320 321
339 328 330 346 344 344 340 338 342 344 341 339 337 332 328 326 335 328 330 330 329 330 333 333 334 335 336 338 335 338 337 334 334 333 334 334 335 335 332 333 332 332 329
333 341 327 343 344 341 336 333 336 338 337 335 334 326 309 332 326 324 322 321 324 325 329 329 328 325 323 325 328 334 334 334 334 334 334 334 336 334 335 334 332 331 331
329 336 339 340 343 338 335 332 329 327 323 320 317 313 304 320 318 315 314 314 313 317 318 319 316 314 312 313 314 316 319 323 326 328 328 332 333 333 332 331 330 330 326
329 335 337 337 338 326 332 331 327 323 320 318 317 317 317 315 314 312 311 310 311 310 310 309 309 309 309 310 310 312 314 315 317 317 321 327 333 332 331 330 330 329 327
328 332 334 334 329 330 329 327 324 313 315 314 312 311 312 311 309 308 308 307 307 307 308 307 308 309 311 311 313 313 311 305 304 312 317 324 331 329 332 332 331 329 330
324 325 327 324 323 321 318 317 314 313 311 309 308 307 308 308 307 306 306 306 306 307 308 309 310 310 309 308 307 306 294 286 297 295 313 321 326 332 333 334 332 330 328
317 317 315 315 314 312 311 309 307 306 305 305 306 306 305 306 307 308 310 310 309 308 306 304 303 303 303 301 297 289 285 286 296 287 313 321 321 325 328 330 330 329 330

GFSGL_sfc_thetae_054.txt.gz
Theta_e
358 359 359 357 358 359 358 360 362 361 361 362 360 359 358 362 364 365 364 362 364 364 363 361 364 366 357 352 352 350 348 347 341 342 344 351 358 358 356 357 355 356 352
358 361 360 360 361 357 359 359 362 362 362 362 362 360 359 360 364 364 362 359 360 361 363 363 362 359 365 364 355 360 355 357 346 353 352 346 357 362 359 359 355 353 351
356 354 355 356 357 359 360 359 363 362 362 361 361 361 360 360 362 364 363 362 360 361 362 363 363 363 362 359 359 356 355 356 357 352 350 351 351 354 357 363 362 360 354
352 352 356 356 358 357 363 364 361 364 362 362 362 362 361 360 359 361 362 362 361 361 363 363 364 365 365 365 364 364 364 360 359 354 350 349 349 356 353 350 351 353 352
357 352 356 362 362 363 364 365 364 364 363 363 363 363 362 359 355 360 360 360 361 361 362 364 365 362 351 356 363 370 372 362 354 350 348 348 348 348 352 352 352 354 358
359 357 361 365 364 364 366 367 367 365 366 365 362 362 361 357 340 338 351 357 360 361 361 363 365 356 354 342 340 341 351 365 367 356 352 351 365 361 357 355 354 353 352
361 361 362 365 364 365 366 367 366 366 365 366 362 362 364 363 334 333 338 356 356 360 365 362 360 357 356 364 345 339 340 337 339 359 361 362 364 368 371 369 364 362 361
362 361 363 364 365 366 366 367 368 365 365 364 363 366 366 365 333 330 335 357 360 363 364 364 366 365 363 359 361 361 362 364 361 357 360 362 363 366 369 367 367 363 363
360 362 364 364 364 363 363 364 364 364 363 363 363 365 365 367 330 329 336 356 356 362 363 366 367 367 349 335 361 362 364 362 346 333 337 337 335 333 341 358 355 354 354
360 362 364 365 366 364 365 367 367 364 364 361 362 365 353 366 334 326 335 356 357 354 364 368 340 353 335 328 361 360 360 358 358 361 362 354 337 347 332 352 358 351 352
358 358 362 365 366 367 369 368 367 364 364 364 362 366 369 362 362 323 321 358 354 353 352 352 355 329 327 324 325 362 358 355 354 363 365 365 367 366 366 369 365 356 352
360 360 364 365 360 360 368 365 365 365 364 365 363 361 361 364 337 325 320 325 343 356 355 353 357 325 318 319 326 331 325 330 357 358 359 361 360 361 362 362 367 368 365
362 363 360 361 361 367 365 363 360 363 360 359 358 358 358 361 363 326 319 319 323 348 359 349 328 322 316 323 318 322 320 354 356 356 354 356 358 357 363 363 364 371 368
359 360 361 361 360 361 361 361 359 358 358 357 357 357 358 359 361 364 356 341 324 335 341 352 347 337 330 338 348 342 356 360 358 354 347 348 356 357 357 354 346 345 343
359 359 360 360 360 361 362 357 360 365 345 358 358 359 358 359 360 347 350 365 362 348 351 359 358 357 357 359 361 361 362 359 347 346 349 352 355 353 345 345 344 343 340
355 355 355 356 358 359 359 354 305 306 305 306 308 330 360 332 321 319 317 313 314 314 352 357 355 356 356 356 357 357 356 348 353 352 355 350 345 343 342 342 342 340 338
353 358 357 350 356 357 356 355 347 325 303 302 301 306 309 312 311 310 306 305 307 320 360 357 358 360 357 355 354 351 352 349 355 350 347 345 342 341 340 339 338 340 339
348 322 354 351 349 348 347 344 343 344 352 355 310 310 303 304 306 304 302 314 337 331 355 355 353 349 345 345 345 346 346 348 347 345 343 342 342 341 337 335 339 339 338
345 347 351 350 348 342 352 350 347 352 355 355 345 315 305 296 298 299 303 360 358 349 343 342 344 343 343 342 345 348 347 346 341 341 341 340 339 338 336 334 338 322 324
342 330 336 350 350 350 350 348 351 355 355 352 348 343 325 326 335 334 337 347 350 345 341 340 338 340 339 340 342 343 342 339 340 338 338 338 337 337 336 335 335 334 335
334 340 332 349 348 346 344 341 344 349 353 352 348 330 313 344 344 341 338 339 339 341 341 337 337 332 337 338 342 344 341 338 336 335 335 335 335 335 337 337 336 332 332
328 333 340 342 344 345 343 339 337 344 339 330 326 325 310 337 335 331 328 325 324 325 329 332 332 330 330 334 334 337 336 335 336 336 336 335 334 333 333 333 334 333 334
326 329 333 341 344 330 341 339 336 335 336 334 334 334 332 328 325 321 317 314 316 316 318 322 325 323 322 323 323 325 327 328 328 328 328 331 334 333 333 335 335 333 333
325 330 334 337 335 338 340 336 333 321 327 326 325 324 324 322 318 313 314 314 315 316 315 315 315 316 317 319 321 323 317 312 312 318 324 328 331 329 333 335 336 334 332
326 329 327 326 327 326 327 327 326 324 322 319 318 319 318 317 314 312 314 313 312 311 312 314 316 315 314 312 311 311 296 286 298 296 316 325 329 331 332 333 334 333 333
307 310 311 308 307 307 309 309 309 311 312 312 312 312 313 313 312 311 312 313 313 312 311 311 311 310 308 303 298 289 285 285 296 286 307 327 327 327 327 327 330 333 333

GFSGL_sfc_thetae_057.txt.gz
Theta_e
361 363 361 362 362 363 366 367 369 368 370 368 367 364 363 363 366 372 370 366 364 367 366 363 367 371 357 353 351 349 347 346 340 343 345 355 367 366 362 362 358 361 354
361 364 362 364 362 360 361 366 370 369 368 370 368 367 363 362 367 369 363 362 363 362 364 367 361 358 369 369 358 368 357 361 347 355 353 351 361 365 366 367 357 356 357
359 358 361 361 362 360 365 364 368 369 370 364 368 369 366 363 367 368 369 366 364 364 364 366 365 367 369 361 366 357 353 357 357 352 352 355 356 356 360 366 366 365 359
353 354 358 361 362 362 365 367 367 369 370 369 370 370 368 365 365 364 366 367 367 364 366 367 366 367 369 371 366 370 366 362 357 353 353 353 355 363 357 353 354 358 358
356 355 358 362 364 365 365 368 368 369 369 371 371 370 370 364 358 364 366 366 368 365 366 367 367 364 352 359 362 368 368 363 356 355 352 351 350 351 355 355 354 358 364
359 356 360 364 365 365 365 367 369 369 370 371 369 370 368 359 343 339 356 362 366 366 366 368 369 356 355 342 341 342 351 365 367 357 353 351 360 360 359 357 358 355 354
361 362 362 365 365 365 366 367 368 368 370 370 370 369 369 370 336 334 339 360 363 365 367 368 364 357 358 368 347 341 342 338 341 360 359 360 361 365 368 366 360 361 362
362 365 363 366 365 366 367 367 369 369 369 370 370 371 371 369 336 329 335 360 360 364 367 368 369 368 368 365 368 366 366 367 365 358 360 363 368 370 370 367 366 365 367
364 363 365 366 367 367 367 368 369 370 369 369 370 371 371 371 333 329 335 358 358 363 365 366 368 370 351 336 364 364 366 367 348 332 336 338 336 333 341 353 354 357 356
363 364 368 368 369 368 369 370 371 370 369 366 368 372 360 373 335 326 335 357 358 356 365 367 340 353 337 329 363 364 362 365 365 364 365 356 339 350 331 352 362 355 356
365 367 370 370 370 372 373 373 372 371 366 370 368 371 372 367 368 324 322 361 355 355 354 353 357 331 327 325 326 364 360 361 357 361 360 363 366 368 368 365 370 367 359
366 367 369 371 366 366 372 372 372 371 370 372 370 369 365 373 341 326 320 326 346 358 355 350 353 325 320 321 327 330 324 330 355 356 357 359 361 364 365 368 371 371 372
368 368 368 370 370 371 370 371 366 370 361 361 360 358 358 360 365 326 319 320 325 350 358 341 327 320 316 320 318 323 322 354 356 356 358 360 362 365 361 358 370 373 373
368 368 369 367 366 368 365 365 362 360 359 358 357 356 356 356 355 360 352 338 325 337 342 353 347 337 328 340 349 338 355 360 359 359 362 362 361 356 359 361 358 348 344
365 364 364 362 361 365 364 362 361 366 351 359 356 355 352 355 356 346 348 362 358 348 351 358 356 356 357 359 362 364 364 364 362 362 359 354 356 358 359 356 347 345 341
357 359 358 358 360 360 360 354 308 315 310 312 312 332 357 323 320 312 313 320 322 318 350 356 357 358 359 359 360 362 363 357 364 358 354 355 356 354 350 347 345 342 340
359 359 359 352 359 361 361 357 353 331 307 306 307 312 313 313 314 313 309 307 308 320 359 359 358 360 359 361 360 359 358 359 359 357 357 355 352 349 342 342 342 341 341
356 330 359 357 357 359 358 358 357 354 350 354 313 317 300 305 307 308 307 317 353 347 361 359 361 361 363 362 360 359 356 355 355 354 352 350 348 344 342 341 340 340 341
342 346 349 358 358 350 355 350 346 345 348 347 341 322 312 300 300 301 305 358 358 359 358 360 360 360 358 353 351 349 351 349 347 352 348 346 344 342 341 340 339 325 327
341 331 340 352 348 348 346 345 344 344 342 332 333 345 334 329 344 351 349 357 361 359 352 354 355 352 350 348 349 351 347 343 345 343 343 343 341 339 339 339 338 336 337
331 342 336 351 349 346 347 342 345 348 348 351 349 332 319 344 348 348 337 335 334 344 352 350 347 346 343 344 346 347 342 345 342 342 337 339 337 335 339 339 340 337 334
324 329 337 343 344 348 348 348 350 351 351 345 339 330 313 336 338 331 330 329 331 335 337 342 339 337 337 333 334 337 337 338 339 339 338 339 338 336 334 334 335 336 336
321 325 331 339 342 332 342 343 345 345 346 344 341 338 335 332 336 334 331 332 333 332 333 334 332 329 330 331 332 332 331 331 329 330 330 331 333 335 334 333 335 335 334
321 326 332 337 338 336 331 336 335 321 324 330 331 336 335 333 331 328 326 324 324 325 324 323 324 324 325 327 327 324 314 311 314 322 324 327 329 329 333 334 334 334 334
321 328 323 319 322 330 330 323 323 322 321 318 318 319 320 319 319 321 322 323 322 323 323 323 321 319 315 310 308 308 291 286 301 293 319 324 328 331 331 331 331 331 332
302 304 304 303 302 302 304 305 303 304 307 307 309 313 314 313 313 313 315 317 316 315 314 314 313 310 306 301 298 288 284 285 294 285 302 323 326 326 325 325 325 325 327

GFSGL_sfc_thetae_060.txt.gz
Theta_e
359 358 358 356 355 354 357 353 362 360 372 367 370 366 365 365 368 367 365 365 363 363 366 365 362 363 362 361 360 355 352 353 345 347 354 354 359 359 357 358 360 357 355
360 359 358 358 355 355 351 359 361 363 364 369 367 370 365 365 365 365 363 358 362 362 364 363 364 363 366 365 361 360 360 362 354 348 352 350 351 355 360 361 361 356 353
360 358 358 358 358 356 354 353 361 361 366 363 367 364 365 363 363 364 365 362 362 364 364 363 362 364 363 364 364 359 356 357 355 352 349 357 358 358 355 359 361 360 359
357 357 357 357 357 357 359 354 360 362 360 363 364 365 365 363 361 361 365 364 363 361 364 362 364 364 363 365 362 362 362 360 358 356 352 351 353 357 360 354 352 356 352
354 355 356 359 359 359 357 358 354 359 362 363 363 365 365 364 360 360 361 363 363 362 362 364 364 362 353 357 362 363 363 361 358 356 353 354 351 351 351 353 353 356 356
353 354 357 359 359 359 358 359 360 359 361 363 363 363 364 363 346 341 354 359 363 362 361 362 366 353 351 343 340 342 352 360 356 357 356 353 352 354 356 353 353 351 347
356 356 356 359 359 358 361 358 361 359 362 362 362 364 363 365 338 335 342 358 358 361 362 362 361 359 353 362 346 339 339 338 341 354 352 353 352 354 356 357 356 355 354
356 358 358 358 358 360 359 361 359 362 361 362 362 363 364 364 339 331 336 354 357 360 360 362 362 361 360 362 362 361 359 359 356 351 351 355 357 360 362 361 360 359 356
359 357 360 358 359 359 359 359 360 360 361 361 363 363 363 364 335 332 333 350 353 355 357 361 364 362 348 338 355 356 358 361 348 338 340 340 339 336 343 355 351 346 348
356 361 360 361 359 360 360 360 362 362 361 362 362 364 355 364 336 329 333 354 352 353 357 359 338 349 336 328 354 358 355 356 359 360 361 351 333 342 329 339 349 351 355
360 359 364 365 361 363 363 363 363 363 362 363 363 364 366 363 362 325 322 356 354 354 353 354 357 332 325 323 326 357 354 356 355 360 359 357 357 363 365 367 367 362 358
365 362 364 364 364 363 365 365 364 364 363 362 362 363 365 368 341 326 320 326 343 356 355 356 354 329 324 324 326 330 326 327 354 353 352 353 356 358 365 369 369 364 364
368 362 364 366 365 364 365 364 364 364 362 361 361 361 362 364 367 329 320 320 325 350 358 344 325 320 315 317 318 323 322 344 349 350 352 355 359 366 367 363 360 362 365
359 364 365 365 363 364 365 365 364 363 362 361 359 360 361 362 363 366 345 333 325 334 340 350 341 340 329 339 342 328 345 354 356 357 357 360 366 363 359 357 358 360 348
364 364 364 364 361 364 363 364 364 365 360 361 361 360 359 358 357 343 349 354 352 342 347 355 355 354 352 355 359 363 357 358 357 359 359 362 360 357 355 359 359 350 344
365 363 361 361 362 362 360 352 312 321 313 318 320 347 348 321 311 309 309 320 322 319 346 354 353 354 354 353 354 357 362 357 363 363 363 360 356 353 353 355 349 344 342
347 364 360 353 359 359 359 356 350 328 305 303 307 314 322 317 312 308 306 308 310 320 354 352 354 357 357 359 360 363 364 366 362 358 355 354 355 355 342 345 345 343 340
340 332 358 357 355 357 359 358 355 352 349 343 310 314 305 305 306 305 310 323 343 339 356 359 359 360 365 365 364 363 363 360 358 357 356 355 353 350 347 345 344 341 340
328 333 341 347 346 343 359 358 356 356 356 355 343 322 313 304 303 304 305 358 357 357 356 357 362 367 366 366 364 362 359 355 354 353 352 350 346 343 344 343 341 324 327
325 324 329 341 346 340 349 343 346 352 356 351 350 346 336 329 340 343 348 354 356 361 364 363 362 359 358 355 354 354 351 342 343 342 341 341 339 341 339 339 339 338 337
321 326 327 337 341 342 343 345 343 346 343 342 343 332 320 339 350 352 347 338 344 355 352 347 344 343 342 345 347 347 346 345 346 338 338 337 341 337 339 339 337 338 338
320 325 333 343 342 345 346 348 351 346 345 340 336 331 310 343 337 332 331 331 333 335 340 342 338 337 336 336 336 337 336 337 338 336 337 337 338 338 337 335 333 333 334
322 324 335 330 338 332 337 331 326 329 330 332 337 340 341 338 333 331 328 329 328 328 327 328 331 330 331 332 330 320 317 314 317 323 327 332 334 334 336 334 333 332 333
320 322 322 323 322 327 331 330 322 315 319 319 321 325 325 326 324 324 324 322 323 322 322 321 317 309 308 309 311 308 299 297 307 319 317 323 325 326 331 333 333 332 332
306 306 304 305 305 311 310 312 321 323 319 318 318 319 320 317 318 321 323 320 319 318 316 312 305 302 300 298 297 297 288 286 296 290 310 320 323 328 329 328 328 326 330
298 298 297 297 297 297 298 298 298 300 301 302 308 311 314 315 314 315 314 313 311 307 304 304 302 299 298 296 294 288 285 285 290 285 294 311 323 323 319 320 322 322 324

GFSGL_sfc_thetae_063.txt.gz
Theta_e
348 351 346 344 349 349 346 344 350 348 353 357 357 357 357 356 356 355 351 353 351 350 350 351 350 350 346 349 353 349 340 339 333 335 342 344 343 344 346 348 348 347 347
350 349 351 347 344 348 346 347 345 348 350 356 358 357 355 354 356 355 352 351 352 351 351 351 352 355 350 349 351 348 348 348 343 335 340 340 341 345 345 346 351 356 351
351 350 351 350 345 344 345 346 344 352 347 356 355 356 355 355 354 355 355 353 351 353 353 353 350 352 351 354 351 349 347 347 347 343 341 346 349 349 348 347 349 353 356
352 352 351 350 350 345 345 343 349 349 356 351 357 355 356 354 353 354 355 355 353 353 356 354 355 353 352 352 353 351 351 350 348 346 345 344 345 349 348 347 344 345 348
352 353 352 352 352 352 348 347 342 351 350 355 353 357 356 356 355 352 354 356 355 353 352 354 355 354 351 352 356 354 353 351 350 348 346 346 345 344 343 347 345 346 347
349 352 353 352 352 352 351 350 346 344 353 350 352 354 356 358 345 342 350 354 356 355 354 353 355 351 349 343 341 344 353 353 350 348 346 345 344 344 346 345 345 343 341
347 351 351 352 352 352 352 351 351 345 348 353 353 354 354 357 339 337 342 352 351 355 355 354 354 357 349 354 343 338 338 336 340 349 345 346 345 349 347 346 347 348 348
346 347 351 352 351 353 352 351 350 351 347 348 352 355 355 357 338 333 338 349 351 352 356 355 354 354 351 350 351 352 350 348 345 344 344 349 351 353 351 352 351 351 354
346 348 350 351 352 353 350 351 351 352 352 351 354 355 355 357 334 332 332 343 348 350 352 353 355 355 344 336 348 350 352 354 347 335 336 336 335 334 340 346 348 347 345
348 350 351 351 352 352 353 351 354 352 352 355 353 356 350 356 335 329 331 348 343 346 349 350 337 349 337 332 347 349 345 346 347 348 348 339 333 339 332 340 349 343 342
353 353 353 353 351 353 353 354 353 354 353 353 354 355 357 354 355 326 324 353 351 346 346 348 350 330 323 321 325 349 349 351 346 350 351 352 351 349 352 351 343 347 349
351 352 354 355 353 355 354 354 354 353 353 352 353 354 356 358 338 329 322 325 343 351 348 349 348 330 322 322 324 327 325 326 345 347 345 344 345 348 352 356 358 358 358
348 353 351 355 356 354 355 354 353 354 353 352 353 353 354 357 359 329 322 320 324 348 353 345 334 326 321 321 321 323 323 333 341 340 342 345 348 353 356 355 354 354 358
340 350 355 355 355 355 358 356 355 354 354 353 353 353 355 355 357 360 342 331 324 331 339 340 333 334 333 336 337 321 329 337 340 341 343 348 352 354 352 352 349 354 344
334 351 355 355 352 356 356 358 357 358 354 355 355 356 354 355 355 347 347 348 348 340 341 349 345 344 347 345 346 344 333 341 344 349 350 351 353 351 349 350 352 350 335
327 343 354 355 356 357 355 341 310 316 319 322 326 346 355 326 331 322 317 320 320 317 340 347 346 348 347 348 345 348 350 344 349 350 351 351 350 348 348 348 347 336 333
324 330 336 350 356 356 355 353 345 326 305 302 305 320 319 324 307 310 306 313 308 317 347 348 348 348 349 349 348 347 347 354 356 356 355 353 352 351 348 341 336 334 331
320 318 327 339 351 355 356 355 351 344 342 334 311 311 305 304 304 303 303 311 322 329 348 347 348 350 351 351 352 352 355 355 352 351 350 349 348 346 343 339 336 332 330
319 321 323 330 343 342 352 353 351 346 346 339 325 317 305 303 305 305 304 348 342 343 348 349 349 350 350 354 353 355 355 352 351 351 349 347 347 342 336 335 334 323 323
317 319 320 326 339 339 344 345 346 348 349 340 337 332 328 322 333 335 338 342 345 346 347 348 348 352 351 352 348 346 343 342 343 340 338 336 335 334 332 332 333 330 328
314 318 320 334 334 339 338 338 339 340 341 338 338 332 319 333 337 338 335 334 334 342 342 342 341 339 341 340 339 339 341 339 338 336 334 332 332 332 333 331 331 328 327
314 320 325 332 339 338 336 339 338 339 338 335 333 326 313 333 330 329 328 327 326 329 337 338 333 334 333 327 327 328 323 321 324 329 333 331 333 333 332 331 328 326 326
311 314 317 320 330 324 324 325 327 326 327 331 335 334 331 329 327 326 324 322 321 318 314 314 310 309 312 310 304 305 308 307 309 315 319 322 326 329 332 328 327 326 326
303 304 305 305 310 311 321 320 318 315 319 320 324 323 322 322 321 321 321 321 319 311 307 302 299 299 298 298 298 295 292 291 301 301 307 315 316 317 321 322 327 329 328
298 298 297 297 298 299 301 302 303 304 305 308 313 315 316 319 320 318 316 313 306 303 300 298 297 296 295 295 294 292 288 288 293 289 301 306 311 316 317 316 316 316 318
295 295 294 294 294 294 294 294 294 295 297 297 297 298 299 302 306 311 306 302 299 299 297 296 295 294 293 292 290 289 286 287 292 288 292 301 307 301 302 304 307 309 315

GFSGL_sfc_thetae_066.txt.gz
Theta_e
346 344 342 342 344 346 343 343 345 345 348 349 354 352 352 351 349 350 346 346 348 347 345 345 346 346 344 343 346 347 342 336 330 333 336 342 341 340 342 342 346 345 346
347 346 343 341 343 345 346 343 343 345 348 351 353 354 352 353 352 351 348 349 349 347 346 346 348 352 347 345 345 346 344 342 338 335 335 338 340 345 346 346 350 354 351
345 346 346 342 340 342 345 345 342 343 345 352 353 354 354 353 353 353 352 349 348 349 349 347 348 348 348 347 347 347 346 346 343 339 341 342 346 346 345 345 346 348 352
345 345 346 347 343 340 342 345 344 341 343 349 353 353 353 353 353 353 353 350 349 349 350 350 350 349 347 348 348 348 348 346 345 342 341 341 343 346 345 345 343 343 347
345 346 345 348 349 345 340 342 343 344 345 345 349 353 353 353 353 351 352 351 350 349 350 351 352 351 347 346 350 349 348 346 346 345 343 343 344 345 343 344 342 343 344
347 346 348 347 349 349 346 341 342 340 345 346 349 351 351 354 342 340 348 351 351 350 348 349 350 348 347 341 340 343 349 349 348 346 346 346 345 342 342 341 340 338 338
348 349 350 350 349 349 349 346 343 342 339 345 346 350 351 353 336 336 341 350 352 352 351 351 351 355 347 351 340 336 336 338 343 351 347 346 343 346 344 341 342 340 342
343 349 351 351 350 350 349 349 347 346 341 340 347 346 350 352 336 333 337 349 348 350 353 354 352 352 351 349 349 349 349 347 341 340 343 347 348 349 347 349 346 344 348
338 342 346 351 351 351 349 349 350 349 347 342 345 350 348 349 331 330 333 348 349 348 349 351 353 353 341 332 349 347 348 349 343 331 333 332 331 330 336 343 344 342 342
339 341 345 348 350 350 350 350 351 351 349 349 346 346 345 352 333 327 331 351 349 348 348 350 335 347 333 328 346 349 346 348 346 345 345 335 330 338 331 340 347 343 342
340 345 348 349 349 351 351 352 351 351 350 350 349 349 348 348 350 325 324 351 351 348 346 346 349 328 324 322 326 350 347 348 344 343 346 347 349 350 349 345 342 344 340
332 335 341 350 351 351 351 352 351 350 349 348 349 350 351 353 335 328 322 326 343 352 350 348 347 326 320 320 321 327 324 327 343 345 345 346 346 345 347 347 351 348 350
328 331 336 346 352 352 350 350 350 349 349 349 347 347 350 353 354 327 322 321 325 346 354 345 330 322 319 320 319 322 320 331 336 338 341 344 346 348 347 349 354 355 355
323 327 331 339 351 352 352 351 350 350 348 348 349 349 349 351 354 356 343 332 325 331 340 347 338 332 328 333 332 327 330 335 338 339 341 343 342 344 347 350 349 350 348
321 324 328 340 350 353 352 352 351 352 349 350 350 351 350 349 351 342 344 351 348 340 341 348 338 336 339 337 338 339 330 330 333 337 337 339 343 345 348 349 350 349 343
319 321 325 328 336 352 353 343 311 314 319 318 321 340 352 334 325 319 316 316 318 317 331 346 346 346 343 345 345 344 343 335 338 339 343 345 346 348 349 349 349 341 332
316 318 321 321 332 348 351 350 346 324 305 307 310 315 318 331 311 311 312 310 309 313 347 345 347 347 347 347 348 347 346 348 346 344 346 348 350 349 343 346 339 333 330
315 312 318 321 323 335 351 353 350 348 345 341 308 315 310 307 310 310 304 310 323 320 345 349 346 348 348 348 349 348 348 347 351 350 350 352 351 348 343 341 337 331 328
311 313 316 317 321 324 336 347 351 350 348 350 326 313 306 299 299 299 301 340 338 337 339 347 346 343 342 343 344 345 346 347 348 351 351 350 348 345 341 337 333 322 324
311 312 314 317 320 325 334 343 348 346 343 339 338 341 325 322 333 334 334 339 338 337 338 340 343 344 334 334 336 336 335 340 344 346 344 342 340 338 334 331 330 328 326
309 312 316 321 325 331 335 340 346 347 345 342 337 331 315 343 340 337 333 331 333 336 339 339 338 332 332 334 334 334 331 332 334 337 336 333 333 331 332 332 331 331 330
307 307 310 309 319 326 326 335 339 344 340 335 330 327 311 332 332 329 326 325 322 321 327 325 319 316 312 315 328 334 331 328 325 329 333 334 332 332 332 331 329 328 327
302 303 305 303 305 312 321 321 321 334 333 333 331 330 329 328 324 322 319 313 309 305 305 307 306 303 303 302 301 308 312 311 313 319 324 326 327 328 329 329 329 326 325
298 299 300 300 299 301 303 303 308 310 322 325 325 324 324 323 321 317 311 307 301 299 298 298 298 298 298 298 298 298 300 302 306 310 317 317 318 318 320 321 321 323 323
297 296 295 297 295 297 297 296 298 301 303 304 306 310 318 315 310 306 303 301 298 297 296 295 295 296 296 296 297 296 290 290 297 297 312 314 313 313 313 311 311 312 314
295 294 294 294 293 293 293 293 293 294 295 296 298 299 300 301 299 298 297 295 294 293 293 293 293 293 293 293 291 289 287 289 293 290 302 302 301 300 300 301 305 308 310

GFSGL_sfc_thetae_069.txt.gz
Theta_e
341 342 341 341 342 343 342 342 345 346 346 346 350 350 349 349 349 347 345 345 345 345 343 343 342 343 342 341 342 343 338 333 329 333 333 340 340 339 344 345 347 346 346
342 341 340 340 341 343 343 341 341 343 344 347 347 350 350 349 348 347 346 347 344 344 345 342 343 347 344 343 342 342 341 339 336 334 335 338 339 344 345 346 349 351 349
343 342 340 340 339 340 342 343 340 341 342 346 348 349 349 350 349 349 348 346 346 346 347 345 344 344 344 344 343 342 344 345 340 338 340 341 343 343 344 346 346 347 349
342 343 342 340 339 340 340 342 344 340 341 343 349 350 351 350 351 350 350 348 347 347 347 347 347 346 345 345 345 345 345 344 343 341 339 339 341 344 344 343 345 344 344
341 342 342 343 342 340 339 340 341 342 342 341 345 350 350 351 352 350 350 350 349 348 347 348 348 348 346 344 347 344 344 343 342 341 340 340 341 342 342 342 340 342 344
342 341 343 344 344 342 339 338 339 341 341 340 341 344 349 352 341 339 348 350 350 348 347 347 349 347 345 340 338 340 346 345 343 341 342 342 343 342 341 340 337 336 337
343 343 343 344 344 345 344 340 337 338 339 338 341 343 344 348 336 335 339 350 348 348 348 347 347 351 345 349 340 336 337 336 340 347 345 344 344 344 341 338 338 338 338
341 344 345 345 343 345 346 344 341 339 339 338 337 339 344 346 334 332 336 348 349 349 349 349 348 348 347 348 348 348 346 346 342 342 345 350 349 349 344 345 342 341 344
337 339 344 347 347 346 346 346 347 344 341 341 339 338 340 342 330 330 332 346 347 347 348 349 350 350 340 332 347 346 346 347 341 331 332 332 330 329 332 341 340 339 338
336 339 342 341 349 349 349 348 348 348 346 345 343 341 337 343 328 326 331 348 347 348 349 348 334 344 332 327 343 347 344 346 346 345 343 335 330 336 328 338 343 341 340
331 332 335 341 343 345 350 350 350 349 348 347 346 345 343 343 345 322 323 349 348 347 347 347 348 327 323 321 323 348 345 346 344 343 343 343 343 345 346 341 341 344 340
328 330 332 335 342 347 347 349 350 349 348 347 346 347 347 346 330 325 321 325 339 347 347 348 347 324 319 319 321 326 324 324 344 342 340 343 343 345 348 348 347 344 347
323 325 327 330 334 343 348 346 348 349 348 347 346 346 347 349 348 324 320 320 324 343 351 343 330 320 317 319 318 322 320 333 339 335 340 341 342 345 345 344 346 348 354
318 322 325 327 327 336 347 349 347 347 347 347 346 345 346 348 350 351 338 329 323 330 338 344 338 332 327 332 329 325 330 335 336 337 338 340 340 339 340 343 344 347 350
313 319 322 323 325 327 333 349 349 350 347 348 348 348 346 345 347 340 342 347 345 338 340 346 348 341 345 340 337 339 335 333 333 336 337 337 336 337 340 344 348 349 348
311 314 317 319 321 324 330 336 318 317 315 316 317 335 349 331 321 315 313 313 315 312 335 345 346 347 346 346 346 343 341 334 334 335 335 336 336 338 341 344 347 349 346
308 312 313 313 319 322 324 328 339 331 309 307 305 311 312 328 310 309 309 309 306 313 346 346 346 348 347 347 346 346 344 344 343 339 339 340 342 342 341 345 347 341 336
309 307 309 313 316 317 320 324 331 344 347 346 316 312 309 309 305 307 304 309 321 318 346 347 347 347 348 347 347 346 347 346 345 346 343 344 344 345 345 346 345 338 331
305 307 309 312 314 315 318 320 322 333 348 349 339 316 307 301 300 301 301 344 344 338 337 346 348 349 348 347 345 347 347 347 345 347 346 346 344 343 345 344 342 323 325
304 308 310 312 315 317 320 321 325 331 343 347 347 344 325 318 330 332 324 333 341 343 340 340 345 346 346 347 343 341 340 337 331 328 328 329 329 329 329 332 338 333 329
305 307 310 311 311 312 315 326 329 332 337 346 346 339 316 336 341 344 337 338 339 340 338 339 342 340 335 335 334 332 331 329 330 330 331 330 330 329 331 331 330 333 331
302 304 306 307 306 306 307 317 324 332 337 341 336 321 307 335 333 328 325 321 317 317 319 322 314 310 309 313 317 327 330 330 331 331 330 331 331 331 333 333 332 331 330
300 302 302 302 303 302 303 305 307 310 331 340 334 330 332 326 322 316 313 309 308 307 307 307 304 301 300 301 301 306 316 313 313 320 329 331 333 331 331 330 330 328 326
298 299 298 298 298 298 299 298 300 301 305 313 325 325 321 313 307 305 304 303 302 300 301 300 300 300 300 299 298 298 299 299 305 312 318 322 323 322 327 326 327 327 326
296 296 295 295 295 295 296 296 296 299 299 301 307 307 307 305 303 300 299 298 298 297 296 296 295 295 294 293 293 293 289 288 301 303 316 316 318 317 318 315 315 316 317
294 294 293 294 293 293 293 293 294 294 294 296 298 298 297 295 295 294 295 294 294 294 293 292 293 293 292 291 290 288 286 288 294 290 302 304 303 304 304 307 309 310 311

GFSGL_sfc_thetae_072.txt.gz
Theta_e
341 342 342 343 343 342 343 346 348 349 349 350 353 353 352 351 352 349 350 351 350 351 351 350 350 350 348 347 347 350 346 341 340 345 341 349 351 354 358 358 358 359 358
341 342 342 342 344 344 342 344 346 348 349 350 351 353 353 353 352 352 351 352 349 349 350 350 349 349 350 351 348 349 349 348 345 344 347 348 352 356 356 358 357 358 358
341 341 341 340 340 343 344 344 345 346 346 348 350 350 352 353 352 353 352 352 351 350 350 350 350 350 350 351 351 350 349 351 349 346 348 351 351 353 355 358 358 360 355
341 341 341 340 341 341 343 345 344 345 345 346 348 350 352 353 353 353 352 352 352 352 352 352 353 351 351 352 351 352 352 351 352 349 348 348 350 354 353 351 353 357 352
341 342 341 342 342 342 342 342 345 345 345 346 346 350 352 353 353 353 353 352 352 351 353 352 353 352 346 348 353 354 353 350 349 349 349 349 351 352 352 354 350 350 354
340 341 344 344 344 342 341 341 342 344 344 344 344 347 350 351 341 339 349 352 353 352 351 352 354 348 347 339 337 339 349 353 352 351 351 349 352 351 354 351 349 348 346
342 342 342 344 344 344 343 341 340 340 343 343 343 344 346 349 335 335 340 353 353 352 353 353 352 352 348 354 341 336 336 335 340 355 352 353 352 356 355 353 351 347 348
340 342 343 343 344 345 345 343 341 341 340 341 342 343 343 345 332 331 336 351 353 353 353 352 352 353 352 353 353 353 353 354 350 347 349 354 357 358 357 356 353 351 352
335 338 343 345 344 345 345 346 345 343 341 340 341 341 342 343 327 328 333 348 349 351 353 353 353 352 340 331 352 351 353 353 343 331 334 334 332 330 338 350 347 346 347
330 332 334 338 345 347 345 346 347 348 345 344 343 343 336 341 327 324 329 346 345 346 350 352 334 347 331 326 349 352 349 351 354 355 352 340 332 340 327 344 350 347 349
328 331 333 335 338 345 348 349 348 348 347 348 346 346 345 340 341 321 321 345 346 345 345 347 352 327 323 319 325 352 349 350 348 351 353 353 353 352 351 346 349 350 350
324 326 331 333 334 338 340 344 349 350 348 348 348 347 348 347 328 323 319 323 338 347 346 348 349 323 319 318 321 326 324 326 349 351 350 349 349 350 353 355 356 353 355
319 322 324 330 331 334 336 339 345 349 349 348 348 347 348 351 349 322 318 318 323 342 350 342 329 319 317 320 319 321 319 336 342 344 345 347 350 352 355 354 355 356 356
315 317 321 324 326 329 333 335 339 347 348 348 348 348 349 350 350 351 337 329 322 329 336 343 338 334 329 336 334 328 334 340 341 342 345 348 350 348 347 350 349 353 350
311 313 317 321 321 322 326 329 333 339 344 349 349 350 349 347 349 339 339 345 342 334 337 346 348 348 347 346 344 346 341 340 339 342 343 344 344 346 345 349 349 350 349
307 310 314 316 317 318 322 325 317 314 311 310 313 335 350 331 320 313 312 310 311 312 335 344 344 346 347 346 346 347 347 341 344 345 344 345 344 344 344 346 348 349 349
305 308 311 311 313 316 320 321 321 323 313 308 305 307 307 321 311 307 307 310 308 312 346 344 345 347 347 346 347 347 349 349 349 346 345 345 344 344 341 345 349 347 349
304 305 307 309 312 314 315 317 320 321 324 330 320 311 307 306 306 305 304 308 324 316 348 348 349 349 349 349 348 348 349 352 349 347 345 344 345 345 344 346 348 348 347
301 303 306 307 310 311 314 315 319 322 322 329 336 322 312 301 299 301 302 344 344 343 340 348 351 353 352 349 350 351 352 352 352 350 350 349 349 347 345 346 347 329 333
300 303 305 306 309 311 313 315 318 322 324 328 333 341 332 318 326 323 322 333 347 350 347 345 348 351 351 351 349 350 351 349 350 351 351 350 346 345 344 344 343 338 335
301 302 304 304 307 309 309 312 316 322 326 329 333 337 318 336 343 344 338 335 340 346 350 348 347 348 349 350 349 349 349 350 349 346 339 337 338 334 334 334 331 329 333
302 302 302 303 306 306 306 308 310 313 317 321 329 334 307 333 344 344 346 336 326 322 319 335 331 325 322 329 335 341 340 338 335 336 336 337 337 336 335 336 335 333 332
299 299 301 302 302 302 303 304 304 305 306 308 318 330 328 333 328 317 310 307 306 305 304 306 305 303 305 304 309 308 317 323 326 330 335 337 338 337 338 337 336 335 335
297 298 298 298 298 298 299 299 299 298 300 303 313 314 311 308 305 303 301 300 299 299 300 299 298 299 300 301 304 300 299 303 311 317 325 333 333 328 338 337 336 330 329
295 295 295 295 295 295 296 296 296 296 295 299 300 300 300 298 297 297 297 297 297 295 295 296 296 296 296 296 296 297 292 292 297 296 316 322 326 328 329 329 326 324 321
294 294 294 294 293 293 293 293 293 294 293 294 295 295 295 294 294 294 294 294 293 294 294 294 295 296 295 293 291 289 288 290 294 291 302 303 305 308 312 313 315 315 316

GFSGL_sfc_thetae_075.txt.gz
Theta_e
348 352 352 351 351 354 354 356 359 361 361 361 362 361 362 362 363 363 362 361 360 360 361 360 360 363 355 355 355 355 354 352 345 346 355 359 363 365 364 367 363 363 360
349 351 349 352 352 351 352 353 357 358 361 361 362 362 362 362 362 362 360 359 359 357 358 360 358 357 360 361 357 359 356 358 352 352 357 356 361 364 366 366 362 359 364
348 346 344 346 349 351 352 353 354 356 358 358 360 361 361 362 362 362 362 361 361 360 358 358 358 360 359 357 359 357 357 358 358 355 353 357 359 360 361 364 364 366 360
346 346 346 344 344 350 355 355 354 355 356 357 358 359 361 362 363 362 362 362 362 361 361 360 360 360 360 362 360 361 360 358 358 356 353 353 356 361 360 354 353 357 358
347 346 347 350 348 346 351 356 355 355 354 356 356 357 359 358 357 360 361 361 361 360 361 361 361 358 349 352 357 361 362 357 355 353 352 352 351 351 352 354 352 355 360
344 347 351 352 353 353 354 355 355 354 354 354 353 355 355 353 340 339 353 359 361 360 360 361 362 352 350 340 339 340 351 359 357 352 349 349 357 356 354 353 352 351 347
345 346 348 352 351 353 352 353 353 354 354 354 353 353 355 358 335 334 340 356 359 360 361 361 359 357 354 362 342 336 337 335 340 359 356 355 357 359 360 359 358 355 353
346 346 349 349 349 352 353 352 353 352 353 353 352 354 355 354 334 330 335 355 360 361 361 362 362 362 361 360 361 359 360 361 358 353 356 359 361 363 365 363 361 361 359
333 339 342 347 350 350 351 352 353 352 350 350 351 353 354 355 329 328 334 352 353 359 362 362 363 362 347 334 358 358 359 359 344 335 335 334 334 332 341 358 354 351 348
326 328 335 341 343 351 352 353 354 355 352 352 351 352 343 354 332 324 331 348 351 350 357 361 337 352 334 327 354 357 356 356 356 356 358 347 337 349 328 352 356 351 349
326 325 328 336 337 339 351 356 354 355 355 354 354 355 355 351 350 322 320 348 348 350 350 350 352 328 325 320 327 359 356 356 350 357 355 354 356 360 360 356 359 356 352
323 323 325 329 333 337 339 340 345 350 350 352 353 354 356 357 334 326 318 321 339 351 352 353 353 323 319 318 323 331 325 330 354 352 350 350 350 352 355 359 365 363 361
319 319 321 324 328 333 333 339 343 346 347 351 351 350 352 356 358 324 318 317 320 344 353 346 330 318 316 322 319 323 321 348 350 349 349 350 352 353 361 361 363 365 365
319 316 318 320 322 327 328 332 337 339 343 345 349 351 353 353 356 358 350 338 322 329 336 347 341 335 331 339 340 331 345 351 350 350 351 353 354 354 354 357 355 355 354
317 316 317 317 320 322 325 325 330 336 334 343 347 350 352 353 354 342 344 356 355 341 342 349 350 350 350 351 351 354 354 352 350 352 353 353 352 353 353 356 355 354 352
314 315 314 314 314 319 316 321 315 311 310 308 305 313 338 330 318 312 311 309 311 313 339 349 350 351 350 350 349 350 351 348 354 353 353 353 352 352 352 354 355 354 352
312 312 313 311 314 314 316 316 317 320 308 307 304 304 302 312 311 305 307 307 307 315 346 350 349 348 348 349 351 352 351 352 356 355 353 353 352 352 351 352 353 354 353
309 305 306 310 312 313 314 316 318 319 321 322 318 315 312 303 301 302 306 306 326 315 348 349 349 349 351 353 353 354 355 352 352 354 354 353 353 352 352 352 353 353 353
307 304 305 306 308 309 310 313 314 317 319 322 327 323 324 303 299 299 304 334 343 348 341 348 353 354 353 354 357 358 357 354 350 352 354 355 354 354 353 354 355 332 340
305 304 304 304 305 306 308 309 312 316 318 320 323 326 334 325 336 332 318 326 346 353 355 352 355 357 357 355 356 356 358 356 352 351 352 352 353 353 353 352 352 351 348
302 303 304 305 304 304 306 308 310 312 313 317 323 328 312 333 338 343 347 334 338 352 357 357 358 357 357 357 357 355 354 355 354 352 353 354 352 351 352 352 348 345 344
302 302 303 303 303 305 305 307 308 309 310 312 315 321 307 327 334 337 346 349 346 347 349 349 352 345 343 345 348 351 352 351 352 352 351 350 347 344 340 338 337 338 341
302 301 301 302 303 304 304 305 305 306 306 307 309 311 316 325 333 335 326 315 311 309 308 311 313 310 309 310 310 313 320 322 321 327 338 339 338 338 337 335 336 338 339
297 298 298 299 300 300 300 300 300 299 300 302 304 308 307 307 306 304 303 302 302 301 301 300 301 302 303 303 303 301 302 307 316 321 323 328 334 333 338 341 341 341 340
296 296 296 296 296 296 297 297 297 298 298 298 299 298 299 298 297 297 297 297 297 297 297 298 297 297 298 299 298 298 292 293 307 304 316 317 315 319 330 338 339 340 339
293 294 294 294 294 294 294 294 294 295 295 295 294 295 295 294 295 295 294 294 293 293 294 295 295 295 294 294 292 290 288 291 299 295 312 309 306 305 308 309 312 316 319

GFSGL_sfc_thetae_078.txt.gz
Theta_e
356 357 357 357 358 360 358 358 360 360 361 363 365 365 364 362 364 366 364 361 361 360 361 361 361 363 355 352 353 352 351 351 345 346 351 356 365 365 365 368 363 362 355
354 357 356 359 358 356 358 358 361 360 361 364 366 366 361 362 364 366 362 359 360 358 360 361 360 356 362 361 355 360 358 357 351 354 358 353 361 365 366 367 360 358 361
353 351 353 353 355 355 356 359 360 360 360 359 362 365 364 361 363 365 365 364 361 360 359 361 360 360 360 356 359 354 354 355 355 351 350 352 355 359 362 366 364 365 356
350 352 350 353 354 354 356 359 359 360 360 359 360 362 363 363 363 365 365 365 363 361 363 363 362 360 360 362 361 362 361 359 358 352 350 351 352 360 359 352 349 351 352
351 350 352 355 356 356 354 357 359 360 360 361 359 360 362 361 359 365 365 364 364 364 364 365 364 360 349 352 356 365 365 358 353 350 349 350 349 349 354 350 348 349 355
351 351 354 355 357 357 357 351 358 359 360 361 359 358 357 353 340 338 352 362 363 364 362 364 366 354 353 341 341 341 350 361 358 349 345 346 359 356 352 349 348 347 344
345 352 352 354 355 356 358 358 358 357 359 360 359 359 360 360 334 333 339 356 357 361 363 362 359 357 357 363 344 338 339 336 339 360 358 357 360 360 363 360 363 355 353
330 332 335 348 351 355 356 357 358 358 358 358 358 361 360 360 334 331 335 356 358 361 363 363 365 365 361 360 361 360 362 363 360 356 358 360 364 365 366 365 365 364 361
327 328 330 333 340 349 353 354 358 357 357 357 358 359 360 362 330 329 336 354 352 359 362 365 366 367 349 334 361 362 361 362 343 336 338 336 332 331 341 357 352 348 344
330 329 330 332 332 335 346 352 356 359 356 356 357 359 349 360 336 324 333 352 352 351 360 364 339 354 336 329 361 363 360 360 354 355 358 349 340 352 332 356 357 350 346
329 330 329 330 332 334 335 343 352 357 362 360 357 360 362 356 357 323 321 353 351 351 351 352 354 329 326 322 327 364 357 358 350 353 351 351 352 354 358 361 363 358 349
328 328 329 329 327 331 337 339 339 347 349 356 359 361 359 364 338 329 319 322 341 354 354 354 356 325 319 320 326 332 325 329 350 343 342 343 344 346 347 355 371 369 364
326 326 326 328 329 330 331 335 338 342 344 349 352 351 358 359 362 327 320 318 321 342 356 347 328 318 314 320 318 322 322 349 349 347 344 345 346 348 359 362 371 376 374
323 324 324 324 324 327 327 329 332 334 335 340 343 350 354 359 362 359 355 343 323 332 336 345 343 336 328 338 343 335 346 352 350 349 348 348 350 349 349 352 351 352 353
320 321 321 321 323 323 325 326 325 327 327 330 333 340 342 349 358 325 328 360 363 347 344 353 352 352 353 354 355 356 356 354 351 352 352 351 352 352 351 353 351 351 349
318 318 318 318 319 320 320 322 313 308 305 304 304 311 330 320 314 312 308 311 312 315 345 351 353 354 354 355 355 356 357 351 356 355 353 353 351 351 351 352 352 349 349
310 315 315 315 317 317 318 319 318 319 309 305 303 303 302 306 304 307 302 304 309 313 349 352 353 354 356 357 356 355 355 357 364 358 358 356 354 352 349 350 349 350 351
308 307 312 314 315 316 317 318 319 318 318 320 314 310 310 301 301 301 301 308 325 317 347 351 353 355 355 354 354 355 356 357 358 359 357 357 357 353 351 350 351 352 352
308 308 311 313 314 313 314 315 316 316 317 318 321 316 317 307 301 300 297 326 337 345 344 349 354 354 357 358 359 359 362 360 361 360 358 358 358 356 353 352 352 333 340
305 306 307 309 310 312 313 313 314 313 314 317 319 320 325 325 333 337 327 330 331 342 350 351 353 356 359 360 360 361 362 359 362 360 359 359 359 358 357 356 356 355 358
301 304 305 307 308 310 310 308 308 311 311 313 316 319 305 319 324 331 334 339 339 344 348 353 356 359 359 361 365 365 360 362 360 358 359 359 359 354 354 354 354 356 354
301 300 301 302 304 305 307 308 307 308 309 310 314 317 303 319 321 325 331 336 341 345 350 350 351 346 344 351 359 362 358 356 357 355 355 357 358 354 353 352 352 351 349
299 298 299 300 302 302 304 305 306 307 308 310 311 312 314 317 319 321 326 331 329 315 311 313 319 321 315 315 315 315 325 337 337 337 351 353 353 351 350 345 344 341 341
295 295 296 297 298 299 300 302 303 303 305 306 307 308 309 311 309 308 306 306 305 304 304 304 303 304 304 305 306 308 310 309 316 322 326 331 335 332 339 338 337 336 336
293 293 293 294 295 296 297 298 299 300 301 302 302 302 303 302 301 300 300 300 299 299 299 299 299 300 300 300 299 300 295 295 309 307 321 322 322 322 322 323 324 333 337
293 292 291 291 293 294 294 295 296 297 297 298 298 298 298 297 297 297 297 296 296 295 295 296 297 297 296 294 293 289 286 289 302 297 316 315 314 313 313 313 313 313 313

GFSGL_sfc_thetae_081.txt.gz
Theta_e
359 361 361 361 361 363 360 360 361 361 362 362 364 365 363 364 363 369 367 363 361 360 362 361 362 369 355 350 349 349 348 348 344 347 351 358 369 370 368 370 365 368 358
358 363 360 363 363 359 361 361 363 364 362 364 366 364 363 361 365 365 361 358 358 359 359 362 358 355 367 367 355 368 358 363 351 358 357 352 364 372 373 375 363 359 361
356 357 359 358 358 359 361 361 365 364 365 359 363 365 363 360 365 366 365 363 361 361 361 360 359 361 366 358 363 355 353 355 357 352 351 352 354 356 361 370 371 367 357
351 354 356 357 357 358 363 366 362 367 365 363 364 366 364 362 361 362 364 365 364 362 363 364 362 362 365 366 362 367 362 358 355 350 348 350 353 363 357 354 352 352 351
352 351 357 358 358 359 360 362 363 366 366 366 366 364 365 360 358 364 364 364 364 365 364 365 366 361 351 355 356 364 368 360 351 348 347 348 348 350 355 352 350 350 356
342 346 347 357 357 360 360 360 360 362 368 369 366 365 363 355 341 339 354 364 367 369 364 366 368 356 354 342 340 341 351 364 366 352 347 346 362 355 349 348 349 346 344
333 333 336 344 350 354 360 363 361 359 363 367 366 366 366 366 338 333 340 357 362 366 369 368 363 355 357 366 345 340 341 337 339 360 362 361 361 366 368 368 361 359 353
330 330 331 335 341 348 351 356 359 361 361 362 365 367 368 365 337 331 334 359 360 363 365 369 369 367 367 364 366 364 363 364 362 355 358 362 366 369 369 365 369 369 364
332 331 330 331 333 339 343 343 355 361 358 358 359 364 364 367 334 329 335 356 354 358 362 364 364 367 351 338 363 364 366 365 345 340 342 341 340 336 343 355 350 348 345
329 331 335 334 332 333 335 341 345 355 358 363 358 362 351 364 339 328 332 355 356 354 361 363 340 351 337 330 362 363 361 363 366 360 358 349 341 351 333 353 355 347 346
327 330 331 333 334 333 335 340 340 342 349 356 358 363 365 360 362 325 322 358 355 354 354 355 358 331 327 325 325 364 359 361 358 361 359 357 356 359 361 361 363 358 349
324 326 330 331 329 330 335 336 339 341 341 346 353 356 362 365 342 334 321 323 345 355 357 356 357 326 320 321 326 333 327 332 357 355 352 347 346 346 349 353 367 368 364
322 323 326 329 329 330 330 333 332 341 343 342 342 349 351 356 365 331 322 320 323 345 358 349 323 319 314 319 318 320 322 348 352 351 352 352 351 349 353 358 363 378 374
322 322 323 325 325 326 326 326 327 329 331 332 338 337 338 344 358 362 344 337 330 338 338 349 344 336 323 332 342 334 345 352 353 353 353 355 355 352 350 352 350 350 350
317 319 322 322 323 325 327 324 324 329 323 324 325 326 327 330 339 319 319 333 328 326 321 345 356 355 354 356 357 359 360 357 353 354 354 354 354 353 352 354 353 352 350
313 314 316 317 319 320 320 321 314 309 308 305 303 311 323 313 310 306 304 307 310 311 324 345 354 356 355 356 357 358 360 354 361 359 356 355 353 354 354 355 355 354 352
308 311 313 312 315 316 317 318 317 318 305 303 302 302 301 304 301 300 298 298 300 310 330 338 350 354 354 358 355 355 355 358 363 358 356 359 356 356 352 352 353 354 353
308 305 308 311 313 314 316 316 317 317 317 319 310 307 305 302 301 300 300 302 328 321 334 337 351 353 354 355 358 356 357 360 361 361 360 360 360 359 358 357 355 354 352
306 305 306 307 308 309 312 315 315 315 315 316 319 313 312 302 301 300 298 323 331 335 338 340 348 352 355 359 359 361 360 358 358 361 361 359 360 360 359 360 358 333 340
305 305 304 303 305 306 308 311 313 315 315 316 316 317 320 318 321 324 330 335 337 338 340 345 350 347 354 359 358 359 362 361 363 363 362 365 365 361 359 360 360 356 357
303 303 303 304 304 303 304 306 309 311 312 314 314 316 303 318 319 320 322 324 329 335 339 343 349 350 354 360 360 355 358 359 362 362 363 363 364 361 359 360 359 361 359
302 301 300 300 300 301 302 303 303 303 306 309 311 313 304 316 318 319 321 324 328 333 338 333 332 338 347 345 341 342 353 357 360 361 361 362 360 359 360 356 359 357 355
300 298 297 297 298 298 299 300 300 302 303 304 307 310 313 315 317 319 321 324 327 326 324 323 321 318 321 323 323 319 318 327 328 328 338 351 355 354 354 352 352 352 352
297 295 294 294 294 296 296 297 298 297 300 302 304 305 307 309 310 312 314 315 314 312 310 308 310 310 310 312 313 313 312 313 314 317 324 327 332 332 340 343 344 341 341
297 295 294 293 292 292 294 294 295 296 297 298 300 302 304 306 307 307 307 306 305 303 302 301 301 301 301 301 302 304 300 289 299 305 322 324 327 329 329 331 331 332 333
297 296 295 293 291 291 291 292 292 294 295 296 297 298 300 300 301 301 301 300 299 299 298 298 298 297 297 296 295 290 285 286 301 292 319 324 323 320 319 318 318 315 315

GFSGL_sfc_thetae_084.txt.gz
Theta_e
361 362 361 362 364 366 365 368 368 372 358 352 339 348 363 366 364 365 362 360 359 360 362 361 359 364 359 358 356 356 352 354 348 350 357 360 359 362 362 367 368 366 361
360 362 362 364 363 363 363 364 368 367 368 369 362 363 365 363 363 362 362 360 359 359 360 358 358 358 363 363 359 357 358 359 354 349 354 353 354 356 369 366 368 362 360
359 361 361 361 362 362 364 364 366 366 366 364 364 366 365 365 365 364 362 362 362 358 361 360 360 362 362 358 363 359 356 357 356 354 350 357 354 354 356 362 366 366 366
351 347 359 361 361 361 367 366 365 367 365 365 365 366 364 364 364 363 365 364 365 362 364 363 363 363 362 361 360 360 359 358 355 354 350 349 350 353 358 356 354 353 352
346 347 346 350 362 366 366 364 367 366 365 366 365 364 366 364 360 362 363 363 361 360 363 363 364 362 354 357 359 359 358 357 355 352 349 349 350 354 351 353 349 354 352
338 338 344 350 351 356 361 364 364 366 367 366 364 364 362 358 343 339 354 359 363 362 359 363 365 357 352 342 340 342 348 358 357 357 353 348 349 353 356 355 353 347 343
332 334 336 341 344 345 349 357 359 360 362 363 364 364 363 364 342 335 337 358 362 363 362 362 362 356 351 361 343 339 340 337 340 350 349 352 354 356 359 358 357 355 353
333 333 334 334 337 341 345 344 346 352 359 359 360 362 362 363 339 336 336 350 355 358 359 363 362 359 360 362 363 361 356 357 354 347 348 349 351 354 357 356 356 355 359
331 334 334 332 333 334 337 338 341 343 345 353 358 359 360 362 337 329 335 353 354 354 355 359 359 358 348 337 354 357 359 362 348 340 341 340 338 336 341 353 350 347 342
327 331 335 336 337 335 336 338 342 343 344 348 351 358 350 358 340 330 332 356 355 355 357 357 339 346 335 330 350 358 353 353 355 358 355 343 337 343 333 346 352 348 346
325 327 331 335 334 337 339 340 340 342 344 345 348 354 357 354 357 328 324 353 357 355 354 354 356 331 326 325 324 352 351 354 352 356 357 356 355 357 357 353 354 352 348
326 326 327 330 330 330 335 336 336 338 341 343 344 347 357 358 337 333 320 320 329 346 354 357 356 322 316 317 323 329 326 331 353 353 354 352 351 350 350 350 358 357 356
321 323 327 328 328 332 333 330 330 335 337 340 340 341 341 342 347 321 322 320 324 332 341 337 323 322 319 323 318 319 318 339 345 346 347 348 351 353 354 351 349 361 360
318 319 320 320 324 328 327 326 327 325 327 330 330 328 329 331 344 338 329 328 325 329 330 331 329 324 325 332 335 344 334 343 346 347 347 350 353 352 352 352 347 345 345
312 314 316 317 319 320 325 326 325 329 322 323 324 323 322 321 327 312 312 324 328 325 320 329 336 345 352 354 355 354 355 350 348 350 350 351 352 352 351 351 348 346 345
308 308 309 311 314 315 317 318 315 308 306 303 303 311 322 313 307 304 301 299 300 303 320 327 331 336 343 344 349 351 354 351 355 354 352 352 350 350 350 351 353 348 345
305 307 307 307 309 312 314 315 314 316 309 305 302 301 301 306 302 300 299 298 297 302 317 327 331 334 339 343 345 343 343 352 355 356 355 355 352 351 347 348 348 348 349
308 305 307 307 307 308 309 310 312 312 314 317 313 304 304 299 299 299 299 299 320 312 325 331 335 338 339 345 349 347 347 350 351 353 353 354 354 353 352 352 352 349 347
305 304 305 305 306 305 306 308 309 310 311 313 317 313 313 301 299 299 297 316 323 327 333 336 338 340 343 348 350 351 354 351 339 346 354 356 357 355 354 354 353 331 334
305 306 305 303 303 304 304 305 304 305 307 309 312 314 318 316 318 319 323 326 330 331 331 335 338 341 344 347 345 344 344 350 352 351 351 352 355 355 354 354 353 352 350
302 303 304 302 301 301 301 301 301 302 304 305 306 309 301 306 311 314 316 318 319 320 323 327 332 337 342 341 343 346 346 348 349 349 350 350 352 350 353 354 353 352 352
301 300 299 299 298 298 298 298 298 299 300 300 302 306 300 307 309 312 315 316 319 322 323 330 329 327 328 326 326 326 326 329 336 339 342 350 351 352 351 349 350 352 352
300 299 298 297 296 296 296 296 296 297 297 298 300 301 303 304 306 308 310 313 316 317 318 317 316 315 317 320 322 319 317 318 320 319 323 330 336 345 349 349 349 350 351
300 299 298 297 295 293 293 292 293 294 295 295 296 297 299 301 303 305 307 309 311 312 312 311 310 309 308 308 310 312 313 314 312 312 316 320 325 327 336 342 345 348 348
301 299 298 297 295 293 292 291 290 292 292 293 294 295 297 298 299 301 303 304 306 307 307 306 305 303 302 302 302 302 299 292 295 296 305 315 320 324 328 333 335 338 338
301 299 298 298 295 293 292 291 290 289 290 290 291 293 294 295 296 298 300 300 301 302 301 301 300 299 298 297 296 292 287 286 291 289 301 312 318 323 324 324 323 321 321

GFSGL_sfc_thetae_087.txt.gz
Theta_e
352 353 352 355 355 354 354 355 352 349 348 347 345 341 347 352 353 352 350 350 352 349 348 350 346 350 347 348 350 347 345 343 338 343 348 349 345 344 347 351 358 357 356
354 354 354 355 355 356 355 355 354 349 349 345 338 337 343 350 354 352 351 351 350 348 348 349 347 352 348 350 348 346 345 343 341 335 340 342 343 348 350 352 360 361 356
343 349 348 354 355 355 356 355 355 355 352 352 349 348 351 352 352 353 352 351 352 349 350 349 349 348 348 347 345 350 348 348 348 344 343 346 347 344 343 345 349 355 356
342 339 343 344 348 353 356 356 356 356 355 353 354 352 355 354 355 355 354 351 351 354 352 353 351 347 348 349 347 346 348 346 345 343 342 341 341 345 347 348 340 343 346
338 339 337 345 347 350 350 353 353 355 356 356 355 355 357 355 356 354 355 354 352 351 352 354 355 355 352 351 351 348 347 346 345 345 343 342 343 343 341 345 344 345 343
334 336 338 342 343 342 347 350 351 350 351 354 355 355 354 357 346 342 350 351 355 351 349 352 355 354 350 342 341 343 350 348 345 345 345 344 342 342 347 347 346 342 339
332 332 334 337 339 340 342 341 339 342 351 350 351 352 354 354 338 336 337 345 350 352 353 352 352 355 349 352 344 338 337 336 339 342 339 340 341 344 345 345 343 344 343
330 331 331 332 334 336 338 337 339 339 341 346 349 351 352 354 337 331 335 340 343 346 350 353 354 353 351 350 353 353 349 348 345 341 343 345 344 345 344 346 345 346 348
322 326 331 332 331 331 332 334 337 338 340 341 343 347 347 350 337 330 331 342 344 346 348 349 351 351 345 336 347 347 348 354 346 335 337 336 335 334 338 345 344 341 341
319 320 323 329 327 326 329 330 334 336 339 344 344 345 342 349 338 326 330 344 347 349 349 349 335 342 332 329 343 346 345 348 349 349 346 338 335 341 332 339 345 340 340
318 321 322 322 323 324 325 327 328 329 333 336 340 341 344 344 337 323 321 336 346 347 349 350 351 323 317 316 316 339 344 343 344 347 351 351 351 349 348 346 346 346 344
315 315 316 319 322 322 322 325 323 322 325 330 335 337 342 336 321 318 317 318 325 334 336 341 340 319 317 315 321 322 320 324 338 343 345 347 349 350 351 349 352 351 351
310 310 312 314 314 317 321 321 319 321 319 322 326 323 327 330 335 317 318 321 323 330 334 329 320 316 314 324 319 320 318 327 331 335 339 342 346 348 350 348 347 345 352
305 306 308 309 309 310 313 317 316 317 317 315 315 315 316 316 321 331 322 323 322 328 329 330 325 320 319 325 327 334 339 344 342 340 339 343 345 346 346 349 348 348 346
303 304 303 305 305 306 309 309 311 312 309 308 312 314 313 313 316 316 309 314 320 319 313 322 325 327 329 334 343 349 349 344 338 341 342 343 344 345 346 348 348 347 342
300 301 302 301 302 304 306 307 307 305 304 303 301 301 309 308 305 302 300 300 298 299 313 317 321 324 325 328 333 339 344 345 347 346 345 344 345 344 346 347 347 346 343
300 300 300 302 301 301 302 302 301 304 304 303 302 302 300 300 299 298 298 299 297 300 310 314 318 322 325 328 330 336 339 343 344 344 346 347 348 347 343 345 345 343 343
300 303 298 298 299 300 300 300 301 301 301 303 305 304 304 300 299 298 297 297 306 303 309 316 321 325 329 331 333 335 342 344 339 339 341 338 339 340 337 339 345 343 340
299 298 298 298 298 300 299 299 300 300 300 300 302 302 304 302 300 300 299 301 308 312 315 319 324 329 333 334 337 339 342 344 342 342 341 338 336 334 333 332 338 332 333
297 305 301 297 297 297 297 297 297 297 297 298 298 299 301 302 302 303 305 308 310 312 314 315 316 318 321 324 332 336 337 338 340 340 342 342 334 332 333 335 345 344 342
296 296 300 295 294 294 294 294 294 294 294 295 296 298 297 298 299 300 303 304 307 311 312 313 315 318 324 325 325 323 323 324 326 329 333 335 341 343 345 344 344 344 344
295 295 294 293 293 292 292 293 293 292 293 293 294 295 295 296 297 299 301 303 305 307 308 311 313 313 313 312 312 312 313 312 314 317 320 323 326 333 340 343 343 342 342
295 294 293 293 292 293 291 291 291 291 291 291 291 292 293 295 296 297 298 300 303 305 307 308 310 310 310 309 307 306 307 308 311 312 311 313 317 323 330 335 340 341 338
295 295 294 293 292 291 290 290 291 291 290 290 291 291 291 292 293 295 297 298 299 300 303 305 305 306 306 305 305 304 305 306 307 308 307 307 309 312 318 326 332 336 341
295 295 294 293 295 290 290 289 290 290 290 290 289 290 290 290 291 293 295 296 297 298 299 302 304 303 302 302 302 301 298 293 295 295 298 300 302 307 314 321 326 330 335
295 296 294 294 293 291 290 288 289 290 289 290 289 289 289 289 290 292 293 295 295 296 298 299 300 301 301 300 298 294 289 287 290 288 292 296 300 305 311 317 322 325 328

GFSGL_sfc_thetae_090.txt.gz
Theta_e
347 348 348 350 350 350 350 350 348 347 347 346 346 348 347 349 351 349 346 347 346 346 346 346 345 344 343 343 346 343 341 341 333 338 346 347 343 343 347 346 348 351 355
344 344 348 350 350 351 351 351 351 347 346 345 344 341 341 346 349 349 347 350 346 346 345 344 346 348 343 345 346 341 343 342 341 337 339 342 343 345 342 342 348 354 354
342 342 345 345 346 350 351 352 352 347 345 345 341 337 335 342 347 351 349 348 349 348 346 345 346 345 343 343 344 342 344 345 345 342 340 343 343 341 343 344 346 346 348
340 338 336 341 343 345 349 351 349 351 347 347 347 345 346 349 349 350 351 346 348 349 350 349 349 347 344 343 344 343 343 342 341 340 339 339 340 343 343 342 342 343 345
338 337 338 342 342 344 348 348 352 350 352 351 350 351 351 352 353 350 352 351 349 348 350 351 351 351 346 344 349 346 343 342 341 339 340 339 341 341 340 343 342 343 342
335 335 337 340 341 342 341 340 343 346 348 349 351 350 349 355 341 338 346 350 351 350 348 348 350 349 347 341 340 340 343 344 342 341 340 339 339 340 341 343 340 338 334
330 332 334 337 337 338 338 339 338 339 341 344 344 347 349 350 339 334 336 342 345 347 349 348 349 354 347 352 344 337 335 335 340 343 340 339 337 339 340 337 336 337 337
330 330 332 332 332 333 334 334 337 338 338 339 342 343 343 349 336 332 334 341 342 343 346 350 350 351 349 348 348 347 348 347 341 340 341 345 343 345 339 342 339 339 342
318 320 325 328 328 331 331 333 334 336 336 338 341 340 342 345 330 326 330 342 342 344 346 346 347 348 340 333 344 346 346 347 344 332 333 332 331 330 334 341 339 338 341
314 317 320 322 323 326 326 327 332 331 333 336 337 341 336 346 320 319 327 340 341 344 347 348 334 338 326 320 338 345 344 345 345 345 347 337 331 337 329 339 345 341 340
313 313 314 314 316 320 320 321 324 321 323 326 331 336 337 331 325 318 319 331 331 335 338 343 343 320 315 314 315 329 334 337 336 340 342 346 348 347 346 342 343 345 343
308 308 308 310 312 314 315 319 319 318 320 321 324 333 336 334 321 317 315 317 322 326 327 332 335 319 312 311 317 322 319 322 330 334 337 340 343 345 349 349 348 346 349
304 304 304 305 307 308 310 311 312 313 312 311 312 314 315 318 327 314 315 317 319 323 329 325 317 312 312 317 320 319 319 328 330 331 334 337 341 345 346 347 347 350 350
301 301 302 302 302 303 307 309 309 308 306 306 308 308 309 311 313 315 320 315 316 319 322 321 320 317 316 318 321 330 334 336 337 339 341 344 345 343 342 345 343 344 344
299 300 299 300 299 301 302 304 305 304 303 303 305 305 306 307 309 303 302 306 310 308 304 312 315 317 319 321 324 327 330 341 342 342 341 341 341 341 342 343 343 343 341
298 298 298 297 298 299 299 299 302 301 300 298 297 299 304 302 299 298 297 298 297 297 306 308 310 313 316 318 321 324 327 332 336 339 342 341 341 342 342 344 342 344 343
296 296 295 297 297 296 297 297 297 300 301 299 298 298 298 297 297 296 296 297 298 299 303 306 308 312 315 319 323 326 327 332 336 339 340 341 341 342 342 343 344 345 343
296 301 295 295 295 295 296 296 296 296 295 296 298 298 297 296 296 295 296 300 304 304 303 307 310 314 317 321 325 329 331 334 338 340 339 338 339 339 337 336 336 335 334
295 295 294 293 294 295 294 294 294 294 294 294 295 296 297 295 295 295 296 300 301 302 305 308 310 312 312 313 316 321 328 331 330 332 334 336 339 339 335 334 334 321 323
296 300 297 292 292 292 292 292 292 292 292 292 293 293 295 294 293 294 296 297 299 300 302 305 309 312 314 316 319 321 321 319 319 320 321 322 327 330 331 332 332 331 333
293 294 298 292 291 291 290 290 290 290 290 290 291 293 294 292 292 293 294 295 296 297 300 302 304 305 307 311 314 313 312 312 312 311 312 313 314 314 318 322 329 335 339
293 293 293 292 291 291 290 289 289 289 289 289 290 291 292 292 291 291 292 294 295 297 298 299 301 303 306 307 308 308 307 307 308 308 308 309 309 310 312 315 319 327 332
293 292 292 291 291 293 290 289 288 288 288 291 291 290 291 290 290 291 291 291 293 295 297 298 297 299 301 305 308 307 305 304 305 306 305 306 308 307 309 309 310 315 321
293 293 292 292 291 290 289 289 288 289 288 289 290 290 289 290 290 290 290 290 291 294 295 296 296 297 298 299 302 304 304 304 304 304 303 301 301 301 305 308 310 314 318
292 292 292 292 291 290 289 288 287 287 288 289 289 289 289 289 290 290 290 290 291 290 292 294 296 296 297 298 298 299 299 293 296 295 298 298 297 297 299 302 305 308 313
292 293 292 291 291 290 289 288 287 286 287 290 289 289 289 288 289 289 289 289 289 289 290 291 293 294 296 297 298 295 289 287 290 288 292 293 293 294 297 300 303 306 310

GFSGL_sfc_thetae_093.txt.gz
Theta_e
344 342 342 345 346 347 345 346 347 345 344 346 346 346 347 347 348 346 345 345 344 344 343 343 342 342 341 340 344 341 340 338 333 337 341 344 342 342 344 344 347 348 350
341 343 345 346 347 347 344 347 349 347 343 344 345 345 345 345 347 347 347 348 345 344 343 342 342 347 341 341 344 339 341 340 338 334 338 340 341 343 342 342 346 350 346
339 340 342 343 344 346 346 348 349 349 344 344 343 341 340 339 342 347 349 345 346 345 346 344 342 343 342 341 340 340 341 343 341 339 338 340 341 340 342 342 345 344 348
339 339 341 340 340 343 344 346 346 350 347 344 343 341 338 338 340 344 348 346 346 346 347 347 346 346 344 342 341 341 341 340 339 337 336 337 338 341 341 339 341 342 343
338 337 338 341 341 341 340 341 344 347 349 347 345 346 346 347 349 348 348 349 347 346 346 347 349 348 345 343 347 345 343 340 339 337 336 336 337 337 336 339 339 339 339
337 336 338 338 338 337 338 339 339 340 342 344 345 346 344 351 343 338 345 347 348 348 347 347 348 346 345 339 337 339 344 344 341 338 338 337 337 338 338 338 337 333 331
331 333 335 336 333 334 334 335 336 336 338 339 342 344 346 345 334 332 336 344 344 344 346 347 348 351 345 348 342 335 336 334 338 344 340 340 338 338 338 336 334 334 333
326 329 332 331 331 332 332 331 333 333 334 336 338 339 339 343 328 328 333 338 341 341 342 344 346 347 348 347 347 346 346 346 343 340 341 345 344 345 340 342 339 336 337
316 319 321 324 328 329 328 330 331 330 329 331 336 338 338 340 321 322 333 340 341 342 343 344 344 344 334 325 340 343 344 346 341 331 331 331 330 328 334 339 337 335 341
312 313 313 315 319 319 322 324 329 326 327 329 332 337 332 333 320 323 330 336 332 334 338 341 325 327 319 316 331 332 334 339 341 340 341 340 330 335 329 336 344 340 341
309 309 309 310 312 313 316 320 319 319 320 328 334 334 333 329 328 315 317 326 324 324 328 331 334 323 321 318 314 323 331 334 335 339 340 341 342 344 345 339 340 343 342
305 305 304 304 307 309 309 310 312 311 311 311 313 314 319 320 316 315 313 315 319 320 322 325 326 313 310 311 313 318 315 318 329 333 336 338 340 341 344 346 346 344 347
302 301 301 302 303 304 305 305 305 305 306 307 307 307 308 311 310 308 308 310 313 317 321 320 315 312 311 316 317 317 317 325 327 331 332 337 340 343 343 343 344 347 347
299 298 299 299 299 300 302 303 301 301 302 304 303 304 305 307 305 303 303 304 308 309 311 309 312 313 313 316 318 322 326 330 332 334 337 341 344 343 342 341 340 341 340
297 297 296 297 296 297 298 299 300 299 300 299 299 300 301 301 300 299 297 300 301 301 300 307 309 309 311 312 315 318 322 324 326 330 335 338 339 340 341 342 340 340 338
295 295 295 295 295 296 296 296 300 300 299 297 296 297 299 299 297 296 295 296 297 298 304 304 306 307 308 311 314 318 322 325 328 331 333 335 337 340 341 343 341 340 339
294 293 293 295 294 294 294 293 292 294 298 297 295 296 296 295 295 294 294 295 298 301 303 304 305 307 310 312 315 318 320 324 329 332 334 335 336 338 336 338 341 341 341
295 298 292 292 292 291 292 292 292 291 290 291 295 295 294 293 293 293 294 296 297 299 299 300 302 304 307 309 310 311 315 321 324 324 326 328 327 327 330 335 337 335 335
292 291 291 291 291 291 290 290 290 290 289 289 291 293 293 293 292 293 293 293 293 295 297 298 300 302 305 308 308 309 310 314 317 316 319 317 317 317 318 319 320 316 322
294 298 293 290 290 289 289 289 288 288 288 288 288 289 290 291 289 290 292 292 293 293 294 295 296 298 299 301 302 305 308 310 311 313 313 313 313 313 312 312 313 313 317
293 294 297 291 290 289 289 288 288 287 287 287 287 290 293 289 289 289 289 290 290 291 291 293 294 295 296 298 298 299 303 305 309 309 307 308 308 307 308 310 311 311 313
292 292 291 291 290 290 289 288 288 287 287 287 287 289 291 289 289 289 290 291 291 291 291 292 293 294 295 295 296 298 299 302 306 306 305 305 304 304 305 306 307 308 308
292 291 291 290 291 292 290 289 287 287 287 287 287 288 289 288 288 289 289 290 291 291 291 291 291 291 293 295 296 295 296 297 300 302 302 302 301 301 302 301 301 302 304
292 292 291 290 290 290 289 288 288 289 288 287 287 287 287 289 289 289 289 289 290 290 291 290 290 290 291 292 294 296 296 297 298 298 300 300 300 298 298 298 298 300 303
292 292 291 290 290 290 289 289 288 287 286 286 287 287 289 290 289 289 289 289 289 289 289 289 289 290 291 292 292 293 292 290 291 292 296 297 297 297 297 296 295 296 298
293 292 292 291 290 289 289 288 288 287 286 286 286 288 290 289 289 289 288 288 288 288 289 289 289 290 290 290 291 290 288 287 289 288 290 291 291 292 293 294 294 294 295

GFSGL_sfc_thetae_096.txt.gz
Theta_e
342 342 344 345 348 349 347 349 350 350 349 347 348 349 350 351 353 352 350 350 350 350 350 350 350 350 348 348 349 349 347 344 342 347 347 353 354 354 355 356 355 359 355
345 345 343 345 347 348 347 348 351 351 349 346 348 349 350 349 351 352 350 352 347 349 349 349 347 349 350 349 349 350 348 349 345 344 347 348 351 354 353 353 354 355 355
341 342 345 345 347 347 348 350 351 352 351 348 347 347 344 346 348 350 351 351 350 350 348 349 348 349 350 349 349 347 347 348 348 346 346 348 349 349 352 354 354 356 353
341 341 340 341 342 343 345 346 348 351 351 348 347 347 346 346 344 344 349 352 352 351 351 351 350 350 348 350 349 350 348 347 347 346 345 344 346 351 349 347 348 351 350
338 339 339 340 340 341 341 341 343 344 347 350 349 348 347 345 345 347 349 351 352 352 353 353 353 351 345 346 353 354 351 349 348 346 345 345 346 347 347 349 346 348 351
338 338 338 338 337 336 339 339 339 339 341 343 345 347 348 349 336 336 347 352 353 353 353 355 355 348 348 338 337 337 346 352 351 347 349 347 349 347 349 347 347 346 344
334 335 336 334 334 334 335 335 334 335 337 339 341 341 341 344 328 329 335 347 351 351 351 352 351 353 348 353 343 337 336 333 339 354 350 351 350 352 351 349 349 345 346
322 325 329 333 332 332 330 330 330 330 332 334 337 339 341 338 323 324 331 343 346 345 346 347 347 348 339 339 347 350 352 353 351 346 347 351 354 354 352 352 351 348 347
314 315 317 323 324 326 328 329 328 326 326 328 333 339 331 326 318 323 333 341 339 340 343 340 341 335 324 322 338 340 343 346 341 333 329 330 328 327 333 345 346 345 344
311 311 314 315 317 319 323 326 327 325 327 330 334 333 326 325 312 315 323 328 327 330 334 336 327 325 321 321 327 328 331 339 341 340 342 343 338 344 330 341 347 344 345
309 309 309 311 312 314 314 315 316 315 317 324 322 319 316 313 310 309 311 319 321 326 327 328 330 316 314 313 312 325 325 326 328 330 334 338 344 347 348 351 348 347 346
306 306 307 307 309 310 311 308 309 311 312 311 311 313 314 313 308 307 307 309 312 319 320 323 324 310 308 309 316 315 312 315 328 331 332 334 337 341 346 350 354 350 352
303 303 303 304 306 307 306 305 305 306 307 307 307 307 308 306 304 304 304 306 309 312 315 312 310 308 309 315 315 315 317 331 332 331 332 336 341 343 348 350 351 353 354
301 300 301 301 301 303 304 303 303 302 302 302 302 302 303 301 300 300 301 303 306 309 309 312 313 312 312 314 318 321 326 328 328 330 331 336 341 341 341 349 345 349 345
299 299 299 299 299 300 301 301 301 300 300 299 298 300 298 296 296 297 296 297 300 303 303 314 313 312 313 315 317 320 323 325 326 330 328 329 332 333 334 342 344 343 341
297 297 297 298 298 297 297 297 298 298 297 295 295 297 297 295 295 294 293 294 296 298 307 307 307 309 309 310 312 315 317 319 322 325 326 329 330 330 327 333 337 339 338
296 296 297 296 295 295 295 294 293 295 297 295 294 294 294 293 293 292 292 293 296 299 301 301 302 303 304 307 311 312 312 313 316 316 324 323 322 320 320 321 323 323 323
297 296 294 294 294 293 293 293 293 292 292 292 294 294 293 292 292 292 293 295 296 297 297 297 297 298 299 301 301 303 304 307 309 313 316 317 319 317 317 317 316 317 317
294 294 294 293 293 293 293 293 292 292 291 291 292 293 293 292 291 292 292 293 293 293 294 295 296 296 297 298 299 301 303 303 305 310 313 312 312 313 311 311 311 308 309
295 296 294 293 293 293 293 292 292 291 291 291 291 291 292 292 291 291 292 292 292 292 292 292 293 295 295 296 298 297 298 298 300 303 305 306 307 307 306 307 308 307 308
297 298 296 294 293 293 293 292 292 291 291 291 291 292 292 291 291 291 291 291 292 292 291 291 291 292 293 294 295 296 295 296 296 298 299 300 306 305 305 305 304 304 305
296 297 295 294 294 294 293 293 292 292 291 291 291 292 291 291 291 291 291 291 292 292 292 292 291 291 291 291 292 293 294 295 295 296 297 300 302 302 302 302 301 300 302
296 295 294 294 294 295 295 294 293 293 292 292 292 291 291 291 291 291 291 291 291 291 291 291 291 290 291 291 292 292 291 292 294 295 294 294 294 295 297 298 299 299 298
295 295 295 294 294 294 294 294 294 292 293 292 292 291 291 291 291 291 291 291 291 290 291 290 290 290 290 290 291 292 292 293 293 292 292 291 291 291 292 295 298 298 297
296 295 295 295 294 295 294 294 294 294 293 292 292 292 292 292 292 292 292 291 291 290 290 290 290 290 290 289 289 290 289 287 288 289 290 290 290 290 290 292 293 294 295
297 296 296 295 295 295 295 294 294 294 294 293 292 292 292 292 292 292 292 291 290 290 289 289 289 289 288 289 289 288 286 286 287 286 287 287 287 287 288 289 290 291 292

GFSGL_sfc_thetae_099.txt.gz
Theta_e
349 351 355 355 357 358 357 358 359 360 359 359 359 357 357 357 361 363 362 359 359 359 360 359 359 362 356 355 356 357 354 353 345 347 354 357 361 361 360 363 360 362 357
352 351 352 356 356 357 357 359 360 359 360 359 359 359 360 359 360 361 360 359 358 357 357 359 358 356 360 360 355 358 356 357 351 351 356 355 359 363 363 364 358 357 361
349 352 353 355 354 354 356 358 359 359 361 360 359 359 359 357 356 358 359 359 359 359 359 357 357 358 360 358 360 364 355 355 357 353 352 356 358 359 360 362 363 364 359
346 347 347 351 354 354 357 356 359 360 359 360 359 359 359 356 355 355 355 358 360 358 359 360 359 359 359 360 357 361 358 359 358 353 351 352 355 360 359 355 354 355 355
340 340 341 345 346 351 352 353 352 356 357 359 359 359 358 356 353 355 355 355 355 359 361 360 361 357 348 348 360 364 363 358 359 349 349 350 351 351 352 354 352 353 357
339 338 341 340 343 346 348 348 348 349 352 353 353 353 352 354 328 331 345 358 360 360 360 362 362 353 351 337 336 337 345 359 360 351 349 350 357 357 356 354 352 350 346
340 340 339 337 337 338 342 343 342 345 347 348 349 350 345 336 324 326 334 357 359 360 359 359 358 357 349 354 347 339 338 333 337 357 355 356 356 359 360 358 357 355 352
328 330 334 334 334 334 338 338 339 341 341 344 347 338 333 326 320 323 332 354 354 352 347 346 343 334 330 332 349 355 357 359 360 357 359 359 360 361 361 360 358 357 357
320 321 325 333 331 332 332 333 335 337 339 345 336 334 327 322 314 318 333 336 338 337 337 331 331 329 324 324 333 337 343 350 341 333 331 328 327 326 333 350 352 351 349
318 318 321 324 328 326 331 330 333 335 337 332 323 320 314 316 310 311 323 332 332 332 333 333 319 321 314 315 330 331 331 333 334 335 338 339 340 346 331 351 353 349 349
317 318 319 322 323 323 322 323 325 325 321 319 318 316 311 308 307 307 309 319 320 327 326 326 324 313 309 309 311 329 326 325 331 334 335 337 339 342 344 349 356 354 351
316 316 317 318 318 317 319 319 317 320 318 319 318 315 311 308 305 305 305 307 310 318 317 319 319 308 307 309 317 312 312 319 335 336 335 336 339 341 344 347 352 353 355
313 313 314 314 314 315 316 316 315 316 314 311 311 312 309 307 305 304 304 305 308 314 317 313 311 309 311 316 315 315 318 329 330 331 332 335 337 340 343 344 349 353 356
311 311 312 311 311 312 312 312 311 310 311 311 309 306 304 303 301 303 303 305 308 310 311 317 314 314 313 316 320 322 325 325 325 327 329 329 332 335 339 339 338 339 345
309 309 309 309 309 308 307 307 304 303 304 305 305 303 303 300 298 296 296 302 305 305 309 312 311 311 313 314 316 319 321 322 322 323 321 324 327 328 328 330 332 329 329
306 306 306 306 306 306 304 300 297 297 296 294 294 297 299 295 294 294 293 294 296 298 306 306 305 306 306 307 310 310 313 312 312 313 316 319 320 321 322 324 326 326 325
305 305 303 303 303 302 302 302 299 297 296 294 293 293 293 292 293 292 292 293 296 300 301 301 300 301 301 303 303 304 304 307 309 310 311 313 315 316 316 317 318 319 318
305 301 302 301 301 301 301 301 301 300 299 298 294 294 292 292 292 292 292 296 301 301 301 301 300 301 302 301 301 302 302 303 303 304 306 308 311 311 311 311 310 310 311
303 301 301 301 300 300 300 300 299 299 299 298 299 296 296 292 292 292 294 300 299 299 299 299 299 299 300 301 301 302 302 302 301 302 303 304 306 307 308 309 309 305 305
302 300 301 301 300 300 300 299 298 298 298 298 298 297 299 299 298 298 299 299 298 298 298 298 298 298 298 298 299 299 299 300 301 301 301 301 302 303 303 303 305 305 304
301 301 301 301 301 300 300 299 299 298 298 298 297 295 291 298 298 297 298 298 297 297 297 297 297 297 297 297 297 297 297 297 298 298 298 299 300 299 299 298 299 301 304
302 302 302 301 301 301 301 301 300 299 299 298 298 296 292 300 298 298 298 298 297 297 297 297 296 296 296 296 294 294 293 293 294 294 294 295 295 296 296 296 297 298 299
303 302 302 302 302 301 301 302 301 301 301 300 300 299 299 300 300 300 299 299 299 298 297 296 295 295 295 293 293 292 292 292 292 292 291 291 291 291 292 293 294 295 294
303 302 301 301 302 302 302 303 303 298 302 301 300 299 299 300 301 299 300 300 299 298 297 295 293 293 293 292 292 292 292 292 291 291 291 290 289 290 290 291 291 292 293
304 303 302 302 302 301 302 302 303 303 303 302 301 300 300 300 300 300 301 300 299 298 297 295 294 293 292 292 291 292 290 287 289 288 290 290 289 290 290 290 290 290 290
305 304 303 303 303 302 302 303 303 303 303 303 303 303 301 300 301 300 300 300 299 298 297 296 294 293 293 292 292 290 286 285 288 286 288 288 288 288 289 290 290 289 289

GFSGL_sfc_thetae_102.txt.gz
Theta_e
354 355 356 355 355 358 356 356 358 359 363 363 365 364 363 361 362 363 362 360 359 358 359 359 360 364 354 352 351 351 350 349 343 344 348 353 362 362 362 364 359 356 353
355 356 356 353 355 354 356 356 360 358 363 361 363 365 362 358 362 362 359 356 358 355 355 357 357 354 360 361 354 358 356 357 350 351 357 352 358 362 363 365 359 356 357
356 354 359 352 352 354 356 357 361 359 359 359 362 361 358 360 361 361 360 359 359 357 356 356 355 357 357 355 358 355 351 353 356 351 349 351 353 356 358 364 361 362 354
353 355 353 353 353 354 357 359 359 362 357 358 359 361 360 359 360 362 360 359 359 357 359 357 358 357 358 359 356 360 357 357 355 351 349 348 349 358 356 350 347 351 351
347 346 350 354 357 358 358 360 360 361 359 362 360 361 362 360 355 361 362 360 360 359 360 359 359 356 348 349 359 363 360 357 350 349 347 347 346 353 352 351 348 349 355
341 340 341 343 348 352 354 356 358 359 361 362 360 360 361 357 327 330 345 360 362 360 358 360 360 354 352 340 339 338 347 360 357 354 350 349 358 358 353 350 351 349 347
341 341 340 343 343 344 347 351 354 355 356 356 356 356 348 345 322 327 334 359 362 358 358 359 358 352 350 354 347 341 339 336 338 359 356 356 357 363 363 359 362 356 354
342 341 345 341 339 338 338 341 345 348 350 352 349 346 340 329 318 324 336 358 352 350 351 348 346 342 335 335 350 354 357 359 361 357 360 360 362 360 357 360 359 359 359
331 335 339 336 334 334 333 337 340 346 347 347 343 338 332 324 312 315 339 348 345 343 338 338 340 335 317 319 341 343 345 348 338 335 333 328 326 326 334 351 350 356 350
325 325 329 333 339 340 340 336 335 343 335 331 331 326 319 318 308 310 326 341 339 338 338 335 317 319 313 313 335 335 334 333 333 337 341 340 336 343 329 352 354 349 351
325 328 328 329 331 333 334 336 333 325 322 324 321 313 312 311 310 306 308 326 331 330 329 328 326 313 309 310 312 331 327 329 334 338 339 340 343 345 346 350 353 348 344
326 326 327 327 326 329 332 332 328 325 323 323 320 318 315 314 305 305 305 307 312 319 319 319 321 309 308 311 319 314 313 318 331 331 333 335 337 338 340 344 349 350 352
323 323 323 324 325 327 329 324 321 327 325 324 322 320 314 316 312 306 305 307 309 314 314 312 312 309 310 314 315 316 316 327 326 325 327 330 333 336 340 344 343 346 348
320 320 321 321 321 322 321 323 323 323 323 321 320 318 316 309 306 303 307 312 310 313 315 320 315 314 314 317 320 322 325 325 325 325 325 325 328 330 330 331 329 330 330
317 317 317 316 318 316 311 311 311 305 303 318 315 313 314 312 302 297 298 303 305 305 309 315 313 313 313 315 317 317 318 315 315 315 316 317 319 321 322 324 323 323 323
315 315 315 315 314 312 309 304 297 296 295 294 294 300 301 296 294 293 293 295 296 298 310 309 307 308 307 308 306 307 310 311 311 311 312 313 315 317 318 318 320 320 319
315 315 313 310 312 311 309 306 302 297 295 294 293 293 293 293 293 292 292 294 296 300 309 309 308 307 306 307 308 307 306 307 308 307 308 310 311 312 312 312 313 314 313
314 302 310 310 309 309 308 308 307 305 304 301 294 296 293 293 293 292 293 296 306 306 307 306 306 306 306 306 306 306 307 307 307 307 307 307 306 306 306 308 309 310 311
308 305 306 307 307 307 307 306 307 306 305 304 303 297 296 293 294 294 295 307 306 305 305 304 304 304 304 305 305 305 305 304 304 306 306 306 306 306 306 306 306 303 304
306 304 305 306 304 305 305 305 305 305 304 304 304 304 306 302 305 306 306 306 305 304 304 304 304 304 304 303 303 303 303 303 303 303 303 303 303 304 303 303 304 303 304
305 304 305 305 305 305 305 304 305 304 304 304 303 298 290 305 305 305 305 305 304 304 304 304 304 304 304 303 302 301 301 301 301 301 301 300 300 300 301 301 301 301 301
305 305 304 305 305 305 305 305 305 304 304 303 303 298 294 304 305 305 305 304 304 304 304 304 303 302 302 301 300 299 299 298 299 298 297 296 297 297 298 298 298 298 299
306 305 305 305 305 304 304 305 305 305 305 305 305 303 303 305 305 306 305 305 306 306 306 306 304 302 302 301 300 299 297 296 295 294 292 292 292 293 293 293 293 293 294
308 306 305 305 305 305 305 306 306 301 306 305 304 304 304 305 305 304 306 306 306 306 306 305 304 301 301 300 299 298 298 296 294 293 292 291 290 291 291 291 292 293 293
306 307 306 306 305 305 306 306 307 307 306 306 305 304 304 305 305 305 305 306 306 305 304 303 303 301 300 299 298 297 293 287 291 289 292 293 292 292 292 292 292 292 292
306 306 308 307 306 305 305 306 306 307 306 306 306 306 305 305 305 305 305 306 305 305 304 303 302 301 300 300 299 292 286 286 291 286 291 292 293 293 292 292 292 292 292

GFSGL_sfc_thetae_105.txt.gz
Theta_e
355 355 355 354 354 356 354 356 359 359 359 360 362 361 360 361 362 362 366 362 360 360 360 359 358 364 355 353 353 350 347 346 342 346 348 354 368 366 360 364 358 363 354
353 357 356 356 355 352 354 355 359 360 362 361 362 361 359 360 361 361 361 357 357 356 356 358 357 353 361 367 355 369 358 359 347 357 354 352 362 363 362 370 356 353 356
356 356 360 354 353 354 354 355 358 360 360 360 360 359 360 360 359 361 362 359 358 356 356 357 357 357 359 357 359 356 352 356 355 350 347 348 351 355 360 366 367 366 353
352 356 358 356 354 354 362 357 357 361 360 359 361 362 361 360 360 359 359 360 360 358 359 359 360 357 359 360 358 362 360 357 354 351 348 349 352 357 362 349 349 350 350
348 350 350 360 360 359 359 361 358 358 358 359 359 363 359 357 353 357 359 359 360 359 358 359 359 356 350 349 355 363 362 357 351 349 347 346 347 351 350 350 349 350 356
346 348 351 355 355 357 358 358 360 358 359 359 358 359 358 357 328 330 342 359 360 360 359 358 358 359 352 343 342 342 348 359 357 352 350 348 359 355 354 353 354 350 347
344 345 346 348 346 348 350 355 355 356 358 358 357 357 355 350 321 325 335 355 359 360 360 360 359 353 353 356 345 341 340 337 340 357 357 358 357 362 360 361 360 357 352
348 346 346 343 343 346 344 342 345 349 354 355 353 349 344 333 316 318 328 357 360 358 357 356 355 351 328 328 342 352 354 357 361 355 359 354 355 351 350 354 357 358 358
345 347 346 346 343 338 338 340 343 345 347 344 343 341 335 328 311 314 329 355 350 349 345 337 343 334 317 318 342 343 345 346 335 333 335 329 326 325 331 344 346 354 353
334 338 340 342 337 336 336 335 338 338 336 336 331 330 319 324 308 309 319 348 347 341 336 329 317 320 314 314 336 334 333 332 333 340 345 342 333 341 328 346 350 344 343
328 330 331 334 334 337 338 340 336 334 331 330 326 322 318 315 309 307 308 326 328 338 336 332 326 314 311 311 313 330 325 325 330 338 338 340 344 345 345 348 354 344 340
327 329 330 331 329 332 337 331 328 328 327 326 324 323 320 317 307 306 307 308 313 326 324 322 322 309 308 310 317 314 313 317 329 328 328 331 334 332 334 338 351 347 343
324 327 329 329 331 334 333 331 327 327 326 326 326 324 321 318 316 307 307 308 310 320 317 315 312 309 309 313 315 316 316 326 325 327 326 326 325 329 341 338 339 343 343
321 324 325 325 327 330 331 330 329 329 328 328 326 324 320 317 316 312 312 315 312 315 316 319 314 314 313 317 321 323 323 319 319 317 317 319 321 321 322 326 323 322 322
323 322 321 319 323 317 309 303 315 303 300 310 323 321 317 318 305 298 298 306 308 307 308 316 314 315 313 313 313 315 315 315 313 313 313 314 315 316 318 320 319 319 317
319 320 318 318 318 316 314 307 295 296 295 294 294 302 303 296 295 294 294 295 296 297 311 313 311 311 311 309 309 309 310 310 308 309 309 311 311 312 311 313 315 315 314
315 316 317 311 316 315 313 311 306 297 295 294 293 294 294 293 294 293 293 294 297 299 312 311 311 311 311 311 311 310 309 310 315 310 310 311 310 308 309 308 308 309 309
314 305 312 311 312 313 313 312 310 307 306 303 295 297 293 294 294 293 294 296 309 307 310 309 308 309 309 309 308 308 309 308 308 309 308 308 307 307 306 307 307 307 306
312 312 310 312 312 309 311 311 310 310 311 307 302 297 296 295 295 295 295 309 309 308 308 307 308 308 308 308 307 308 308 306 306 306 306 305 306 305 304 304 304 302 302
310 305 305 308 308 307 309 307 307 308 308 307 307 308 306 302 306 308 311 311 310 308 308 307 307 307 307 307 306 306 305 305 305 304 304 303 303 302 301 301 301 301 301
308 307 306 305 306 306 307 306 306 306 305 305 306 302 292 304 308 309 307 308 308 307 307 307 307 307 307 306 305 304 303 303 303 302 301 300 300 299 300 300 300 300 300
308 306 304 304 305 305 306 306 305 305 305 306 304 301 296 303 307 307 307 307 307 308 307 308 307 306 305 304 303 302 302 301 301 300 299 298 298 298 298 298 297 297 297
309 306 306 305 306 306 305 306 305 305 305 305 305 303 302 305 306 306 306 307 306 307 307 307 307 306 305 305 304 303 300 300 299 298 297 296 296 296 295 294 293 294 294
311 309 307 306 306 306 306 305 306 302 305 306 305 304 304 305 305 305 306 306 306 306 307 307 306 305 305 304 305 304 303 301 299 297 296 295 293 293 293 293 293 293 294
310 311 309 308 307 306 306 306 306 307 307 306 307 306 306 306 306 306 306 307 306 306 306 307 306 304 303 302 302 301 291 288 294 290 295 295 294 294 294 294 294 294 294
313 310 309 308 307 307 307 307 307 308 308 307 307 308 307 306 306 307 307 307 307 307 307 307 306 304 304 303 302 292 288 287 292 286 293 295 294 294 295 294 293 293 292

GFSGL_sfc_thetae_108.txt.gz
Theta_e
356 357 359 357 359 361 361 358 345 349 355 346 358 369 367 362 361 366 364 363 360 363 364 359 359 362 360 357 356 354 351 353 346 349 351 353 356 361 361 362 362 357 356
354 358 359 358 358 357 361 358 366 364 367 365 366 365 366 365 367 364 360 360 354 358 361 362 360 356 359 364 359 358 355 358 354 345 356 349 352 357 364 361 362 353 356
353 356 354 358 358 361 355 359 365 366 365 363 365 363 362 361 359 364 364 363 359 357 361 361 359 360 359 357 360 359 356 356 356 353 351 352 352 355 351 355 356 359 359
353 356 348 360 356 359 355 359 363 365 363 364 362 360 362 362 360 362 363 361 361 358 359 359 352 356 360 359 356 358 355 356 353 352 349 350 351 355 350 351 349 355 353
353 353 347 351 357 360 360 363 363 363 360 361 363 362 362 350 338 340 358 361 359 358 363 359 362 355 349 349 356 359 360 357 355 350 348 348 349 351 350 353 352 354 354
347 347 352 352 351 350 352 359 362 361 362 364 360 360 359 337 326 329 337 358 360 360 358 359 357 356 350 344 343 343 347 353 353 352 350 348 350 352 354 353 352 349 345
348 349 351 354 351 349 349 355 351 354 358 359 359 356 344 331 319 322 330 347 356 361 362 362 358 340 332 339 344 342 341 337 339 350 350 351 351 354 351 348 348 348 347
348 348 347 347 346 345 344 350 350 347 346 346 344 344 340 321 314 317 324 344 358 359 352 353 343 331 321 324 337 350 351 354 352 347 349 346 344 346 345 344 345 349 353
348 346 346 346 343 343 341 342 343 342 342 338 337 331 331 317 311 313 324 358 349 337 334 327 333 327 319 318 341 338 341 337 329 330 332 328 326 325 328 337 343 343 342
345 344 346 346 343 341 339 337 341 341 335 331 326 322 321 317 308 310 322 347 344 335 329 323 318 318 315 315 331 331 328 328 326 330 334 338 338 339 328 342 347 339 338
330 335 339 342 341 339 338 343 338 333 329 325 321 319 315 313 310 308 310 324 327 326 331 326 323 314 311 311 313 328 324 319 323 327 330 337 334 334 339 338 348 339 334
328 328 329 332 331 335 332 328 332 330 326 325 323 323 318 316 309 308 308 309 313 325 322 323 322 310 308 309 316 314 312 317 329 326 323 323 323 326 331 338 341 337 333
323 324 326 332 332 334 330 330 326 327 324 325 325 324 322 321 316 308 308 309 312 321 316 313 312 309 310 317 317 316 317 318 319 317 319 320 321 324 328 325 325 328 327
321 323 324 322 320 314 316 324 320 312 320 326 329 326 323 321 318 312 314 318 313 319 318 322 316 314 314 315 315 316 315 313 313 312 313 316 318 316 316 316 317 318 318
320 320 320 320 319 308 301 303 306 298 298 307 306 308 314 316 301 298 298 303 304 304 303 320 318 318 314 313 312 312 311 310 308 310 310 310 310 310 308 312 312 312 310
317 317 318 321 320 315 314 303 296 296 295 294 295 303 298 297 296 295 294 295 296 297 311 319 315 315 314 314 313 314 313 313 313 313 313 312 311 310 308 310 311 309 306
317 313 315 314 319 316 316 311 307 297 296 295 294 295 294 295 294 294 294 294 297 300 310 318 316 315 314 314 313 312 311 311 314 313 311 310 309 307 306 306 306 305 303
312 308 307 314 314 315 316 313 310 308 305 302 296 297 294 294 295 294 294 297 310 304 315 313 312 312 312 310 310 309 310 308 309 309 308 307 305 304 303 303 303 302 301
311 311 311 314 310 307 310 311 312 311 313 305 299 296 296 296 296 295 296 303 309 310 310 310 311 310 310 310 310 310 310 307 308 307 305 304 303 301 301 301 301 300 300
312 309 309 310 310 308 311 307 311 310 311 309 306 307 303 302 305 308 312 314 314 309 311 310 310 310 310 310 309 310 308 306 305 303 302 301 300 300 299 299 299 298 298
311 309 309 307 307 308 308 307 308 307 307 310 305 299 294 306 306 310 309 311 312 309 311 310 310 311 310 308 309 307 305 304 303 301 300 299 299 298 298 298 298 297 296
310 308 306 305 307 309 308 306 308 307 308 308 304 299 296 303 305 310 310 309 309 309 309 311 309 308 306 306 306 303 303 301 300 299 298 298 297 297 297 295 295 294 294
310 309 307 305 306 307 307 307 306 306 305 307 307 302 299 302 305 308 308 308 308 309 308 307 307 306 305 305 305 303 300 299 299 298 296 296 295 295 294 294 294 294 294
313 311 308 307 307 307 306 307 307 304 306 308 308 304 303 303 306 309 308 308 308 308 306 306 306 304 305 306 305 304 302 300 298 297 297 295 294 294 294 294 294 294 294
312 312 311 311 310 308 308 306 306 307 307 307 308 308 307 308 307 307 306 307 307 306 306 307 307 306 305 305 304 302 291 289 294 288 295 296 295 295 295 295 295 294 293
314 313 312 312 311 310 309 307 307 308 307 308 307 308 309 307 307 308 307 308 307 307 308 307 307 307 306 305 304 294 285 287 292 286 292 293 293 294 295 294 293 293 293

GFSGL_sfc_thetae_111.txt.gz
Theta_e
349 350 350 350 349 347 347 344 343 341 344 344 346 347 351 349 352 351 350 349 352 348 349 348 347 348 348 346 350 349 346 347 337 339 344 346 344 347 351 352 356 352 349
349 350 350 350 350 349 349 345 340 342 346 347 345 351 351 351 352 347 349 352 349 348 348 347 346 351 346 348 347 347 345 347 342 336 341 344 343 348 347 348 352 356 350
349 351 350 349 350 347 348 350 348 347 350 352 353 350 351 352 351 352 352 351 350 350 349 348 347 347 345 343 346 346 344 347 344 342 341 345 346 344 338 343 348 350 355
350 348 347 346 348 348 347 348 352 352 350 349 351 351 350 349 344 349 352 350 350 351 354 350 346 347 347 345 347 346 347 346 345 344 341 341 344 348 346 344 347 351 350
343 345 345 348 348 350 351 346 353 352 351 350 350 349 341 339 334 334 340 348 348 348 350 349 351 350 347 344 345 344 345 344 344 342 341 341 340 343 343 346 344 346 346
342 342 344 345 346 347 348 346 346 346 345 347 347 345 332 328 326 330 334 339 348 348 347 347 341 333 338 338 338 340 340 341 339 341 341 340 341 343 344 341 342 339 337
341 342 342 345 345 345 345 347 347 346 346 344 343 331 320 316 317 319 328 336 345 347 345 344 333 324 323 328 335 340 341 337 338 340 338 340 340 338 334 331 333 335 336
341 344 345 344 342 339 339 340 344 344 344 340 337 334 321 313 315 316 322 335 335 330 333 328 322 319 318 323 333 333 335 326 322 329 331 331 332 329 332 333 333 339 342
341 341 341 340 338 338 337 337 340 340 335 332 331 326 316 309 312 315 327 337 331 323 321 324 319 316 317 322 326 322 319 319 321 324 325 325 325 323 326 331 336 333 330
341 340 341 340 338 335 334 335 337 332 328 325 322 320 315 307 310 312 324 337 326 318 316 314 317 314 314 314 322 314 310 313 315 321 325 327 331 328 330 337 334 328 326
334 339 339 338 338 336 334 333 333 328 322 320 316 312 311 310 307 309 312 318 324 324 320 315 312 313 310 310 314 313 312 312 318 319 318 318 320 320 325 325 327 322 317
328 328 330 333 335 332 330 333 326 326 323 321 318 314 311 306 309 308 309 310 319 320 318 317 313 309 308 309 312 312 313 315 315 315 313 312 313 316 313 315 316 314 320
323 324 328 322 326 329 327 326 326 325 324 323 321 318 315 311 306 310 309 310 313 311 312 311 311 310 309 311 312 312 311 309 307 307 307 309 309 309 309 311 312 312 313
320 321 320 311 307 305 309 308 307 306 311 313 321 318 313 311 305 304 305 308 311 308 310 313 312 311 311 310 308 308 306 306 304 305 304 306 305 305 306 308 305 307 307
317 318 319 314 306 299 297 301 299 295 297 302 305 305 312 303 297 296 296 297 296 297 300 309 307 306 305 304 305 305 305 304 303 304 304 304 304 305 304 305 304 303 301
314 315 315 319 315 305 301 298 297 296 295 294 295 297 295 297 296 295 294 294 295 297 301 307 303 305 303 303 304 305 304 304 304 305 303 303 301 301 301 301 301 299 298
309 306 311 313 314 311 309 304 299 295 296 295 294 294 295 295 294 293 293 294 296 298 299 306 304 304 303 303 303 302 301 302 302 302 301 301 300 299 299 298 299 297 296
309 308 304 308 309 311 311 309 305 302 301 298 296 296 294 294 294 294 294 296 301 298 300 303 302 302 301 301 300 300 299 299 300 299 299 298 297 297 297 296 296 294 294
306 304 305 305 303 305 306 303 304 304 302 298 294 296 295 295 294 293 294 294 298 301 300 301 302 302 301 301 300 300 298 299 298 297 296 295 295 295 294 294 294 296 295
305 308 306 304 303 302 301 302 303 303 299 298 295 296 297 298 298 298 300 302 302 301 301 301 301 302 301 300 299 300 299 297 295 295 294 293 293 293 293 293 293 291 291
306 302 307 300 300 300 299 301 299 300 300 300 297 300 299 300 302 301 304 301 302 303 303 302 301 301 301 300 299 298 297 297 295 294 293 292 292 291 292 291 291 291 290
305 304 301 300 300 301 300 300 300 300 299 299 294 295 297 299 300 302 304 303 303 304 304 304 302 300 301 300 299 296 296 294 294 293 292 292 292 291 290 290 290 290 290
305 303 302 300 300 302 301 300 301 301 301 299 298 295 294 296 299 301 303 303 302 302 302 302 300 298 299 299 298 295 295 293 293 292 291 291 291 290 291 290 290 290 289
308 305 303 301 300 299 299 300 300 300 300 301 301 297 296 296 297 299 301 302 302 302 301 300 299 299 298 297 297 297 296 295 293 293 292 291 290 290 291 290 290 291 294
308 307 307 304 304 302 302 300 301 301 301 301 300 298 298 299 299 300 301 300 301 301 300 300 300 300 300 299 295 294 291 291 292 290 291 292 290 290 290 291 293 293 293
309 307 308 308 305 305 303 300 302 303 301 302 302 302 301 300 299 300 299 300 299 299 300 299 299 300 299 299 298 292 286 288 290 288 291 290 289 289 290 293 293 293 293

GFSGL_sfc_thetae_114.txt.gz
Theta_e
347 347 345 345 346 343 342 341 338 335 336 340 344 344 346 348 349 349 347 346 348 346 346 345 343 346 345 346 346 345 342 341 333 336 341 344 342 343 343 350 352 352 348
349 347 346 346 346 342 342 343 342 337 340 342 343 343 345 348 349 347 346 352 347 345 344 345 344 349 343 345 344 343 342 343 338 334 338 342 341 343 341 346 351 355 351
348 346 346 347 345 344 343 343 339 340 339 343 344 342 346 349 346 346 346 345 348 348 347 346 344 343 342 341 343 342 342 344 342 339 339 342 343 344 343 346 348 348 353
344 346 345 345 346 346 346 346 341 338 339 345 347 347 346 342 340 341 346 347 347 347 348 348 346 345 344 342 344 343 344 343 342 339 339 339 341 345 344 342 339 344 344
340 342 344 345 346 346 346 345 347 346 347 347 346 340 337 336 335 335 339 341 345 344 346 348 344 343 340 339 342 341 341 339 339 339 337 338 338 340 339 341 337 340 340
340 342 343 343 344 346 347 348 348 345 342 342 342 336 329 328 321 329 332 337 342 343 342 336 333 336 337 334 334 337 340 339 336 338 338 336 337 338 337 331 333 333 332
341 342 342 342 342 342 345 346 346 344 344 340 333 326 324 319 318 320 326 332 341 342 341 335 325 323 326 332 336 331 329 330 333 337 334 332 332 329 329 327 328 332 333
341 341 341 342 340 340 340 342 344 343 343 340 332 326 320 320 317 318 325 333 331 331 327 322 318 320 322 330 329 327 321 317 318 322 323 325 327 329 329 329 330 333 336
339 340 341 340 338 338 337 337 338 338 336 334 330 323 319 314 314 318 332 329 324 321 320 317 315 315 318 322 315 312 311 316 320 322 323 323 322 323 327 328 327 322 322
338 339 340 339 338 336 335 336 334 332 327 324 320 314 312 311 312 314 331 328 320 316 312 313 316 313 313 314 312 310 312 312 316 316 316 318 320 319 321 321 320 315 316
339 340 339 338 337 335 332 332 327 324 320 316 311 311 310 308 309 310 317 327 321 318 314 312 311 312 310 310 312 313 314 315 316 312 312 312 313 311 312 313 313 315 312
330 330 332 335 336 334 332 327 325 323 320 317 312 309 307 307 308 309 311 315 321 319 317 313 310 309 308 309 311 310 310 311 309 308 308 307 306 306 307 309 312 314 311
321 318 316 315 316 320 328 326 324 323 321 319 316 312 309 309 309 308 309 311 312 311 310 311 309 306 307 308 310 309 308 304 303 303 301 301 302 303 305 305 306 307 305
319 315 313 310 308 309 310 309 307 308 315 322 321 316 312 308 304 303 305 305 306 304 309 310 310 309 309 308 305 305 305 303 302 301 300 301 302 302 302 302 300 300 299
318 316 311 307 306 304 300 303 304 298 297 303 307 315 312 306 300 297 298 298 297 298 301 307 305 303 301 302 302 303 303 302 302 302 300 299 300 301 301 300 299 297 297
314 317 314 309 306 302 299 298 297 297 297 295 296 299 297 299 296 294 293 294 295 297 302 304 302 301 301 301 302 300 300 303 301 300 298 298 298 297 296 297 296 295 294
306 308 308 314 311 306 303 298 297 298 298 297 295 295 295 295 294 293 293 293 295 297 301 303 302 302 302 302 300 300 298 299 299 298 296 296 297 297 294 294 294 294 293
305 305 302 307 312 310 308 307 301 297 296 295 295 295 294 293 293 293 293 297 299 299 299 301 300 299 299 299 299 297 297 297 296 295 294 294 294 294 293 292 292 291 291
302 300 300 300 300 302 302 304 304 302 299 295 290 294 294 293 293 293 294 298 297 298 299 300 301 300 298 298 298 297 297 295 293 293 292 292 292 292 291 292 292 294 292
304 307 303 300 299 297 297 298 298 302 300 297 293 294 296 296 298 300 301 303 301 299 302 302 301 300 298 298 297 296 295 294 292 292 291 291 291 291 290 290 290 289 289
303 302 306 297 298 298 297 298 296 296 298 297 296 297 296 295 297 298 299 299 299 300 300 302 299 298 298 298 296 296 295 295 294 291 291 290 291 290 290 290 290 290 289
303 301 299 298 297 298 297 297 298 297 296 297 296 295 296 298 297 297 300 301 302 302 302 302 302 301 300 299 298 297 295 294 293 293 291 291 290 290 290 290 290 289 289
304 302 300 299 298 299 298 297 297 298 297 296 294 294 294 294 296 297 300 300 301 300 300 300 299 297 298 298 297 296 294 293 293 293 292 292 291 291 290 290 289 289 289
307 304 302 299 298 297 296 297 298 297 298 298 297 296 294 293 294 297 300 300 300 300 300 299 299 298 297 297 296 295 294 293 292 292 292 291 290 290 290 289 289 290 290
305 304 303 301 300 299 299 297 297 298 298 298 298 298 296 295 294 296 299 299 299 299 298 298 298 298 297 295 295 294 292 290 292 291 291 291 290 290 289 289 291 291 291
309 305 304 304 305 303 301 301 301 300 298 300 301 298 297 296 296 297 298 298 298 298 297 297 297 298 297 296 296 292 287 287 290 288 291 290 289 288 289 288 289 289 289

GFSGL_sfc_thetae_117.txt.gz
Theta_e
341 342 341 343 343 342 341 341 341 338 336 337 338 344 343 346 347 345 346 345 343 344 344 342 341 343 343 343 343 342 340 337 330 334 338 342 341 341 343 348 353 350 349
344 343 343 343 344 341 340 340 339 336 334 335 339 342 342 345 343 344 345 347 345 343 343 343 342 346 341 341 342 340 340 340 336 332 336 340 340 343 343 345 348 350 348
345 345 344 343 343 341 340 340 340 339 336 338 342 341 340 344 346 346 345 345 346 345 345 344 343 343 340 340 340 341 340 343 340 337 336 339 340 344 343 344 341 343 349
346 345 343 344 343 344 342 341 341 339 338 337 341 343 344 345 342 343 345 347 347 346 346 346 346 343 341 341 341 341 342 340 339 336 336 337 338 342 341 337 334 339 341
345 345 344 345 345 345 343 343 343 340 339 340 343 341 338 338 337 335 339 343 345 344 345 345 342 342 339 339 343 341 339 337 336 335 335 335 336 336 333 334 333 335 338
343 344 345 343 344 344 345 344 345 343 344 342 341 336 331 329 323 330 331 337 340 343 341 336 336 339 337 335 335 337 340 338 335 337 336 333 332 331 330 327 329 331 329
340 341 343 343 341 343 344 345 343 343 342 338 333 329 325 322 319 321 327 331 337 339 340 333 325 324 329 335 329 325 325 326 334 337 331 329 328 328 327 325 327 330 328
338 340 341 341 340 341 341 341 342 342 342 338 332 327 322 322 317 319 324 330 332 329 330 326 322 324 325 332 325 317 316 317 318 320 321 323 324 326 328 328 330 329 334
337 339 339 341 339 338 338 338 339 340 341 336 331 324 323 320 316 317 330 329 324 322 322 324 325 323 320 322 320 311 316 317 321 320 321 319 318 319 324 325 320 317 318
337 338 339 339 337 337 337 337 336 335 330 326 321 319 317 318 316 317 327 325 320 317 318 318 318 317 317 315 311 313 315 313 313 313 312 312 312 314 317 314 316 314 312
339 339 337 338 337 336 336 334 329 323 319 316 313 310 309 310 310 314 318 321 318 314 313 312 312 312 311 311 312 316 314 313 312 310 309 308 308 309 311 311 308 308 303
330 329 334 335 336 334 331 327 324 319 314 311 307 306 307 308 310 310 314 318 320 315 313 313 312 309 307 308 311 311 312 313 309 306 303 302 302 303 304 306 305 304 304
320 320 317 316 318 323 328 325 324 323 319 314 311 307 307 309 308 309 310 312 313 311 313 313 308 306 306 308 310 309 309 307 304 300 299 299 299 301 301 302 303 300 300
315 315 316 317 315 314 313 313 315 315 321 320 316 312 308 305 305 306 306 306 309 310 312 311 309 308 308 307 306 306 304 303 303 302 301 301 302 300 298 300 297 299 296
314 312 310 310 308 304 302 304 306 300 302 310 310 313 310 307 301 299 300 302 302 301 305 305 302 301 301 301 301 301 302 302 300 298 297 297 296 296 295 295 294 294 294
315 312 310 309 306 304 304 302 298 298 296 295 296 301 300 299 296 295 294 294 295 297 304 303 302 300 300 299 299 300 300 300 298 297 296 296 295 294 294 294 294 292 292
304 303 308 308 306 303 301 300 298 299 298 296 295 295 295 296 294 293 293 294 295 298 304 304 302 301 301 300 298 298 297 296 296 295 295 295 294 294 293 292 292 291 291
302 304 305 308 309 305 303 302 296 296 296 296 295 295 294 293 293 293 294 295 300 300 303 304 302 302 300 298 297 296 295 294 293 292 292 292 292 292 291 290 290 289 289
300 301 302 301 301 302 302 303 300 298 298 297 293 294 294 293 293 293 293 298 299 301 301 302 302 301 298 297 296 296 296 294 293 292 291 291 291 291 290 290 291 292 290
301 306 302 299 297 297 296 296 296 299 297 294 292 293 295 295 296 297 299 299 300 301 301 301 301 300 299 298 298 297 296 294 293 292 291 291 290 291 290 289 289 289 289
301 299 303 295 296 296 296 296 295 295 296 295 294 295 296 293 294 297 298 300 300 301 301 300 300 299 298 299 296 296 295 294 292 290 290 291 291 290 289 290 290 290 290
302 300 298 296 295 295 295 295 295 295 296 296 296 295 296 296 297 296 298 299 300 301 301 301 300 300 299 298 297 295 294 294 293 293 292 292 292 292 291 291 290 290 290
302 301 299 298 297 298 295 295 294 295 295 295 296 295 295 295 295 294 297 299 300 300 300 300 300 298 298 298 298 297 295 294 294 294 292 292 291 291 292 291 291 290 290
304 303 301 299 297 296 295 295 295 295 296 296 296 294 294 293 293 294 297 298 298 298 298 298 297 297 296 295 296 294 295 294 293 293 292 291 290 290 290 289 290 290 290
306 304 302 301 300 298 297 296 295 295 296 296 296 296 296 295 293 293 295 298 298 297 297 296 296 296 296 294 294 293 291 290 292 291 291 291 290 290 289 289 290 290 290
306 306 305 305 303 301 300 301 300 299 299 299 297 296 296 296 294 293 294 296 297 296 296 296 296 296 296 295 295 292 287 287 290 288 291 290 289 288 288 289 289 289 289